[[{"header":{"parameterUnit":"m.s-1","parameterCategory":1,"la1":30.6,"la2":29.2853,"lo1":-89.7004,"lo2":-87.6739,"dy":0.0162,"dx":0.0183,"nx":112,"ny":82,"refTime":"2025-05-22T18:00:00:Z","depth":0,"parameterNumber":2,"parameterNumberName":"U-component_of_WINDS"},"data":[0.0,0.0,0.0,0.0,0.0,0.0,0.0,0.0,0.0,0.0,0.0,0.0,0.0,0.0,0.0,0.0,0.0,0.0,0.0,0.0,0.0,0.0,0.0,0.0,0.0,0.0,0.0,0.0,0.0,0.0,0.0,0.0,0.0,0.0,0.0,0.0,0.0,0.0,0.0,0.0,0.0,0.0,0.0,0.0,0.0,0.0,0.0,0.0,0.0,0.0,0.0,0.0,0.0,0.0,0.0,0.0,0.0,0.0,0.0,0.0,0.0,0.0,0.0,0.0,0.0,0.0,0.0,0.0,0.0,0.0,0.0,0.0,0.0,0.0,0.0,0.0,0.0,0.0,0.0,0.0,0.0,0.0,0.0,0.0,0.0,0.0,0.0,0.0,0.0,0.0,-2.3376,-2.5183,-2.7474,-2.8663,-2.8125,-2.8138,-2.6924,-2.3963,0.0,0.0,0.0,0.0,0.0,0.0,0.0,0.0,0.0,0.0,0.0,0.0,0.0,0.0,0.0,0.0,0.0,0.0,0.0,0.0,0.0,0.0,0.0,0.0,0.0,0.0,0.0,0.0,0.0,0.0,0.0,0.0,0.0,0.0,0.0,0.0,0.0,0.0,0.0,0.0,0.0,0.0,0.0,0.0,0.0,0.0,0.0,0.0,0.0,0.0,0.0,0.0,0.0,0.0,0.0,0.0,0.0,0.0,0.0,0.0,0.0,0.0,0.0,0.0,0.0,0.0,0.0,0.0,0.0,0.0,0.0,0.0,0.0,0.0,0.0,0.0,0.0,0.0,0.0,0.0,0.0,0.0,0.0,0.0,0.0,0.0,0.0,0.0,0.0,0.0,0.0,0.0,0.0,0.0,0.0,0.0,0.0,0.0,0.0,0.0,0.0,0.0,0.0,0.0,-2.3073,-2.6645,-2.81,-2.882,-2.882,-2.7837,-2.6466,-2.4721,0.0,0.0,0.0,0.0,0.0,0.0,0.0,0.0,0.0,0.0,0.0,0.0,0.0,0.0,0.0,0.0,0.0,0.0,0.0,0.0,0.0,0.0,0.0,0.0,0.0,0.0,0.0,0.0,0.0,0.0,0.0,0.0,0.0,0.0,0.0,0.0,0.0,0.0,0.0,0.0,0.0,0.0,0.0,0.0,0.0,0.0,0.0,0.0,0.0,0.0,0.0,0.0,0.0,0.0,0.0,0.0,0.0,0.0,0.0,0.0,0.0,0.0,0.0,0.0,0.0,0.0,0.0,0.0,0.0,0.0,0.0,0.0,0.0,0.0,0.0,0.0,0.0,0.0,0.0,0.0,0.0,0.0,0.0,0.0,0.0,0.0,0.0,0.0,0.0,0.0,0.0,0.0,0.0,0.0,0.0,0.0,0.0,0.0,0.0,0.0,0.0,0.0,0.0,-2.3158,-2.5255,-2.8427,-2.9105,-2.9411,-2.9521,-2.7856,-2.6144,-2.4671,-2.2067,0.0,0.0,0.0,0.0,0.0,0.0,0.0,0.0,0.0,0.0,0.0,0.0,0.0,0.0,0.0,0.0,0.0,0.0,0.0,0.0,0.0,0.0,0.0,0.0,0.0,0.0,0.0,0.0,0.0,0.0,0.0,0.0,0.0,0.0,0.0,0.0,0.0,0.0,0.0,0.0,0.0,0.0,0.0,0.0,0.0,0.0,0.0,0.0,0.0,0.0,0.0,0.0,0.0,0.0,0.0,0.0,0.0,0.0,0.0,0.0,0.0,0.0,0.0,0.0,0.0,0.0,0.0,0.0,0.0,0.0,0.0,0.0,0.0,0.0,0.0,0.0,0.0,0.0,0.0,0.0,0.0,0.0,0.0,0.0,0.0,0.0,0.0,0.0,0.0,0.0,0.0,0.0,0.0,0.0,0.0,0.0,0.0,0.0,0.0,0.0,0.0,0.0,-2.6034,-2.7616,-2.9681,-3.0049,-3.0093,-3.0013,-2.7926,-2.5965,-2.445,-2.1344,0.0,0.0,0.0,0.0,0.0,0.0,0.0,0.0,0.0,0.0,0.0,0.0,0.0,0.0,0.0,0.0,0.0,0.0,0.0,0.0,0.0,0.0,0.0,0.0,0.0,0.0,0.0,0.0,0.0,0.0,0.0,0.0,0.0,0.0,0.0,0.0,0.0,0.0,0.0,0.0,0.0,0.0,0.0,0.0,0.0,0.0,0.0,0.0,0.0,0.0,0.0,0.0,0.0,0.0,0.0,0.0,0.0,0.0,0.0,0.0,0.0,0.0,0.0,0.0,0.0,0.0,0.0,0.0,0.0,0.0,0.0,0.0,0.0,0.0,0.0,0.0,0.0,0.0,0.0,0.0,0.0,0.0,0.0,0.0,0.0,0.0,0.0,0.0,0.0,0.0,0.0,0.0,0.0,0.0,0.0,0.0,0.0,0.0,0.0,0.0,0.0,0.0,-2.6749,-2.9016,-2.9802,-3.0613,-3.081,-3.0062,-2.7959,-2.5983,-2.4321,-2.0667,0.0,0.0,0.0,0.0,0.0,0.0,0.0,0.0,0.0,0.0,0.0,0.0,0.0,0.0,0.0,0.0,0.0,0.0,0.0,0.0,0.0,0.0,0.0,0.0,0.0,0.0,0.0,0.0,0.0,0.0,0.0,0.0,0.0,0.0,0.0,0.0,0.0,0.0,0.0,0.0,0.0,0.0,0.0,0.0,0.0,0.0,0.0,0.0,0.0,0.0,0.0,0.0,0.0,0.0,0.0,0.0,0.0,0.0,0.0,0.0,0.0,0.0,0.0,0.0,0.0,0.0,0.0,0.0,0.0,0.0,0.0,0.0,0.0,0.0,0.0,0.0,0.0,0.0,0.0,0.0,0.0,0.0,0.0,0.0,0.0,0.0,0.0,0.0,0.0,0.0,0.0,0.0,0.0,0.0,0.0,0.0,0.0,0.0,0.0,0.0,0.0,0.0,-2.6736,-2.924,-3.0458,-3.1379,-3.1578,-3.0802,-2.8636,-2.6421,-2.4272,0.0,0.0,0.0,0.0,0.0,0.0,0.0,0.0,0.0,0.0,0.0,0.0,0.0,0.0,0.0,0.0,0.0,0.0,0.0,0.0,0.0,0.0,0.0,0.0,0.0,0.0,0.0,0.0,0.0,0.0,0.0,0.0,0.0,0.0,0.0,0.0,0.0,0.0,0.0,0.0,0.0,0.0,0.0,0.0,0.0,0.0,0.0,0.0,0.0,0.0,0.0,0.0,0.0,0.0,0.0,0.0,0.0,0.0,0.0,0.0,0.0,0.0,0.0,0.0,0.0,0.0,0.0,0.0,0.0,0.0,0.0,0.0,0.0,0.0,0.0,0.0,0.0,0.0,0.0,0.0,0.0,0.0,0.0,0.0,0.0,0.0,0.0,0.0,0.0,0.0,0.0,0.0,0.0,0.0,0.0,0.0,0.0,0.0,0.0,0.0,0.0,0.0,-2.4262,-2.7528,-3.0043,-3.1342,-3.2252,-3.2361,-3.1355,-2.9088,-2.6684,-2.424,0.0,0.0,0.0,0.0,0.0,0.0,0.0,0.0,0.0,0.0,0.0,0.0,0.0,0.0,0.0,0.0,0.0,0.0,0.0,0.0,0.0,0.0,0.0,0.0,0.0,0.0,0.0,0.0,0.0,0.0,0.0,0.0,0.0,0.0,0.0,0.0,0.0,0.0,0.0,0.0,0.0,0.0,0.0,0.0,0.0,0.0,0.0,0.0,0.0,0.0,0.0,0.0,0.0,0.0,0.0,0.0,0.0,0.0,0.0,0.0,0.0,0.0,0.0,0.0,0.0,0.0,0.0,0.0,0.0,0.0,0.0,0.0,0.0,0.0,0.0,0.0,0.0,0.0,0.0,0.0,0.0,0.0,0.0,0.0,0.0,0.0,0.0,0.0,0.0,0.0,0.0,0.0,0.0,0.0,0.0,0.0,0.0,0.0,0.0,0.0,0.0,0.0,-2.6098,-2.9379,-3.1684,-3.2426,-3.3271,-3.3146,-3.1544,-2.92,-2.6738,0.0,0.0,0.0,0.0,0.0,0.0,0.0,0.0,0.0,0.0,0.0,0.0,0.0,0.0,0.0,0.0,0.0,0.0,0.0,0.0,0.0,0.0,0.0,0.0,0.0,0.0,0.0,0.0,0.0,0.0,0.0,0.0,0.0,0.0,0.0,0.0,0.0,0.0,0.0,0.0,0.0,0.0,0.0,0.0,0.0,0.0,0.0,0.0,0.0,0.0,0.0,0.0,0.0,0.0,0.0,0.0,0.0,0.0,0.0,0.0,0.0,0.0,0.0,0.0,0.0,0.0,0.0,0.0,0.0,0.0,0.0,0.0,0.0,0.0,0.0,0.0,0.0,0.0,0.0,0.0,0.0,0.0,0.0,0.0,0.0,0.0,0.0,0.0,0.0,0.0,0.0,0.0,0.0,0.0,0.0,0.0,0.0,0.0,0.0,0.0,0.0,0.0,0.0,-2.6027,-2.9308,-3.1607,-3.2346,-3.3223,-3.3066,-3.1468,-2.9678,-2.735,-2.4286,0.0,0.0,0.0,0.0,0.0,0.0,0.0,0.0,0.0,0.0,0.0,0.0,0.0,0.0,0.0,0.0,0.0,0.0,0.0,0.0,0.0,0.0,0.0,0.0,0.0,0.0,0.0,0.0,0.0,0.0,0.0,0.0,0.0,0.0,0.0,0.0,0.0,0.0,0.0,0.0,0.0,0.0,0.0,0.0,0.0,0.0,0.0,0.0,0.0,0.0,0.0,0.0,0.0,0.0,0.0,0.0,0.0,0.0,0.0,0.0,0.0,0.0,0.0,0.0,0.0,0.0,0.0,0.0,0.0,0.0,0.0,0.0,0.0,0.0,0.0,0.0,0.0,0.0,0.0,0.0,0.0,0.0,0.0,0.0,0.0,0.0,0.0,0.0,0.0,0.0,0.0,0.0,0.0,0.0,0.0,0.0,0.0,0.0,0.0,0.0,0.0,0.0,-2.6948,-2.9716,-3.1748,-3.2825,-3.3433,-3.308,-3.1481,-3.0204,-2.8077,-2.4811,0.0,0.0,0.0,0.0,0.0,0.0,0.0,0.0,0.0,0.0,0.0,0.0,0.0,0.0,0.0,0.0,0.0,0.0,0.0,0.0,0.0,0.0,0.0,0.0,0.0,0.0,0.0,0.0,0.0,0.0,0.0,0.0,0.0,0.0,0.0,0.0,0.0,0.0,0.0,0.0,0.0,0.0,0.0,0.0,0.0,0.0,0.0,0.0,0.0,0.0,0.0,0.0,0.0,0.0,0.0,0.0,0.0,0.0,0.0,0.0,0.0,0.0,0.0,0.0,0.0,0.0,0.0,0.0,0.0,0.0,0.0,0.0,0.0,0.0,0.0,0.0,0.0,0.0,0.0,0.0,0.0,0.0,0.0,0.0,0.0,0.0,0.0,0.0,0.0,0.0,0.0,0.0,0.0,0.0,0.0,0.0,0.0,0.0,0.0,0.0,0.0,0.0,-2.84,-3.0393,-3.2021,-3.3623,-3.3807,-3.3146,-3.1544,-3.065,-2.8833,-2.5595,0.0,0.0,0.0,0.0,0.0,0.0,0.0,0.0,0.0,0.0,0.0,0.0,0.0,0.0,0.0,0.0,0.0,0.0,0.0,0.0,0.0,0.0,0.0,0.0,0.0,0.0,0.0,0.0,0.0,0.0,0.0,0.0,0.0,0.0,0.0,0.0,0.0,0.0,0.0,0.0,0.0,0.0,0.0,0.0,0.0,0.0,0.0,0.0,0.0,0.0,0.0,0.0,0.0,0.0,0.0,0.0,0.0,0.0,0.0,0.0,-2.4505,-2.346,0.0,0.0,0.0,0.0,0.0,0.0,0.0,0.0,0.0,0.0,0.0,0.0,0.0,0.0,0.0,0.0,0.0,0.0,0.0,0.0,0.0,0.0,0.0,0.0,0.0,0.0,0.0,0.0,0.0,0.0,0.0,0.0,0.0,0.0,0.0,0.0,0.0,0.0,0.0,0.0,-2.8455,-3.0393,-3.2021,-3.3623,-3.3807,-3.3146,-3.1544,-3.065,-2.8833,-2.5595,-2.3603,0.0,0.0,0.0,0.0,0.0,0.0,0.0,0.0,0.0,0.0,0.0,0.0,0.0,0.0,0.0,0.0,0.0,0.0,0.0,0.0,0.0,0.0,0.0,0.0,0.0,0.0,0.0,0.0,0.0,0.0,0.0,0.0,0.0,0.0,0.0,0.0,0.0,0.0,0.0,0.0,0.0,0.0,0.0,0.0,0.0,0.0,0.0,0.0,0.0,0.0,0.0,0.0,0.0,0.0,0.0,0.0,0.0,0.0,0.0,-2.7725,-2.6301,0.0,0.0,0.0,0.0,0.0,0.0,0.0,0.0,0.0,0.0,0.0,0.0,0.0,0.0,0.0,0.0,0.0,0.0,0.0,0.0,0.0,0.0,0.0,0.0,0.0,0.0,0.0,0.0,0.0,0.0,0.0,0.0,0.0,0.0,0.0,0.0,0.0,0.0,0.0,0.0,-2.8491,-3.0393,-3.2021,-3.3623,-3.3807,-3.3311,-3.2082,-3.1237,-2.9732,-2.7273,-2.4937,0.0,0.0,0.0,0.0,0.0,0.0,0.0,0.0,0.0,0.0,0.0,0.0,0.0,0.0,0.0,0.0,0.0,0.0,0.0,0.0,0.0,0.0,0.0,0.0,0.0,0.0,0.0,0.0,0.0,0.0,0.0,0.0,0.0,0.0,0.0,0.0,0.0,0.0,0.0,0.0,0.0,0.0,0.0,0.0,0.0,0.0,0.0,0.0,0.0,0.0,0.0,0.0,0.0,-3.3318,-3.3821,-3.4001,-3.3563,-3.3882,-3.4633,-3.2011,-3.0421,-2.9521,-2.7888,0.0,0.0,0.0,0.0,0.0,0.0,0.0,0.0,0.0,0.0,0.0,0.0,0.0,0.0,0.0,0.0,0.0,0.0,0.0,0.0,0.0,0.0,-2.7671,-2.9328,-2.9913,-2.9087,-2.5467,0.0,0.0,0.0,0.0,0.0,0.0,0.0,0.0,0.0,0.0,0.0,-2.873,-3.0613,-3.2173,-3.3642,-3.3807,-3.3476,-3.2674,-3.1861,-3.0705,-2.9097,-2.6374,-2.4366,0.0,0.0,0.0,0.0,0.0,0.0,0.0,0.0,0.0,0.0,0.0,0.0,0.0,0.0,0.0,0.0,0.0,0.0,0.0,0.0,0.0,0.0,0.0,0.0,0.0,0.0,0.0,0.0,0.0,0.0,0.0,0.0,-2.2254,-2.3282,0.0,0.0,0.0,0.0,0.0,0.0,0.0,0.0,0.0,0.0,0.0,0.0,0.0,-3.158,-3.3154,-3.4827,-3.6069,-3.6891,-3.8487,-3.927,-3.9308,-3.9214,-3.9261,-3.9385,-3.8974,0.0,-3.2552,-3.1614,0.0,0.0,0.0,0.0,0.0,0.0,0.0,0.0,0.0,0.0,0.0,0.0,0.0,0.0,0.0,0.0,0.0,0.0,0.0,0.0,0.0,0.0,-3.2797,-3.1658,-3.2318,-3.2722,-3.0964,-2.8407,-2.6319,-2.5909,-2.3639,-2.1702,0.0,0.0,0.0,0.0,0.0,0.0,-2.9696,-3.1445,-3.2797,-3.3697,-3.3807,-3.3476,-3.2674,-3.1861,-3.0705,-2.9097,-2.7952,-2.6347,-2.4145,-2.3079,0.0,0.0,0.0,0.0,0.0,0.0,0.0,0.0,0.0,0.0,0.0,0.0,0.0,0.0,0.0,0.0,0.0,0.0,0.0,0.0,0.0,0.0,0.0,0.0,0.0,0.0,0.0,0.0,0.0,-2.243,-2.4602,-2.3976,-2.5157,-2.547,0.0,0.0,0.0,0.0,0.0,0.0,0.0,0.0,0.0,-3.2974,-3.4292,-3.5572,-3.6795,-3.8476,-3.9489,-3.9852,-4.0764,-4.1268,-4.1415,-4.0948,-4.084,-4.0967,-4.0827,-3.9578,-3.7461,-3.5281,-3.3705,-3.2546,0.0,0.0,0.0,0.0,-3.0441,-3.0085,-3.1648,-3.1784,-3.1279,-3.132,0.0,0.0,0.0,0.0,0.0,0.0,0.0,-2.9991,-3.0572,-3.2355,-3.4028,-3.4247,-3.4756,-3.5046,-3.441,-3.272,-3.0693,-2.8536,-2.7238,-2.5962,-2.4126,-2.352,0.0,0.0,0.0,-2.8154,-3.0558,-3.188,-3.2913,-3.3715,-3.3807,-3.366,-3.3311,-3.2118,-3.1103,-3.0393,-2.8741,-2.7108,-2.5621,-2.4337,-2.2547,0.0,0.0,0.0,0.0,0.0,0.0,0.0,0.0,0.0,0.0,0.0,0.0,0.0,0.0,0.0,0.0,0.0,0.0,0.0,0.0,0.0,0.0,0.0,0.0,0.0,0.0,0.0,0.0,-2.4619,-2.6657,-2.5359,-2.7248,-2.7829,0.0,0.0,0.0,0.0,0.0,0.0,-3.2623,-3.4331,-3.5744,-3.6776,-3.8018,-3.9183,-4.0272,-4.1514,-4.224,-4.2469,-4.2659,-4.286,-4.305,-4.244,-4.2276,-4.2459,-4.2265,-4.2177,-4.1909,-3.8532,-3.6766,-3.6026,-3.4452,-3.3791,-3.379,-3.4429,-3.4175,-3.375,-3.5538,-3.5685,-3.5092,-3.5293,-3.4119,-3.2375,-3.0968,0.0,0.0,0.0,0.0,-3.183,-3.3642,-3.4431,-3.5055,-3.6303,-3.6762,-3.6853,-3.6652,-3.6101,-3.4674,-3.1394,-3.0629,-2.9751,-2.7357,-2.6586,0.0,-2.6605,-2.7816,-2.9439,-3.1439,-3.2412,-3.3146,-3.3733,-3.3807,-3.3807,-3.3807,-3.232,-3.1397,-3.1397,-2.9329,-2.775,-2.6943,-2.5566,-2.4033,-2.2364,0.0,0.0,0.0,0.0,0.0,0.0,0.0,0.0,0.0,0.0,0.0,0.0,0.0,0.0,0.0,0.0,0.0,0.0,0.0,0.0,0.0,0.0,0.0,0.0,0.0,0.0,0.0,0.0,0.0,-2.8747,-3.0206,0.0,0.0,0.0,0.0,-3.1152,-3.3463,-3.5278,-3.6194,-3.7846,-3.9508,-4.1132,-4.1266,-4.2087,-4.372,-4.3834,-4.4303,-4.5116,-4.5123,-4.5142,-4.5152,-4.512,-4.511,-4.512,-4.5091,-4.508,-4.4816,-4.1203,-3.9357,-3.8707,-3.7872,-3.7074,-3.6499,-3.7302,-3.7442,-3.7338,-3.8242,-3.8487,-3.8579,-3.9331,-3.7991,-3.5881,-3.4968,-3.361,0.0,0.0,-3.3555,-3.4802,-3.4912,-3.6119,-3.7345,-3.7419,-3.801,-3.8377,-3.7603,-3.7419,-3.685,-3.5055,-3.2889,-3.1286,-3.114,0.0,-2.9078,-2.9843,-3.0668,-3.1531,-3.2417,-3.3238,-3.3752,-3.3807,-3.3807,-3.3807,-3.3807,-3.232,-3.1397,-3.1397,-2.9861,-2.8583,-2.778,-2.6924,-2.5731,-2.4116,-2.2455,0.0,0.0,0.0,0.0,0.0,0.0,0.0,0.0,0.0,0.0,0.0,0.0,0.0,0.0,0.0,0.0,0.0,0.0,0.0,0.0,0.0,0.0,0.0,0.0,0.0,0.0,0.0,0.0,-3.1448,-3.3408,0.0,-3.3498,-3.4216,-3.4915,-3.542,-3.733,-3.8839,-3.968,-4.1323,-4.2478,-4.31,-4.3654,-4.4475,-4.5592,-4.5105,-4.5258,-4.6061,-4.5335,-4.4887,-4.4707,-4.4544,-4.4749,-4.5233,-4.5233,-4.5233,-4.5148,-4.3847,-4.2779,-4.1876,-4.1029,-4.0415,-4.0013,-4.0137,-4.0133,-4.0085,-4.0202,-4.0233,-4.0212,-3.9974,-3.9313,-3.845,-3.7628,-3.6967,-3.6633,-3.7147,-3.7716,-3.8267,-3.8784,-3.9371,-3.9827,-3.9827,-4.0047,-4.0029,-3.9237,-3.9053,-3.8707,-3.7591,-3.5844,-3.4211,-3.3128,-3.2894,-3.2784,-3.2559,-3.3201,-3.4014,-3.4871,-3.4729,-3.4564,-3.4564,-3.4119,-3.3807,-3.3807,-3.232,-3.1397,-3.1397,-2.9886,-2.84,-2.709,-2.6759,-2.5841,-2.4226,-2.3125,-2.1465,0.0,0.0,0.0,0.0,0.0,0.0,0.0,0.0,0.0,0.0,0.0,0.0,0.0,0.0,0.0,0.0,0.0,0.0,0.0,0.0,0.0,0.0,0.0,0.0,0.0,0.0,-3.3825,-3.4055,-3.6324,-3.7507,-3.6574,-3.7538,-3.8437,-3.8935,-4.0578,-4.1772,-4.2316,-4.3692,-4.4437,-4.4437,-4.4991,-4.5564,-4.6099,-4.5564,-4.5564,-4.6099,-4.5335,-4.4875,-4.4695,-4.4517,-4.4735,-4.5223,-4.5223,-4.5392,-4.5637,-4.5637,-4.5332,-4.475,-4.3397,-4.2822,-4.2701,-4.2441,-4.234,-4.231,-4.2016,-4.1919,-4.1827,-4.1277,-4.0928,-4.0598,-4.0084,-3.9735,-3.9625,-4.0157,-4.0304,-4.0432,-4.0948,-4.1095,-4.1095,-4.1095,-4.1095,-4.0948,-4.0414,-4.0304,-4.0065,-3.9258,-3.7808,-3.634,-3.5238,-3.5275,-3.5261,-3.4724,-3.511,-3.5646,-3.6229,-3.5807,-3.5445,-3.5445,-3.4692,-3.4197,-3.4197,-3.2467,-3.1397,-3.1397,-2.9641,-2.8117,-2.7053,-2.6484,-2.5695,-2.464,-2.3272,-2.1905,-2.0484,0.0,0.0,0.0,0.0,0.0,0.0,0.0,0.0,0.0,0.0,0.0,0.0,0.0,0.0,0.0,0.0,0.0,0.0,0.0,0.0,0.0,0.0,0.0,-3.0464,-3.3377,-3.5844,-3.6695,-3.8999,-4.0179,-3.9297,-4.0729,-4.1695,-4.1619,-4.3119,-4.4045,-4.4045,-4.4838,-4.5307,-4.5345,-4.5345,-4.5364,-4.5422,-4.5403,-4.5403,-4.5422,-4.5403,-4.5373,-4.5373,-4.5373,-4.5392,-4.5411,-4.5411,-4.584,-4.6566,-4.6547,-4.6869,-4.7181,-4.4965,-4.4237,-4.4398,-4.4113,-4.4008,-4.3942,-4.3615,-4.3515,-4.3515,-4.3515,-4.2965,-4.2341,-4.2341,-4.1791,-4.1168,-4.1168,-4.1168,-4.1168,-4.1168,-4.1168,-4.1168,-4.1168,-4.1168,-4.1168,-4.1132,-4.1132,-4.091,-4.0084,-3.8686,-3.7603,-3.7547,-3.6905,-3.6376,-3.6376,-3.6376,0.0,-3.6376,-3.634,-3.634,-3.634,-3.5536,-3.5004,-3.5004,-3.2797,-3.1397,-3.1397,-2.9138,-2.7798,-2.7798,-2.6274,-2.5429,-2.5393,-2.3079,-2.1418,-2.0521,0.0,0.0,0.0,0.0,0.0,0.0,0.0,0.0,0.0,0.0,0.0,0.0,0.0,0.0,0.0,0.0,0.0,0.0,0.0,0.0,0.0,-3.2442,-3.4096,-3.407,-3.6474,-3.8969,-4.0995,-4.237,-4.3282,-4.3608,-4.4029,-4.4306,-4.4326,-4.4716,-4.4934,-4.4934,-4.5163,-4.5564,-4.6156,-4.6175,-4.6787,-4.804,-4.7436,-4.7436,-4.8059,-4.7417,-4.7003,-4.682,-4.682,-4.7143,-4.7694,-4.7694,-4.7827,-4.7979,-4.739,-4.7258,-4.7308,-4.6435,-4.5641,-4.4932,-4.4617,-4.4148,-4.3615,-4.3531,-4.3515,-4.3515,-4.3515,-4.3349,-4.3167,-4.3167,-4.302,-4.2837,-4.2837,-4.2837,-4.2837,-4.2837,-4.2837,-4.2837,-4.2837,-4.2837,-4.2671,-4.2103,-4.1974,-4.1735,-4.0946,-4.0414,-3.9753,-3.8579,-3.8193,-3.8046,-3.8046,-3.8046,-3.8046,-3.8046,-3.7533,-3.718,-3.718,-3.5866,-3.5004,-3.5004,-3.2797,-3.1397,-3.1397,-2.9138,-2.7798,-2.7798,-2.6814,-2.5988,-2.5411,-2.4181,-2.2822,0.0,0.0,0.0,0.0,0.0,0.0,0.0,0.0,0.0,0.0,0.0,0.0,0.0,0.0,0.0,0.0,0.0,0.0,0.0,0.0,0.0,0.0,-3.5661,-3.7469,-3.8519,-3.9969,-4.155,-4.3325,-4.4276,-4.4949,-4.5352,-4.537,-4.537,-4.54,-4.5654,-4.5804,-4.5844,-4.6148,-4.6557,-4.7035,-4.7043,-4.7532,-4.8544,-4.8048,-4.8048,-4.8544,-4.8036,-4.772,-4.7571,-4.7571,-4.7819,-4.8256,-4.8112,-4.8346,-4.8751,-4.8162,-4.8092,-4.8287,0.0,0.0,0.0,0.0,-4.5239,-4.4406,-4.4406,-4.4183,-4.3871,-4.3871,-4.3871,-4.3873,-4.373,-4.3716,-4.3682,-4.3531,-4.3515,-4.3515,-4.3515,-4.3515,-4.3515,-4.3515,-4.3515,-4.3369,-4.2892,-4.28,-4.2561,-4.1772,-4.159,0.0,-3.9921,-3.9441,-3.9093,-3.8762,-3.8707,-3.8707,-3.8707,-3.8285,-3.7991,-3.7991,-3.6835,-3.5917,-3.5573,-3.3623,0.0,0.0,0.0,-2.8007,-2.7328,-2.6851,0.0,0.0,0.0,0.0,0.0,-2.3281,0.0,0.0,-2.1175,-2.1249,0.0,0.0,0.0,0.0,0.0,0.0,0.0,0.0,0.0,0.0,0.0,0.0,0.0,0.0,0.0,0.0,-3.8584,-4.0546,-4.2893,-4.3316,-4.3645,-4.436,-4.5117,-4.5531,-4.5429,-4.5506,-4.5544,-4.5563,-4.6249,-4.6685,-4.6738,-4.7412,0.0,0.0,0.0,-4.8132,-4.8227,-4.8323,-4.8361,-4.8361,-4.8361,-4.8323,-4.8227,-4.8227,-4.817,-4.8063,-4.7782,-4.8256,-4.9202,-4.8827,-4.9085,-4.9483,-4.7207,-4.6916,-4.7734,-4.7409,-4.666,-4.5781,-4.5738,0.0,0.0,-4.4529,-4.4491,-4.4416,-4.4097,-4.3974,-4.3878,-4.3582,-4.3515,-4.3515,-4.3515,-4.3515,-4.3515,-4.3515,-4.3515,-4.3515,-4.3515,-4.3515,-4.3277,-4.2561,-4.2433,-4.2176,-4.137,-4.0487,-3.9662,-3.8946,-3.8762,-3.8707,-3.8707,-3.8707,-3.8707,-3.8707,-3.7988,0.0,-3.6358,-3.4761,-3.3146,-3.1635,-3.0118,-2.8583,-2.706,-2.709,-2.7108,-2.7016,-2.7016,-2.695,-2.6859,-2.6859,-2.6914,-2.6932,-2.3683,-2.3334,0.0,0.0,0.0,0.0,0.0,0.0,0.0,0.0,0.0,0.0,0.0,0.0,0.0,0.0,0.0,-3.933,-4.1219,-4.2758,-4.3912,-4.4662,-4.5163,-4.5327,-4.5454,-4.5522,-4.5559,-4.61,-4.6474,-4.6532,-4.727,-4.7698,-4.7648,-4.7809,-4.8179,-4.8842,-4.948,-5.0149,-5.0863,-5.1505,-5.183,-5.183,-5.183,0.0,-5.0863,-5.0863,-5.0481,-4.9813,-4.9747,-4.9854,-5.0015,-4.93,-4.9086,-4.9127,-4.8102,-4.7673,-4.7564,-4.6847,-4.6448,-4.6222,-4.5961,-4.5934,-4.5919,-4.5252,-4.5062,-4.4913,-4.4206,-4.3814,0.0,-4.3532,-4.3515,-4.3515,-4.3515,-4.3515,-4.3515,-4.3515,-4.3515,-4.3515,-4.3515,-4.3515,-4.346,-4.3313,-4.3276,-4.3002,-4.2213,-4.0855,-3.9845,-3.968,-3.9129,-3.8707,-3.8707,-3.8707,-3.8707,-3.8707,-3.7988,-3.718,-3.6358,-3.4761,-3.3385,-3.243,-3.1476,-3.0503,-2.9549,-3.0136,-3.0173,-2.9531,-2.9512,-2.917,-2.8546,-2.8546,-2.8877,-2.9439,-2.683,-2.5894,0.0,0.0,0.0,0.0,0.0,0.0,0.0,0.0,0.0,0.0,0.0,-3.447,-3.648,0.0,-3.9471,-4.1986,-4.3124,-4.3989,-4.4816,-4.5325,-4.5594,-4.5594,-4.5568,-4.5741,-4.6201,-4.6551,-4.6935,-4.7424,-4.8154,-4.8612,-4.8602,-4.9354,-4.998,-5.0398,-5.1147,-5.1754,-5.2193,-5.2594,-5.2805,-5.2805,-5.2805,-5.2594,-5.2193,-5.2193,-5.1964,-5.1525,-5.0951,-5.0792,-5.0863,-4.9884,-4.9442,-4.9417,-4.9083,-4.8865,-4.8641,-4.8262,-4.7747,-4.7268,-4.7436,-4.7233,-4.6786,-4.6377,-4.606,-4.5714,-4.5009,-4.4509,-4.4095,-4.3828,-4.3749,-4.3716,-4.3531,-4.3515,-4.3515,-4.3515,-4.3515,-4.3515,-4.3515,-4.3515,-4.3515,-4.3515,-4.3515,-4.3369,-4.2965,-4.1901,-4.0818,-4.001,-3.9551,-3.9166,-3.8762,-3.8707,-3.8707,-3.8707,-3.834,-3.7771,-3.6978,-3.5367,-3.405,-3.3256,-3.2449,-3.1825,-3.1408,-3.1403,-3.1213,-3.0797,-3.0797,-3.0595,-3.021,-3.021,-3.0411,-3.076,-2.9549,-2.8998,0.0,0.0,0.0,0.0,0.0,0.0,0.0,0.0,-3.3619,-3.5356,-3.6367,-3.7584,-3.9721,-4.0723,-4.1978,-4.4182,-4.4547,-4.4797,-4.5498,-4.5594,-4.5594,-4.5594,-4.5748,-4.6124,-4.6827,-4.7145,-4.7597,-4.8288,-4.9201,-4.9747,-4.9786,-5.119,-5.1978,-5.1947,-5.2686,-5.309,-5.3077,-5.323,-5.3314,-5.3301,-5.3301,-5.3225,-5.3053,-5.3053,-5.2957,-5.2754,-5.1832,-5.1573,-5.1749,-5.0634,-5.0149,-5.013,-4.9887,-4.9803,-4.9803,-4.9803,-4.9174,-4.8423,-4.896,-4.8504,-4.7683,-4.7585,-4.7257,-4.6793,-4.6145,-4.5477,-4.487,-4.4378,-4.4116,-4.3942,-4.3666,-4.3548,-4.3532,-4.3582,-4.3566,-4.3515,-4.3515,-4.3515,-4.3515,-4.3515,-4.3515,-4.3515,-4.3515,-4.2947,-4.2047,-4.0579,-4.0102,-3.9662,-3.9019,-3.8799,-3.8707,-3.8707,-3.8707,-3.8377,-3.7566,-3.6119,-3.4894,-3.4082,-3.3587,-3.3243,-3.3078,-3.2614,-3.2351,-3.2351,-3.2192,-3.2173,-3.2351,-3.2173,-3.2192,-3.2351,-3.2351,-3.2021,-3.0367,-3.0384,-3.0847,-3.2422,-3.2461,-3.328,0.0,0.0,-3.7357,-3.963,-4.0771,-4.1646,-4.2522,-4.3344,-4.422,-4.5287,-4.546,-4.5498,-4.5594,-4.5594,-4.5594,-4.5594,-4.6278,-4.6797,-4.6885,-4.8231,-4.9163,-4.924,-5.0712,-5.1585,-5.1525,-5.2436,-5.2933,-5.2847,-5.369,-5.4108,-5.4049,-5.4745,-5.5109,-5.5116,-5.5116,-5.4696,-5.3951,-5.3951,-5.3531,-5.2785,-5.2665,-5.2627,-5.2594,-5.1756,-5.14,-5.128,-5.0214,-4.9803,-4.9803,-4.9803,-4.9528,-4.9186,-4.9243,-4.9187,-4.9013,-4.8591,-4.8408,-4.8207,-4.7453,-4.645,-4.5528,-4.5171,-4.4559,-4.3989,-4.3958,-4.3732,-4.3565,-4.3878,-4.3716,-4.3515,-4.3515,-4.3515,-4.3515,-4.3515,-4.3515,-4.3515,-4.3515,-4.3441,-4.3057,-4.2176,-4.0818,-3.9863,-3.9772,-3.9148,-3.8707,-3.8707,-3.8707,-3.8377,-3.7566,-3.667,-3.5789,-3.4931,-3.5514,-3.555,-3.4766,-3.5385,-3.5752,-3.5752,-3.4986,-3.4968,-3.5752,-3.4968,-3.5004,-3.5752,-3.5752,-3.4187,-3.3724,-3.3875,-3.4161,0.0,-3.6501,-3.7908,-4.0054,-4.0405,-4.0818,-4.2719,-4.3349,-4.3782,-4.4532,-4.4872,-4.5336,0.0,-4.6355,-4.6528,-4.699,-4.6644,-4.6355,-4.6355,-4.7086,-4.7605,-4.7605,-4.8682,-4.9606,-5.0106,-5.1241,-5.1894,-5.1854,-5.314,-5.3838,-5.3815,-5.4588,-5.4975,-5.497,-5.5248,-5.5402,-5.5396,-5.5396,-5.5212,-5.4868,-5.4868,-5.4371,-5.355,-5.355,-5.3263,-5.2766,-5.2442,-5.2021,-5.1551,-5.104,-5.0545,-5.0063,-4.987,-4.9584,-4.9363,-4.9744,-4.9744,-4.9561,-4.9365,-4.9106,-4.8788,-4.8263,-4.7549,-4.6759,-4.5954,-4.5476,-4.5077,-4.4391,-4.4132,-4.4053,-4.4206,-4.4132,-4.4023,-4.4023,-4.4023,-4.398,-4.3812,-4.3921,-4.398,-4.3812,-4.3921,-4.3911,-4.3576,-4.1998,-4.0615,-3.9987,-3.9334,-3.8881,-3.8723,-3.8707,-3.8377,-3.7566,-3.7624,-3.7331,-3.6505,-3.6813,-3.6831,-3.6468,-3.6358,-3.6303,-3.6303,-3.6099,-3.6176,-3.6527,-3.6285,-3.629,-3.6527,-3.6527,-3.5712,-3.589,0.0,0.0,-3.8063,-3.9917,-4.1576,-4.2064,-4.2669,-4.3515,-4.4881,-4.5053,-4.5138,-4.5692,-4.5692,-4.5893,-4.6759,-4.6904,-4.7173,-4.799,-4.7413,-4.6904,-4.6904,-4.7413,-4.7855,-4.8086,-4.9106,-5.0106,-5.0971,-5.1798,-5.2365,-5.2596,-5.3988,-5.4754,-5.4754,-5.5285,-5.5551,-5.5527,-5.5468,-5.542,-5.5408,-5.539,-5.5403,-5.5403,-5.5403,-5.5059,-5.4467,-5.4467,-5.4104,-5.3492,-5.3263,-5.2824,-5.227,-5.2021,-5.141,-5.0622,-5.0399,-4.9938,-4.9527,-5.0088,-5.0076,-4.9817,-4.9916,-4.9719,-4.9388,-4.9138,-4.8641,-4.7983,-4.7061,-4.6455,-4.5912,-4.5081,-4.464,-4.4411,-4.4493,-4.4452,-4.4397,-4.4397,-4.4397,-4.4346,-4.4151,-4.4279,-4.4346,-4.4151,-4.426,-4.4397,-4.4397,-4.3077,-4.1683,-4.0592,-3.9733,-3.9142,-3.8935,-3.8921,-3.8681,-3.8103,-3.8519,-3.8475,-3.7661,-3.7757,-3.7731,-3.7511,-3.7216,-3.7057,-3.7057,-3.7113,-3.7237,-3.7461,-3.7408,-3.7396,-3.7461,-3.7461,-3.7363,0.0,0.0,-3.8911,-4.0564,-4.1674,-4.2806,-4.4502,-4.4893,-4.5135,-4.5901,-4.5953,-4.5847,-4.5815,-4.5692,-4.5893,-4.6759,-4.6904,-4.7173,-4.799,-4.7413,-4.6904,-4.6904,-4.6923,-4.7231,0.0,-4.9644,-5.0991,-5.1788,-5.2673,-5.353,-5.4376,-5.5203,-5.5665,-5.5665,-5.5684,-5.5651,-5.5596,-5.5527,-5.5468,-5.5408,-5.539,-5.5403,-5.5403,-5.5403,-5.5403,-5.5365,-5.5365,-5.5345,-5.5269,-5.4409,-5.4046,-5.3932,-5.3091,-5.227,-5.1551,-5.1551,-5.0799,-4.983,-5.0169,-5.0076,-4.9857,-5.0169,-5.0271,-5.0264,-5.0252,-4.9691,-4.8995,-4.8637,-4.7346,-4.6095,-4.6064,-4.5234,-4.4465,-4.4726,-4.4585,-4.4397,-4.4397,-4.4397,-4.4402,-4.4402,-4.4383,-4.4402,-4.4402,-4.4383,-4.4397,-4.4397,-4.3913,-4.3126,-4.1993,-4.0465,-3.9471,-3.9489,-3.9489,-3.9471,-3.9452,-3.9213,-3.8734,-3.7936,-3.8376,-3.8303,-3.7529,-3.8483,-3.9013,-3.9013,-3.8502,-3.8638,-3.9408,-3.8631,-3.865,-3.9427,-3.9427,-3.9414,-3.8194,0.0,-4.0663,-4.2398,-4.3489,-4.4426,-4.5597,-4.5851,-4.5925,-4.6184,-4.6135,-4.6033,-4.5998,-4.5854,-4.6183,-4.7603,-4.7754,-4.8202,-4.9625,-4.9086,-4.8336,-4.7759,-4.8221,0.0,0.0,0.0,0.0,-5.1788,-5.2712,-5.3587,-5.4453,-5.5261,-5.5703,-5.5703,-5.5703,-5.5692,-5.5682,-5.5596,-5.5551,-5.5527,-5.5488,-5.547,-5.547,-5.547,-5.547,-5.547,-5.547,-5.547,-5.5432,-5.5108,-5.4644,-5.4127,-5.3804,-5.3129,-5.2403,-5.2403,-5.1788,-5.0926,-5.0458,-5.0224,-5.0144,-5.0259,-5.0302,-5.0302,-5.0302,-5.0111,-4.9755,-4.9101,-4.8105,-4.7095,-4.6523,-4.5673,-4.503,-4.5109,-4.5065,-4.5007,-4.5007,-4.5007,-4.4941,-4.472,-4.485,-4.4929,-4.4701,-4.485,-4.5007,-4.5007,-4.4052,-4.2857,-4.1546,-4.0734,-4.0096,-3.957,-3.9514,-3.9514,-3.9514,-3.9259,-3.8971,-3.8711,-3.8704,-3.8651,-3.8557,-3.8897,-3.9178,-3.9363,-3.9352,-3.949,-3.9762,-3.9669,-3.9669,-3.9762,-3.9762,-3.967,-4.0554,-4.1641,-4.2456,-4.4193,-4.5051,-4.5617,-4.6163,-4.63,-4.63,-4.63,-4.595,-4.565,-4.565,-4.5223,-4.5522,-4.7506,-4.7739,-4.8375,-5.0423,-4.9952,-4.9183,-4.8625,-4.9067,-4.9298,0.0,0.0,0.0,-5.2231,-5.3164,-5.403,-5.4876,-5.5415,-5.5703,-5.5703,-5.5703,-5.5703,-5.5703,-5.5629,-5.5585,-5.5562,-5.5516,-5.5504,-5.5504,-5.5504,-5.5504,-5.5504,-5.5504,-5.5504,-5.5492,-5.5456,-5.5138,-5.4659,-5.4586,-5.4045,-5.33,-5.3275,-5.2759,-5.1942,-5.1066,-5.0569,-5.0302,-5.0302,-5.0302,-5.0302,-5.0302,-5.0302,-5.0187,-4.9671,-4.8926,-4.8067,-4.7188,-4.6347,-4.566,-4.5383,-4.5307,-4.5307,-4.5307,-4.5307,-4.5235,-4.5023,-4.5143,-4.5235,-4.5023,-4.5162,-4.5307,-4.5307,-4.4539,-4.3514,-4.2278,-4.1465,-4.0787,-4.0276,-3.9963,-3.9792,-3.9792,-3.9551,-3.9389,-3.9389,-3.9124,-3.9059,-3.9232,-3.9337,-3.9477,-3.9647,-3.9903,-4.0038,-4.0038,-4.0225,-4.0206,-4.0038,-4.0038,-3.9954,-4.3031,-4.3769,-4.4232,-4.589,-4.63,-4.63,-4.63,-4.63,-4.6261,-4.6183,-4.5404,-4.4715,0.0,0.0,-4.4033,-4.654,-4.6957,-4.7865,-5.0404,-5.0058,-4.9538,0.0,0.0,0.0,0.0,0.0,0.0,-5.3145,-5.3991,-5.4799,-5.5645,-5.5703,-5.5703,-5.5703,-5.5703,-5.5703,-5.5703,-5.5649,-5.5573,-5.5516,-5.5516,-5.5516,-5.5516,-5.5516,-5.5516,-5.5516,-5.5516,-5.5516,-5.5516,-5.5504,-5.5504,-5.5504,-5.5432,-5.4929,-5.4259,-5.4198,-5.3656,-5.2855,-5.2038,-5.1154,-5.0371,-5.0333,-5.0314,-5.0314,-5.0314,-5.0314,-5.0314,-5.0314,-4.9721,-4.8899,-4.8086,-4.7188,-4.632,-4.5555,-4.5345,-4.5307,-4.5307,-4.5307,-4.5307,-4.5307,-4.5307,-4.5307,-4.5307,-4.5307,-4.5307,-4.5307,-4.5307,-4.4991,-4.4102,-4.2603,-4.1609,-4.1571,-4.0845,-4.0358,-4.0358,-4.0086,-3.9903,-3.9903,-3.9658,-3.9514,-3.9526,-3.9762,-3.9914,-3.9924,-4.0166,-4.0301,-4.0301,-4.0301,-4.0301,-4.0301,-4.0301,-4.0301,-4.3357,-4.4642,-4.5734,-4.6183,-4.63,-4.63,-4.63,-4.63,-4.5929,-4.4621,-4.4165,-4.3572,0.0,0.0,0.0,-4.5879,-4.7175,0.0,-5.126,-5.1479,0.0,-5.127,0.0,-5.2068,-5.1645,-5.276,0.0,0.0,-5.378,-5.4164,-5.5626,-5.5703,-5.5703,-5.5703,-5.5703,-5.5703,-5.5703,-5.5673,-5.5682,-5.564,-5.564,-5.564,-5.564,-5.564,-5.564,-5.564,-5.564,-5.564,-5.566,-5.5596,-5.5573,-5.5562,-5.5504,-5.5346,-5.5174,-5.515,-5.4625,-5.392,-5.3686,-5.2652,-5.1311,-5.0648,-5.0457,-5.0457,-5.0457,-5.0457,-5.0457,-5.0457,-4.9825,-4.9126,-4.8896,-4.7756,-4.6606,-4.6396,-4.584,-4.5361,-4.5361,-4.537,-4.5369,-4.5369,-4.5328,-4.5307,-4.5307,-4.5307,-4.5307,-4.5307,-4.5307,-4.4991,-4.4102,-4.3624,-4.3138,-4.2526,-4.1705,-4.1189,-4.1189,-4.039,-3.9903,-3.9903,-3.9658,-3.9599,-3.9785,-3.9851,-3.9996,-4.0186,-4.0282,-4.0301,-4.0301,-4.0301,-4.0301,-4.0301,-4.0301,-4.0301,-4.4974,-4.6124,-4.6866,-4.6866,-4.6866,-4.6573,-4.5421,-4.5168,-4.466,-4.2925,-4.224,0.0,-4.0717,-4.1529,0.0,0.0,0.0,0.0,-5.1073,-5.1818,-5.2185,0.0,-5.3241,0.0,-5.3087,-5.3933,-5.4645,0.0,-5.4568,-5.4703,-5.5645,-5.5703,-5.5703,-5.5703,-5.5703,-5.5703,-5.5703,-5.5703,-5.5703,-5.5703,-5.5703,-5.5703,-5.5703,-5.5703,-5.5703,-5.5703,-5.5703,-5.5703,-5.5703,-5.5651,-5.564,-5.5629,-5.5573,-5.5539,-5.5539,-5.5516,-5.524,-5.4821,-5.4476,-5.3489,-5.2263,-5.1365,-5.0807,-5.05,-5.05,-5.05,-5.05,-5.05,-5.0146,-4.9686,-4.9303,-4.8497,-4.7605,-4.6876,-4.634,-4.586,-4.5477,-4.54,-4.5398,-4.5359,-4.5328,-4.5307,-4.5307,-4.5307,-4.5307,-4.5307,-4.5307,-4.5125,-4.4628,-4.4236,-4.3834,-4.3357,-4.2565,-4.1915,-4.1533,-4.0958,-4.0449,-4.0096,-3.9924,-3.9933,-4.0077,-4.0077,-4.0157,-4.0301,-4.0301,-4.0301,-4.0301,-4.0301,-4.0301,-4.0301,-4.0301,-4.0301,-4.6981,-4.7684,-4.7723,-4.7625,-4.7606,-4.6923,-4.4309,-4.3606,-4.2962,-4.0992,0.0,-3.9409,-3.9175,-4.0055,-4.1377,-4.3061,0.0,-4.7975,-5.0634,-5.168,-5.2495,-5.3446,-5.4225,-5.4676,-5.4664,-5.4664,-5.4953,-5.5645,-5.5703,-5.5703,-5.5703,-5.5703,-5.5703,-5.5703,-5.5703,-5.5703,-5.5703,-5.5703,-5.5703,-5.5703,-5.5703,-5.5703,-5.5703,-5.5703,-5.5703,-5.5703,-5.5703,-5.5703,-5.5703,-5.5703,-5.5703,-5.5684,-5.5649,-5.5607,-5.5607,-5.5551,-5.5562,-5.5511,-5.482,-5.4045,-5.3201,-5.2156,-5.1242,-5.0521,-5.0521,-5.0521,-5.0521,-5.0521,-5.0521,-5.0359,-4.9592,-4.9304,-4.8863,-4.7395,-4.6896,-4.6513,-4.5765,-4.5496,-4.5379,-4.5328,-4.5307,-4.5307,-4.5307,-4.5307,-4.5307,-4.5307,-4.5307,-4.5307,-4.5307,-4.4647,-4.4159,-4.4159,-4.3443,-4.266,-4.1896,-4.1724,-4.1361,-4.0683,-4.0626,-4.0568,-4.0454,-4.0454,-4.0416,-4.0301,-4.0301,-4.0301,-4.0301,-4.0301,-4.0301,-4.0301,-4.0301,-4.0301,-4.7489,-4.8096,-4.8427,-4.7762,-4.7606,-4.6923,-4.4309,-4.3138,0.0,0.0,-3.7848,-3.7282,-3.5857,-3.7964,-4.0471,-4.2158,0.0,0.0,0.0,0.0,-5.3188,0.0,0.0,0.0,0.0,-5.5491,0.0,0.0,-5.5703,-5.5703,-5.5703,-5.5703,-5.5703,-5.5703,-5.5703,-5.5703,-5.5703,-5.5703,-5.5703,-5.5703,-5.5703,-5.5703,-5.5703,-5.5703,-5.5703,-5.5703,-5.5703,-5.5703,-5.5703,-5.5703,-5.5703,-5.5703,-5.5692,-5.5673,-5.5673,-5.5662,-5.5662,-5.5654,-5.5519,-5.4942,-5.401,-5.2403,-5.1326,-5.0663,-5.0663,-5.0663,-5.0663,-5.0663,-5.0663,-5.0625,-5.0471,-4.9913,-4.9298,-4.9,-4.7866,-4.6828,-4.6674,-4.5994,-4.54,-4.5379,-4.5338,-4.5307,-4.5307,-4.5307,-4.5307,-4.5307,-4.5307,-4.5307,-4.5307,-4.5163,-4.5067,-4.5067,-4.4322,-4.372,-4.3586,-4.2966,-4.2507,-4.2374,-4.2374,-4.2049,-4.1323,-4.1285,-4.0979,-4.0301,-4.0301,-4.0301,-4.0301,-4.0301,-4.0301,-4.0301,-4.0301,-4.0301,-4.8115,-4.8837,-4.9267,-4.8427,-4.8213,-4.7198,-4.3256,0.0,0.0,0.0,-3.5584,-3.5154,-3.4764,0.0,0.0,0.0,0.0,0.0,0.0,0.0,0.0,0.0,0.0,0.0,0.0,-5.5738,-5.5703,-5.5703,-5.5703,-5.5703,-5.5703,-5.5703,-5.5703,-5.5703,-5.5703,-5.5703,-5.5703,-5.5703,-5.5703,-5.5703,-5.5703,-5.5703,-5.5703,-5.5703,-5.5703,-5.5703,-5.5703,-5.5703,-5.5703,-5.5703,-5.5703,-5.5703,-5.5703,-5.5703,-5.5703,-5.5703,-5.5703,-5.5703,-5.5703,-5.5164,-5.428,-5.301,-5.201,-5.1241,-5.0827,-5.0712,-5.0712,-5.0712,-5.0712,-5.0712,-5.0712,-5.0385,-4.9952,-4.951,-4.8125,-4.6769,-4.6281,-4.5764,-4.54,-4.539,-4.5339,-4.5307,-4.5338,-4.5317,-4.5307,-4.5307,-4.5307,-4.5307,-4.5307,-4.5307,-4.5307,-4.5307,-4.4934,-4.4494,-4.4045,-4.3643,-4.3252,-4.2832,-4.2794,-4.2603,-4.2183,-4.2183,-4.1991,-4.1609,-4.1609,-4.1609,-4.1609,-4.1609,-4.138,-4.0922,-4.0922,-4.0711,-4.8624,-4.9579,-5.0124,-4.9052,-4.8798,-4.7451,-4.228,-4.0288,0.0,0.0,-3.3729,-3.3398,-3.4256,0.0,0.0,0.0,0.0,0.0,0.0,0.0,0.0,0.0,0.0,0.0,0.0,-5.5798,0.0,-5.5695,-5.5703,-5.5703,-5.5703,-5.5703,-5.5703,-5.5703,-5.5703,-5.5703,-5.5703,-5.5703,-5.5703,-5.5703,-5.5703,-5.5703,-5.5703,-5.5703,-5.5703,-5.5703,-5.5703,-5.5703,-5.5703,-5.5703,-5.5703,-5.5703,-5.5703,-5.5703,-5.5703,-5.5703,-5.5703,-5.5703,-5.5703,-5.528,-5.4587,-5.3549,-5.2596,-5.175,-5.0933,-5.0712,-5.0712,-5.0712,-5.0712,-5.0712,-5.0712,-5.0712,-5.0481,-4.9606,-4.8259,-4.6923,-4.6002,-4.5591,-4.5419,-4.5419,-4.537,-4.5329,-4.5399,-4.5369,-4.5319,-4.5317,-4.5317,-4.5317,-4.5307,-4.5307,-4.5307,-4.5307,-4.5307,-4.501,-4.4331,-4.4274,-4.4017,-4.3386,-4.3348,-4.3252,-4.3061,-4.3061,-4.2985,-4.2794,-4.2794,-4.2794,-4.2794,-4.2794,-4.245,-4.1762,-4.159,-4.1151,-4.8781,-5.0008,-5.0887,-4.9228,-4.8798,-4.7451,-4.228,0.0,0.0,-3.4236,-3.2831,-3.248,-3.3357,-3.4938,0.0,0.0,0.0,0.0,0.0,0.0,0.0,0.0,0.0,0.0,0.0,-5.5898,-5.5836,-5.5705,-5.5703,-5.5703,-5.5703,-5.5703,-5.5703,-5.5703,-5.5703,-5.5703,-5.5703,-5.5703,-5.5703,-5.5703,-5.5703,-5.5703,-5.5703,-5.5703,-5.5703,-5.5703,-5.5703,-5.5703,-5.5703,-5.5703,-5.5703,-5.5703,-5.5703,-5.5703,-5.5703,-5.5703,-5.5703,-5.5703,-5.5703,-5.5645,-5.5318,-5.3722,-5.2596,-5.175,-5.0933,-5.0712,-5.0712,-5.0712,-5.0712,-5.0712,-5.0712,-5.0712,-5.0481,-4.9606,-4.8682,-4.7769,-4.6942,-4.6098,-4.5495,-4.5495,-4.5448,-4.539,-4.54,-4.539,-4.539,-4.5389,-4.5398,-4.5378,-4.5307,-4.5307,-4.5307,-4.5307,-4.5307,-4.5269,-4.5182,-4.5182,-4.5144,-4.5067,-4.5078,-4.4723,-4.3911,-4.3892,-4.3548,-4.2813,-4.2794,-4.2794,-4.2794,-4.2794,-4.2756,-4.266,-4.1858,-4.1457,-4.8529,-4.9696,-5.0321,-4.9091,-4.8447,-4.6846,-4.2163,0.0,-3.7126,-3.4686,-3.3066,-3.2539,-3.3925,-3.4744,-3.6052,0.0,0.0,0.0,0.0,0.0,0.0,0.0,0.0,0.0,0.0,0.0,-5.5959,-5.5836,-5.5738,-5.5703,-5.5703,-5.5703,-5.5703,-5.5703,-5.5703,-5.5703,-5.5703,-5.5703,-5.5703,-5.5703,-5.5703,-5.5703,-5.5703,-5.5703,-5.5703,-5.5703,-5.5703,-5.5703,-5.5703,-5.5703,-5.5703,-5.5703,-5.5703,-5.5703,-5.5703,-5.5703,-5.5703,-5.5703,-5.5703,-5.5703,-5.5415,-5.3741,-5.2972,-5.2433,-5.1087,-5.0712,-5.0712,-5.0712,-5.0712,-5.0712,-5.0712,-5.0712,-5.0481,-4.9606,-4.874,-4.7875,-4.7058,-4.6165,-4.5513,-4.5559,-4.5457,-4.5419,-4.5448,-4.5429,-4.54,-4.54,-4.539,-4.539,-4.5361,-4.535,-4.5348,-4.5348,-4.5317,-4.5307,-4.5307,-4.5307,-4.5307,-4.5307,-4.5307,-4.5144,-4.48,-4.4781,-4.4628,-4.4303,-4.4303,-4.4303,-4.4303,-4.4303,-4.4036,-4.351,-4.3176,-4.2469,-4.7673,-4.888,-4.9503,-4.8662,-4.7824,-4.6147,0.0,-3.9336,-3.713,-3.5119,-3.3518,-3.2931,-3.4433,-3.4708,-3.5469,0.0,0.0,-4.0075,0.0,0.0,0.0,0.0,0.0,-5.374,0.0,-5.5883,-5.6057,-5.5978,-5.5817,-5.5758,-5.5758,-5.5726,-5.5703,-5.5703,-5.5703,-5.5703,-5.5703,-5.5703,-5.5703,-5.5703,-5.5703,-5.5703,-5.5703,-5.5703,-5.5703,-5.5703,-5.5703,-5.5703,-5.5703,-5.5703,-5.5703,-5.5703,-5.5703,-5.5703,-5.5703,-5.5703,-5.5703,-5.5703,-5.5703,-5.553,-5.5107,-5.3664,-5.3029,-5.2549,-5.1125,-5.0712,-5.0712,-5.0712,-5.0712,-5.0712,-5.0712,-5.0712,-5.0558,-4.9933,-4.9125,-4.8259,-4.7432,-4.6559,-4.5858,-4.5643,-4.5522,-4.5466,-4.5513,-4.5495,-4.5448,-4.5429,-4.5429,-4.5419,-4.541,-4.539,-4.5409,-4.5409,-4.5359,-4.5317,-4.5307,-4.5307,-4.5307,-4.5307,-4.5307,-4.5307,-4.5307,-4.5307,-4.5307,-4.5307,-4.5307,-4.5307,-4.5307,-4.5307,-4.4972,-4.438,-4.4121,-4.31,-4.6099,-4.7541,-4.8613,-4.7805,-4.6969,-4.5392,0.0,-3.9791,-3.7858,-3.5242,-3.3992,-3.3658,-3.4531,-3.4692,-3.5279,-3.703,0.0,0.0,0.0,0.0,0.0,0.0,0.0,-5.2057,-5.3662,-5.5216,-5.6097,-5.6097,-5.5967,-5.5907,-5.5907,-5.5759,-5.5703,-5.5703,-5.5703,-5.5703,-5.5703,-5.5703,-5.5703,-5.5703,-5.5703,-5.5703,-5.5703,-5.5703,-5.5703,-5.5703,-5.5703,-5.5703,-5.5703,-5.5703,-5.5703,-5.5703,-5.5703,-5.5703,-5.5703,-5.5703,-5.5703,-5.5703,-5.5703,-5.5184,-5.4376,-5.3491,-5.2615,-5.175,-5.0952,-5.0712,-5.0712,-5.0712,-5.0712,-5.0712,-5.0712,-5.0712,-5.0712,-5.0693,-5.001,-4.9144,-4.8279,-4.7442,-4.6624,-4.5768,-4.5594,-4.5594,-4.5594,-4.5594,-4.5577,-4.5504,-4.5504,-4.5466,-4.541,-4.54,-4.54,-4.54,-4.54,-4.5359,-4.5307,-4.5307,-4.5307,-4.5307,-4.5307,-4.5307,-4.5307,-4.5307,-4.5307,-4.5307,-4.5307,-4.5307,-4.5307,-4.5307,-4.5307,-4.5269,-4.4399,-4.31,-4.3252,-4.4461,-4.5105,-4.4263,-4.3835,-4.288,-4.005,-3.8525,-3.7312,-3.5887,-3.489,-3.4558,-3.5436,-3.5593,-3.6355,-3.8694,-3.9471,0.0,0.0,0.0,0.0,0.0,-5.2973,-5.5155,0.0,0.0,-5.6242,-5.6242,-5.6035,-5.5907,-5.5907,-5.5769,-5.5703,-5.5703,-5.5703,-5.5703,-5.5703,-5.5703,-5.5703,-5.5703,-5.5703,-5.5703,-5.5703,-5.5703,-5.5703,-5.5703,-5.5703,-5.5703,-5.5703,-5.5703,-5.5703,-5.5703,-5.5703,-5.5703,-5.5703,-5.5703,-5.5703,-5.5703,-5.5703,-5.5164,-5.4357,-5.3491,-5.2596,-5.175,-5.0933,-5.0712,-5.0712,-5.0712,-5.0712,-5.0712,-5.0712,-5.0712,-5.0712,-5.0712,-5.0029,-4.9163,-4.8298,-4.7471,-4.6644,-4.5768,-4.5594,-4.5594,-4.5594,-4.5594,-4.5586,-4.5568,-4.5568,-4.5568,-4.555,-4.5495,-4.5476,-4.5476,-4.5429,-4.54,-4.5369,-4.5328,-4.5307,-4.5307,-4.5307,-4.5307,-4.5307,-4.5307,-4.5307,-4.5307,-4.5307,-4.5307,-4.5307,-4.5307,-4.5307,-4.5288,-4.4418,-4.372,0.0,-4.181,-4.2591,-4.2043,-4.1672,-4.0952,-3.9038,-3.7671,-3.6654,-3.6107,-3.5306,-3.4974,-3.5831,-3.6007,-3.6533,-3.8151,-3.9199,0.0,0.0,0.0,0.0,0.0,0.0,0.0,0.0,-5.6107,-5.6413,-5.6413,-5.6189,-5.6044,-5.6044,-5.588,-5.5788,-5.5788,-5.5726,-5.5703,-5.5703,-5.5703,-5.5703,-5.5703,-5.5703,-5.5703,-5.5703,-5.5703,-5.5703,-5.5703,-5.5703,-5.5703,0.0,-5.5703,-5.5703,-5.5703,-5.5703,-5.5703,-5.5703,-5.5703,-5.5511,-5.5241,-5.5241,-5.4491,-5.3433,-5.2895,-5.2145,-5.1356,-5.0837,-5.0712,-5.0712,-5.0712,-5.0712,-5.0712,-5.0712,-5.0712,-5.0712,-5.0712,-5.0289,-4.9548,-4.8355,-4.7721,-4.7009,-4.5825,-4.5594,-4.5594,-4.5594,-4.5594,-4.5594,-4.5594,-4.5594,-4.5594,-4.5594,-4.5568,-4.555,-4.555,-4.5485,-4.5438,-4.5448,-4.5379,-4.5338,-4.5338,-4.5317,-4.5307,-4.5307,-4.5307,-4.5307,-4.5307,-4.5307,-4.5307,-4.5307,-4.5307,-4.5307,-4.5288,-4.4418,-4.4006,0.0,-3.9373,-4.0622,-4.0561,-4.0035,-3.9295,-3.8436,-3.703,0.0,-3.5838,-3.5213,-3.4998,-3.5914,-3.603,-3.6107,-3.6415,-3.838,0.0,0.0,0.0,0.0,0.0,-5.3151,0.0,-5.4186,-5.565,-5.6606,-5.6606,-5.6413,-5.6292,-5.6292,-5.605,-5.5913,-5.5913,-5.5779,-5.5705,-5.5703,-5.5703,-5.5703,-5.5703,-5.5703,-5.5703,-5.5703,-5.5703,-5.5703,-5.5703,-5.5703,-5.5703,-5.5703,-5.5703,-5.5703,-5.5703,-5.5703,-5.5665,-5.5607,-5.5607,-5.5107,-5.4414,-5.4414,-5.3318,-5.1885,-5.1827,-5.1318,-5.0712,-5.0712,-5.0712,-5.0712,-5.0712,-5.0712,-5.0712,-5.0712,-5.0712,-5.0712,-5.0712,-5.0712,-5.025,-4.8567,-4.8144,-4.7625,-4.6018,-4.5633,-4.5594,-4.5594,-4.5594,-4.5594,-4.5594,-4.5594,-4.5594,-4.5594,-4.5594,-4.5594,-4.5594,-4.5531,-4.5504,-4.5504,-4.5429,-4.5389,-4.5389,-4.5338,-4.5307,-4.5317,-4.5307,-4.5307,-4.5307,-4.5307,-4.5307,-4.5307,-4.5307,-4.5307,-4.5288,-4.4475,-4.4083,-3.3476,0.0,-3.6035,-3.5371,-3.5566,-3.5683,0.0,-3.4824,-3.4823,0.0,0.0,0.0,-3.6717,-3.6442,-3.7065,-4.0363,-4.0843,-4.1557,-4.3762,0.0,0.0,-5.4068,-5.5337,-5.5981,-5.5981,-5.6352,-5.6606,-5.6606,-5.6413,-5.6292,-5.6292,-5.6141,-5.6044,-5.6044,-5.5921,-5.5789,-5.5714,-5.5703,-5.5703,-5.5703,-5.5703,-5.5703,-5.5703,-5.5703,-5.5703,-5.5703,-5.5703,-5.5703,-5.5703,-5.5703,-5.5703,-5.5703,-5.5703,-5.5318,-5.478,-5.478,-5.4241,-5.351,-5.351,-5.2799,-5.1788,-5.1183,-5.0837,-5.0712,-5.0712,-5.0712,-5.0712,-5.0712,-5.0712,-5.0712,-5.0712,-5.0712,-5.0712,-5.0712,-5.0712,-5.0423,-4.9336,-4.8567,-4.7798,-4.6797,-4.6067,-4.5594,-4.5594,-4.5594,-4.5594,-4.5594,-4.5594,-4.5594,-4.5594,-4.5594,-4.5594,-4.5594,-4.5586,-4.5577,-4.5577,-4.5467,-4.541,-4.541,-4.5399,-4.5389,-4.539,-4.5329,-4.5317,-4.5388,-4.5328,-4.5307,-4.5307,-4.5307,-4.5307,-4.5307,-4.5086,-4.4991,-3.1601,-3.3418,-3.5176,-3.4707,-3.4941,-3.5176,-3.4707,0.0,0.0,0.0,0.0,0.0,0.0,0.0,0.0,0.0,-4.1842,0.0,0.0,0.0,-5.2975,-5.5591,-5.6313,-5.6606,-5.6606,-5.6606,-5.6606,-5.6606,-5.65,-5.6443,-5.6443,-5.6285,-5.6186,-5.6186,-5.6057,-5.593,-5.5798,-5.5737,-5.5703,-5.5703,-5.5703,-5.5703,-5.5703,-5.5703,-5.5703,-5.5703,-5.5703,-5.5703,-5.5703,-5.5703,-5.5703,-5.5665,-5.528,-5.4876,-5.4453,-5.4049,-5.3356,-5.2596,-5.2596,-5.2049,-5.1279,-5.0846,-5.0712,-5.0712,-5.0712,-5.0712,-5.0712,-5.0712,-5.0712,-5.0712,-5.0712,-5.0712,-5.0712,-5.0712,-5.0712,-5.0462,-4.9586,-4.9029,-4.8336,-4.7135,-4.6528,-4.6067,-4.5671,-4.5594,-4.5594,-4.5594,-4.5594,-4.5594,-4.5594,-4.5594,-4.5594,-4.5594,-4.5594,-4.5594,-4.5594,-4.5522,-4.5485,-4.5438,-4.541,-4.54,-4.54,-4.537,-4.5351,-4.54,-4.5351,-4.535,-4.5338,-4.5338,-4.5328,-4.5307,-4.5307,-4.5307,-3.1367,-3.3789,-3.6074,-3.5547,-3.5605,-3.5762,-3.5625,0.0,0.0,0.0,0.0,0.0,0.0,0.0,0.0,0.0,0.0,0.0,-5.0908,-5.2234,-5.3678,-5.6294,-5.6606,-5.6606,-5.6606,-5.6606,-5.6606,-5.6606,-5.6606,-5.6606,-5.6606,-5.6443,-5.6348,-5.6348,-5.6211,-5.6071,-5.5951,-5.5818,-5.5737,-5.5737,-5.5705,-5.5703,-5.5703,-5.5703,-5.5703,-5.5684,-5.5568,-5.5511,-5.5511,-5.5376,-5.5318,-5.5241,-5.4568,-5.4222,-5.401,-5.328,-5.2472,-5.1712,-5.1712,-5.1279,-5.0712,-5.0712,-5.0712,-5.0712,-5.0712,-5.0712,-5.0712,-5.0712,-5.0712,-5.0712,-5.0712,-5.0712,-5.0712,-5.0712,-5.0712,-5.05,-4.976,-4.949,-4.8971,-4.7567,-4.7077,-4.6682,-4.5932,-4.5691,-4.5594,-4.5594,-4.5594,-4.5594,-4.5594,-4.5594,-4.5594,-4.5594,-4.5594,-4.5594,-4.5594,-4.5594,-4.5577,-4.5513,-4.5448,-4.541,-4.541,-4.541,-4.541,-4.541,-4.54,-4.54,-4.5399,-4.5399,-4.5369,-4.5317,-4.5317,-4.5307,-3.3535,-3.5586,-3.6406,-3.3516,-3.3848,-3.4707,-3.3965,0.0,0.0,0.0,0.0,0.0,0.0,0.0,-4.0936,0.0,0.0,-4.8283,0.0,0.0,-5.3678,-5.6294,-5.6606,-5.6606,-5.6606,-5.6606,-5.6606,-5.6606,-5.6606,-5.6606,-5.6606,-5.658,-5.6555,-5.6555,-5.6375,-5.6261,-5.6247,-5.5998,-5.5872,-5.5863,-5.5758,-5.5703,-5.5703,-5.5703,-5.5703,-5.5665,-5.4972,-5.4684,-5.4626,-5.3895,-5.3587,-5.3568,-5.3453,-5.2953,-5.2269,-5.2154,-5.1587,-5.0875,-5.0875,-5.0808,-5.0712,-5.0712,-5.0712,-5.0712,-5.0712,-5.0712,-5.0712,-5.0712,-5.0712,-5.0712,-5.0712,-5.0712,-5.0712,-5.0712,-5.0712,-5.0654,-5.0539,-4.9913,-4.9317,-4.9067,-4.7875,-4.6846,-4.6721,-4.6086,-4.5594,-4.5594,-4.5594,-4.5594,-4.5594,-4.5594,-4.5594,-4.5594,-4.5594,-4.5594,-4.5594,-4.5594,-4.5605,-4.5586,-4.5513,-4.5448,-4.541,-4.5448,-4.5467,-4.541,-4.54,-4.54,-4.539,-4.539,-4.539,-4.5369,-4.5369,-4.5348,-3.2324,-3.4238,-3.5625,-3.4531,-3.625,-3.7988,-3.7109,0.0,0.0,0.0,0.0,0.0,0.0,0.0,-4.3066,-4.6444,0.0,-5.0377,-5.2419,-5.3512,-5.474,-5.6391,-5.6606,-5.6606,-5.6606,-5.6606,-5.6606,-5.6606,-5.6606,-5.6606,-5.6606,-5.6606,-5.6372,-5.5903,-5.5803,-5.5535,-5.5064,-5.4854,-5.4977,-5.5365,-5.5307,-5.5015,-5.4561,-5.4485,-5.4458,-5.4438,-5.3985,-5.3799,-5.378,-5.3376,-5.3203,-5.3145,-5.2673,-5.225,-5.1846,-5.1414,-5.101,-5.0712,-5.0712,-5.0712,-5.0712,-5.0712,-5.0712,-5.0712,-5.0712,-5.0712,-5.0712,-5.0712,-5.0712,-5.0712,-5.0712,-5.0712,-5.0712,-5.0712,-5.0712,-5.0712,-5.0712,-5.0385,-4.9952,-4.949,-4.8779,-4.7971,-4.7058,-4.6567,-4.6144,-4.5671,-4.5594,-4.5594,-4.5594,-4.5594,-4.5594,-4.5594,-4.5594,-4.5594,-4.5594,-4.5594,-4.5594,-4.5594,-4.5568,-4.5531,-4.5504,-4.555,-4.555,-4.5504,-4.5504,-4.5495,-4.5448,-4.5448,-4.5448,-4.5408,-4.5408,-4.5359,-3.1621,-3.3359,-3.5254,-3.6348,0.0,-4.0273,-4.0215,0.0,0.0,0.0,0.0,0.0,0.0,-4.3496,0.0,-4.7577,-4.9879,-5.1691,-5.2582,-5.4026,-5.5311,-5.6181,-5.6489,-5.6606,-5.6606,-5.6411,-5.6294,-5.6294,-5.6118,-5.5981,-5.5981,-5.5981,-5.5689,-5.5025,-5.5005,-5.4674,-5.401,-5.3907,-5.4108,-5.4632,-5.4601,-5.4259,-5.3612,-5.3483,-5.3449,-5.3433,-5.3088,-5.2945,-5.2916,-5.2703,-5.2606,-5.2549,-5.1875,-5.1625,-5.1548,-5.0933,-5.0712,-5.0712,-5.0712,-5.0712,-5.0712,-5.0712,-5.0712,-5.0712,-5.0712,-5.0712,-5.0712,-5.0712,-5.0712,-5.0712,-5.0712,-5.0712,-5.0712,-5.0712,-5.0712,-5.0712,-5.0712,-5.0712,-5.05,-4.9817,-4.9529,-4.8933,-4.7451,-4.7019,-4.6605,-4.5729,-4.5594,-4.5594,-4.5594,-4.5594,-4.5594,-4.5594,-4.5594,-4.5594,-4.5594,-4.5594,-4.5594,-4.5594,-4.5594,-4.5594,-4.5594,-4.5594,-4.5594,-4.5594,-4.5594,-4.5577,-4.5522,-4.5522,-4.5495,-4.5419,-4.5419,-4.5399,-3.3769,-3.5156,-3.6309,-3.7988,-3.7988,0.0,-4.0566,-3.9805,0.0,-4.0684,0.0,0.0,0.0,-4.6269,-4.8594,-4.8788,-5.0271,-5.1696,-5.2571,-5.3501,-5.4415,-5.5292,-5.6103,-5.6606,-5.6606,-5.5864,-5.5396,-5.5396,-5.4635,-5.4186,-5.4186,-5.4186,-5.4166,-5.4108,-5.4088,-5.4068,-5.401,-5.3986,-5.3955,-5.3879,-5.3749,-5.365,-5.3592,-5.3586,-5.3599,-5.3534,-5.2589,-5.2169,-5.2103,-5.1241,-5.0885,-5.0866,-5.0808,-5.0789,-5.0789,-5.0731,-5.0712,-5.0712,-5.0712,-5.0712,-5.0712,-5.0712,-5.0712,-5.0712,-5.0712,-5.0712,-5.0712,-5.0712,-5.0712,-5.0712,-5.0712,-5.0712,-5.0712,-5.0712,-5.0712,-5.0712,-5.0712,-5.0712,-5.0673,-5.0616,-4.9952,-4.9106,-4.8163,-4.7394,-4.6605,-4.5729,-4.5594,-4.5594,-4.5594,-4.5594,-4.5594,-4.5594,-4.5594,-4.5594,-4.5594,-4.5594,-4.5594,-4.5594,-4.5594,-4.5594,-4.5594,-4.5594,-4.5594,-4.5594,-4.5594,-4.5594,-4.5586,-4.5586,-4.5559,-4.5485,-4.5485,-4.5467,-3.1866,-3.3709,-3.5605,-3.7363,-3.8769,0.0,0.0,-4.2695,-4.373,-4.4922,-4.5859,0.0,0.0,0.0,-4.8906,-4.8906,-5.0761,-5.2323,-5.2652,-5.3452,-5.4113,-5.444,-5.4786,-5.4976,-5.4976,-5.4697,-5.4498,-5.4498,-5.4186,-5.401,-5.401,-5.401,-5.3756,-5.321,-5.319,-5.2936,-5.239,-5.239,-5.2362,-5.23,-5.2802,-5.2769,-5.2235,-5.2143,-5.2115,-5.2072,-5.1625,-5.1402,-5.1323,-5.0977,-5.0785,-5.0712,-5.0712,-5.0712,-5.0712,-5.0712,-5.0712,-5.0712,-5.0712,-5.0712,-5.0712,-5.0712,-5.0712,-5.0712,-5.0712,-5.0712,-5.0712,-5.0712,-5.0712,-5.0712,-5.0712,-5.0712,-5.0712,-5.0712,-5.0712,-5.0712,-5.0712,-5.0712,-5.0712,-5.0712,-5.0442,-4.976,-4.8336,-4.7855,-4.7182,-4.5806,-4.5594,-4.5594,-4.5594,-4.5594,-4.5594,-4.5594,-4.5594,-4.5594,-4.5594,-4.5594,-4.5594,-4.5594,-4.5594,-4.5594,-4.5594,-4.5594,-4.5594,-4.5594,-4.5594,-4.5594,-4.5594,-4.5594,-4.5568,-4.5504,-4.5504,-4.5457,-3.0703,-3.271,-3.5117,-3.6855,0.0,0.0,-4.25,-4.4414,-4.6211,-4.7363,-4.8066,-4.8301,-4.7715,0.0,0.0,-4.8906,-5.0801,-5.2285,-5.2284,-5.3045,-5.359,-5.3587,-5.3836,-5.4008,-5.4008,-5.3749,-5.3588,-5.3584,-5.3331,-5.3175,-5.3171,-5.3171,-5.2917,-5.2312,-5.2292,-5.1999,-5.1414,-5.1394,-5.1394,-5.1414,-5.1999,-5.198,-5.1392,-5.13,-5.1258,-5.1255,-5.1128,-5.1039,-5.0992,-5.0944,-5.0871,-5.0767,-5.0767,-5.075,-5.0712,-5.0712,-5.0712,-5.0712,-5.0712,-5.0712,-5.0712,-5.0712,-5.0712,-5.0712,-5.0712,-5.0712,-5.0712,-5.0712,-5.0712,-5.0712,-5.0712,-5.0712,-5.0712,-5.0712,-5.0712,-5.0712,-5.0712,-5.0712,-5.0712,-5.0712,-5.0712,-5.0144,-4.8394,-4.8105,-4.7528,-4.5845,-4.5594,-4.5594,-4.5594,-4.5594,-4.5594,-4.5594,-4.5594,-4.5594,-4.5594,-4.5594,-4.5594,-4.5594,-4.5594,-4.5594,-4.5594,-4.5594,-4.5594,-4.5594,-4.5594,-4.5594,-4.5594,-4.5594,-4.5577,-4.5522,-4.5522,-4.5504,-3.1015,-3.2711,-3.5137,0.0,0.0,0.0,-4.3144,-4.4394,-4.5527,-4.7285,-4.7637,-4.7617,-4.7617,-4.832,0.0,-4.8906,-5.0312,-5.1406,-5.1406,-5.2148,-5.2693,-5.2693,-5.3451,-5.3975,-5.3975,-5.3195,-5.2685,-5.2697,-5.1896,-5.1405,-5.1394,-5.1394,-5.1394,-5.1394,-5.1394,-5.1394,-5.1394,-5.1394,-5.1394,-5.1394,-5.1394,-5.1394,-5.1394,-5.1394,-5.1394,-5.1392,-5.1255,-5.1203,-5.1195,-5.1053,-5.0966,-5.0894,-5.0894,-5.0827,-5.0693,-5.0693,-5.0712,-5.0712,-5.0712,-5.0712,-5.0712,-5.0712,-5.0712,-5.0712,-5.0712,-5.0712,-5.0712,-5.0712,-5.0712,-5.0712,-5.0712,-5.0712,-5.0712,-5.0712,-5.0712,-5.0712,-5.0712,-5.0712,-5.0712,-5.0712,-5.0712,-5.0144,-4.8394,-4.8105,-4.7528,-4.5845,-4.5594,-4.5594,-4.5594,-4.5594,-4.5594,-4.5594,-4.5594,-4.5594,-4.5594,-4.5594,-4.5594,-4.5594,-4.5594,-4.5594,-4.5594,-4.5594,-4.5594,-4.5594,-4.5594,-4.5594,-4.5594,-4.5594,-4.5594,-4.5594,-4.5594,-4.5594,-3.078,-3.3083,0.0,0.0,0.0,0.0,0.0,-4.6191,0.0,0.0,-4.9824,-4.9433,-4.9433,-4.9648,-4.9805,-4.9805,-5.0703,-5.1406,-5.1406,-5.1621,-5.1796,-5.1796,-5.201,-5.2165,-5.2165,-5.1947,-5.1788,-5.1787,-5.1552,-5.1394,-5.1405,-5.1405,-5.1402,-5.1394,-5.1394,-5.1394,-5.1394,-5.1394,-5.1394,-5.1394,-5.1394,-5.1394,-5.1394,-5.1394,-5.1394,-5.1394,-5.136,-5.1291,-5.1195,-5.1053,-5.0984,-5.0979,-5.092,-5.0882,-5.0825,-5.0721,-5.0712,-5.0712,-5.0712,-5.0712,-5.0712,-5.0712,-5.0712,-5.0712,-5.0712,-5.0712,-5.0712,-5.0712,-5.0712,-5.0712,-5.0712,-5.0712,-5.0712,-5.0712,-5.0712,-5.0712,-5.0712,-5.0712,-5.0712,-5.0712,-5.0712,-5.0144,-4.8394,-4.8105,-4.7528,-4.5845,-4.5594,-4.5594,-4.5594,-4.5594,-4.5594,-4.5594,-4.5594,-4.5594,-4.5594,-4.5594,-4.5594,-4.5594,-4.5594,-4.5594,-4.5594,-4.5594,-4.5594,-4.5594,-4.5594,-4.5594,-4.5594,-4.5594,-4.5594,-4.5594,-4.5594,-4.5594,-3.2079,0.0,0.0,0.0,0.0,0.0,-4.6894,0.0,0.0,0.0,-5.0762,-5.0195,-5.0195,-5.0195,-5.0195,-5.0195,-5.0879,-5.1406,-5.1406,-5.1406,-5.1406,-5.1406,-5.1406,-5.1406,-5.1406,-5.1404,-5.1403,-5.1402,-5.1401,-5.1399,-5.1394,-5.1394,-5.1391,-5.1405,-5.1402,-5.14,-5.14,-5.1396,-5.1394,-5.1394,-5.1394,-5.1394,-5.1394,-5.1394,-5.1394,-5.1394,-5.1394,-5.136,-5.1262,-5.1195,-5.1132,-5.1088,-5.1041,-5.0998,-5.093,-5.0851,-5.0789,-5.0766,-5.0766,-5.074,-5.0712,-5.0712,-5.0712,-5.0712,-5.0712,-5.0712,-5.0712,-5.0712,-5.0712,-5.0712,-5.0712,-5.0712,-5.0712,-5.0712,-5.0712,-5.0712,-5.0712,-5.0712,-5.0712,-5.0712,-5.0712,-5.0144,-4.8394,-4.8105,-4.7528,-4.5845,-4.5594,-4.5594,-4.5594,-4.5594,-4.5594,-4.5594,-4.5594,-4.5594,-4.5594,-4.5594,-4.5594,-4.5594,-4.5594,-4.5594,-4.5594,-4.5594,-4.5629,-4.5676,-4.5629,-4.5629,-4.5676,-4.5629,-4.5594,-4.5594,-4.5594,-4.5594,-3.4198,0.0,0.0,0.0,0.0,0.0,-4.8066,-4.9453,-5.0332,-5.1211,0.0,-5.0312,-5.0312,-5.0312,-5.0312,-5.0312,-5.0918,-5.1406,-5.1406,-5.1406,-5.1406,-5.1406,-5.1406,-5.1406,-5.1406,-5.1406,-5.1406,-5.1405,-5.1327,-5.1286,-5.1282,-5.1223,-5.1164,-5.1164,-5.1179,-5.1175,-5.1175,-5.1167,-5.1162,-5.1162,-5.1162,-5.1162,-5.1162,-5.1336,-5.1394,-5.1394,-5.1394,-5.1394,-5.1394,-5.1394,-5.1327,-5.1211,-5.1203,-5.1132,-5.102,-5.1008,-5.0972,-5.0917,-5.0917,-5.0825,-5.0721,-5.0721,-5.0702,-5.0712,-5.0712,-5.0712,-5.0712,-5.0712,-5.0712,-5.0712,-5.0712,-5.0712,-5.0712,-5.0712,-5.0712,-5.0712,-5.0712,-5.0712,-5.0712,-5.0712,-5.0635,-5.0048,-4.8394,-4.8048,-4.7451,-4.5845,-4.5594,-4.5594,-4.5594,-4.5594,-4.5594,-4.5594,-4.5594,-4.5594,-4.5594,-4.5594,-4.5594,-4.5594,-4.5612,-4.562,-4.562,-4.562,-4.5676,-4.58,-4.57,-4.5673,-4.5807,-4.5676,-4.5612,-4.5594,-4.5594,-4.5603,0.0,-3.6539,0.0,0.0,0.0,0.0,0.0,-4.8555,-4.9609,-5.1094,-5.1269,-5.1133,-5.1133,-5.1133,-5.1133,-5.1133,-5.1289,-5.1406,-5.1406,-5.1406,-5.1406,-5.1406,-5.1406,-5.1406,-5.1406,-5.1406,-5.1406,-5.1406,-5.0801,-5.0468,-5.0466,-4.9802,-4.9449,-4.9445,-4.9443,-4.9443,-4.9443,-4.9441,-4.9419,-4.9355,-4.9419,-4.9419,-4.9414,-5.0773,-5.1394,-5.1394,-5.1394,-5.1394,-5.1394,-5.1394,-5.1388,-5.1355,-5.1245,-5.1172,-5.1146,-5.1042,-5.099,-5.0985,-5.0985,-5.093,-5.0858,-5.0858,-5.0803,-5.0712,-5.0712,-5.0712,-5.0712,-5.0712,-5.0712,-5.0712,-5.0712,-5.0712,-5.0712,-5.0712,-5.0712,-5.0712,-5.0712,-5.0712,-5.0712,-5.0712,-5.0144,-4.9336,-4.8279,-4.7586,-4.6797,-4.5768,-4.5594,-4.5594,-4.5594,-4.5594,-4.5594,-4.5594,-4.5594,-4.5594,-4.5594,-4.5594,-4.5594,-4.5594,-4.5708,-4.5757,-4.5757,-4.5757,-4.5771,-4.5807,-4.5828,-4.5828,-4.5807,-4.5771,-4.5708,-4.5594,-4.5594,-4.5671,0.0,0.0,0.0,0.0,0.0,0.0,0.0,-4.7949,-4.8633,-4.9941,-5.0195,-5.0195,-5.0195,-5.0195,-5.0195,-5.0195,-5.0195,-5.0195,-5.0195,-5.0195,-5.0195,-5.0195,-5.0195,-5.0195,-5.0195,-5.0195,-5.0195,-5.0195,-4.9805,-4.957,-4.9589,-4.916,-4.8905,-4.8904,-4.8903,-4.8902,-4.8902,-4.89,-4.8877,-4.8854,-4.8877,-4.8877,-4.8874,-4.9765,-5.0151,-5.017,-5.0596,-5.0789,-5.0809,-5.1238,-5.1394,-5.1392,-5.1327,-5.1294,-5.1291,-5.1211,-5.115,-5.1108,-5.1108,-5.1033,-5.0932,-5.0917,-5.085,-5.0775,-5.0721,-5.0712,-5.0712,-5.0712,-5.0712,-5.0712,-5.0712,-5.0712,-5.0712,-5.0712,-5.0712,-5.0712,-5.0712,-5.0712,-5.0712,-5.0712,-4.999,-4.9125,-4.8259,-4.7086,-4.6124,-4.5671,-4.5594,-4.5594,-4.5594,-4.5594,-4.5594,-4.5594,-4.5651,-4.57,-4.57,-4.573,-4.5735,-4.5735,-4.5809,-4.5847,-4.5847,-4.5906,-4.5933,-4.5933,-4.5919,-4.5919,-4.5933,-4.5877,-4.5809,-4.5735,-4.5735,-4.5776,0.0,0.0,0.0,0.0,0.0,0.0,0.0,-4.7383,-4.7578,-4.8301,-4.8691,-4.8906,-4.8906,-4.8906,-4.8906,-4.8906,-4.8906,-4.8906,-4.8906,-4.8906,-4.8906,-4.8906,-4.8906,-4.8906,-4.8906,-4.8906,-4.8906,-4.8906,-4.8769,-4.8672,-4.8672,-4.8535,-4.8457,-4.8457,-4.8456,-4.8456,-4.8456,-4.8453,-4.845,-4.845,-4.845,-4.845,-4.8451,-4.8388,-4.8521,-4.8852,-4.9586,-4.9895,-4.9954,-5.0813,-5.1185,-5.1185,-5.1341,-5.14,-5.14,-5.14,-5.1335,-5.1229,-5.1229,-5.115,-5.1039,-5.0972,-5.0935,-5.091,-5.0782,-5.0748,-5.0748,-5.073,-5.0721,-5.0731,-5.0721,-5.0712,-5.0712,-5.0712,-5.0712,-5.0712,-5.0712,-5.0712,-5.0712,-5.0712,-4.9875,-4.8894,-4.8048,-4.6624,-4.5594,-4.5594,-4.5594,-4.5594,-4.5594,-4.5594,-4.5603,-4.5637,-4.5727,-4.5794,-4.5822,-4.5863,-4.5899,-4.5899,-4.592,-4.593,-4.593,-4.6061,-4.6138,-4.6138,-4.6037,-4.6005,-4.6098,-4.5992,-4.592,-4.5899,-4.5899,-4.591,0.0,0.0,0.0,0.0,0.0,0.0,0.0,0.0,-4.6504,0.0,-4.7851,-4.8906,-4.8906,-4.8906,-4.8906,-4.8906,-4.8906,-4.8906,-4.8906,-4.8906,-4.8906,-4.8906,-4.8906,-4.8906,-4.8906,-4.8906,-4.8906,-4.8906,-4.8203,-4.7773,-4.7773,-4.7051,-4.6641,-4.6641,-4.664,-4.664,-4.664,-4.664,-4.6659,-4.6658,-4.6658,-4.6659,-4.664,-4.6639,-4.7456,-4.8897,-4.9013,-4.9052,-4.911,-4.9931,-5.0263,-5.0341,-5.1103,-5.1396,-5.1396,-5.1396,-5.139,-5.1361,-5.1361,-5.1283,-5.1163,-5.115,-5.1088,-5.0978,-5.0979,-5.0953,-5.0946,-5.0902,-5.0882,-5.0841,-5.074,-5.0712,-5.0712,-5.0712,-5.0712,-5.0712,-5.0712,-5.0712,-5.0712,-5.0712,-4.9394,-4.8029,-4.7192,-4.624,-4.5594,-4.5594,-4.5594,-4.5594,-4.5594,-4.5594,-4.5635,-4.5757,-4.5793,-4.5815,-4.5872,-4.5894,-4.5899,-4.5899,-4.6005,-4.6064,-4.6064,-4.6209,-4.6273,-4.6273,-4.6267,-4.6206,-4.6098,-4.6091,-4.6009,-4.5899,-4.5899,-4.5949,0.0,0.0,0.0,0.0,0.0,0.0,0.0,0.0,-4.6308,-4.6308,-4.6914,-4.7441,-4.7441,-4.7441,-4.7441,-4.7441,-4.7441,-4.7441,-4.7441,-4.7441,-4.7441,-4.7441,-4.7441,-4.7441,-4.7441,-4.7441,-4.7441,-4.7441,-4.709,-4.6875,-4.6875,-4.6504,-4.6308,-4.6308,-4.6308,-4.6308,-4.6308,-4.6308,-4.6308,-4.6308,-4.6308,-4.6308,-4.6308,-4.6308,-4.6717,-4.7476,-4.7961,-4.8175,-4.8234,-4.9073,-4.9698,-5.0148,-5.052,-5.0969,-5.1398,-5.1398,-5.1397,-5.1395,-5.1395,-5.1364,-5.1301,-5.1229,-5.1152,-5.1111,-5.1074,-5.1023,-5.0981,-5.0966,-5.0959,-5.0945,-5.0874,-5.0879,-5.0856,-5.0816,-5.0819,-5.0784,-5.0712,-5.0712,-5.0423,-4.9433,-4.8625,-4.7702,-4.6394,-4.5855,-4.5629,-4.5708,-4.5704,-4.5734,-4.5763,-4.5769,-4.5796,-4.5853,-4.5922,-4.5979,-4.6005,-4.6087,-4.6112,-4.6112,-4.6178,-4.6211,-4.6211,-4.6271,-4.63,-4.63,-4.63,-4.6273,-4.6211,-4.6211,-4.6181,-4.6112,-4.6112,-4.6167,0.0,0.0,0.0,0.0,0.0,0.0,0.0,0.0,-4.6308,0.0,-4.6308,-4.6289,-4.6288,-4.6289,-4.6308,-4.6308,-4.6308,-4.6308,-4.6308,-4.6308,-4.6308,-4.6308,-4.6308,-4.6308,-4.6308,-4.6308,-4.6308,-4.6308,-4.6308,-4.6308,-4.6308,-4.6308,-4.6308,-4.6308,-4.6308,-4.6308,-4.6308,-4.6308,-4.6308,-4.6308,-4.6308,-4.6308,-4.6308,-4.6308,-4.6308,-4.6347,-4.6989,-4.7261,-4.7339,-4.8218,-4.8921,-4.9488,-4.9703,-5.0328,-5.1109,-5.1109,-5.1225,-5.14,-5.14,-5.1399,-5.1376,-5.1271,-5.126,-5.1233,-5.1183,-5.1133,-5.1096,-5.1054,-5.105,-5.1044,-5.1036,-5.1025,-5.1008,-5.0965,-5.0944,-5.0905,-5.073,-5.0712,-5.026,-4.8766,-4.8486,-4.8022,-4.6568,-4.6151,-4.6043,-4.6138,-4.5977,-4.5841,-4.5889,-4.5899,-4.5915,-4.5959,-4.6045,-4.6109,-4.6144,-4.6243,-4.63,-4.63,-4.63,-4.63,-4.63,-4.63,-4.63,-4.63,-4.63,-4.63,-4.63,-4.63,-4.63,-4.63,-4.63,-4.63,0.0,0.0,0.0,0.0,0.0,0.0,0.0,0.0,-4.6308,-4.6308,-4.6308,-4.6288,-4.6212,-4.6264,-4.6308,-4.6308,-4.6308,-4.6308,-4.6308,-4.6308,-4.6308,-4.6308,-4.6308,-4.6308,-4.6308,-4.6308,-4.6308,-4.6308,-4.6308,-4.6308,-4.6308,-4.6308,-4.6308,-4.6308,-4.6308,-4.6308,-4.6308,-4.6308,-4.6308,-4.6308,-4.6308,-4.6308,-4.6308,-4.6308,-4.6308,-4.6308,-4.6348,-4.6367,-4.6445,-4.7305,-4.7695,-4.7812,-4.8633,-4.9492,-5.0254,-5.0254,-5.0742,-5.1404,-5.1404,-5.1402,-5.1398,-5.1397,-5.1396,-5.1396,-5.1395,-5.1374,-5.1349,-5.1227,-5.119,-5.1174,-5.1113,-5.1089,-5.1084,-5.1079,-5.1098,-5.1022,-5.0757,-5.0712,-5.0471,-4.9682,-4.9517,-4.9267,-4.8481,-4.765,-4.7112,-4.7137,-4.6419,-4.5894,-4.5899,-4.5899,-4.594,-4.6087,-4.6098,-4.6147,-4.6275,-4.63,-4.63,-4.63,-4.63,-4.63,-4.63,-4.63,-4.63,-4.63,-4.63,-4.63,-4.63,-4.63,-4.63,-4.63,-4.63,-4.63,0.0,0.0,0.0,0.0,0.0,0.0,-4.2087,-4.3948,-4.533,-4.533,-4.5777,-4.616,-4.6139,-4.6197,-4.6213,-4.6189,-4.6207,-4.6213,-4.6189,-4.6242,-4.6288,-4.624,-4.6268,-4.6308,-4.6308,-4.6308,-4.6308,-4.6308,-4.6308,-4.6308,-4.6308,-4.6308,-4.6308,-4.6308,-4.6308,-4.6308,-4.6308,-4.6308,-4.6308,-4.6308,-4.6308,-4.6308,-4.6308,-4.6308,-4.6308,-4.6308,-4.6308,-4.6308,-4.6328,-4.6641,-4.7109,-4.7637,-4.7949,-4.8594,-4.9375,-4.9375,-4.9902,-5.0625,-5.0625,-5.0976,-5.1405,-5.1405,-5.1405,-5.1405,-5.1405,-5.1404,-5.1382,-5.1335,-5.1328,-5.1322,-5.1306,-5.1282,-5.1272,-5.117,-5.1139,-5.1063,-5.0972,-5.0913,-5.0655,-4.9886,-4.9724,-4.9471,-4.8644,-4.8247,-4.8054,-4.8154,-4.7423,-4.6894,-4.6982,-4.6498,-4.6176,-4.6216,-4.6238,-4.6245,-4.63,-4.63,-4.63,-4.63,-4.63,-4.63,-4.63,-4.63,-4.63,-4.63,-4.63,-4.63,-4.63,-4.63,-4.63,-4.63,-4.63,-4.63,-2.7774,0.0,0.0,0.0,0.0,-3.7794,-4.0724,0.0,-4.3773,-4.4627,-4.5267,-4.5744,-4.6025,-4.6102,-4.6128,-4.6105,-4.6137,-4.615,-4.6105,-4.6189,-4.6215,-4.6204,-4.6212,-4.6243,-4.6308,-4.6288,-4.6287,-4.6308,-4.6308,-4.6308,-4.6308,-4.6308,-4.6308,-4.6308,-4.6308,-4.6308,-4.6308,-4.6308,-4.6308,-4.6308,-4.6308,-4.6308,-4.6308,-4.6308,-4.6308,-4.6308,-4.6308,-4.6308,-4.6308,-4.6308,-4.6641,-4.7168,-4.7168,-4.7695,-4.8457,-4.8457,-4.9023,-4.9766,-4.9766,-5.0312,-5.0996,-5.0996,-5.1172,-5.1406,-5.1406,-5.1406,-5.1405,-5.1405,-5.1404,-5.1402,-5.1402,-5.1402,-5.1381,-5.1283,-5.1233,-5.12,-5.1193,-5.1116,-5.0801,-5.0028,-5.0091,-5.0003,-4.9173,-4.904,-4.8978,-4.8763,-4.8005,-4.7493,-4.7582,-4.6846,-4.6417,-4.671,-4.6475,-4.63,-4.63,-4.63,-4.63,-4.63,-4.63,-4.63,-4.63,-4.63,-4.63,-4.63,-4.63,-4.63,-4.63,-4.63,-4.63,-4.63,-4.63,-4.63,0.0,0.0,0.0,0.0,0.0,0.0,-4.0731,0.0,-4.1574,-4.4118,-4.466,-4.4947,-4.5803,-4.5958,-4.5993,-4.608,-4.6095,-4.6095,-4.6095,-4.6098,-4.6125,-4.6195,-4.6139,-4.615,-4.6288,-4.6239,-4.6235,-4.6289,-4.6308,-4.6308,-4.6308,-4.6308,-4.6308,-4.6308,-4.6308,-4.6308,-4.6308,-4.6308,-4.6308,-4.6308,-4.6308,-4.6308,-4.6308,-4.6308,-4.6308,-4.6308,-4.6308,-4.6308,-4.6308,-4.6308,-4.6308,-4.6308,-4.6308,-4.6816,-4.7558,-4.7558,-4.8105,-4.8867,-4.8867,-4.9433,-5.0156,-5.0156,-5.0703,-5.1367,-5.1367,-5.1387,-5.1406,-5.1406,-5.1406,-5.1406,-5.1406,-5.1406,-5.1406,-5.1406,-5.1406,-5.1406,-5.1405,-5.1249,-5.0897,-5.0176,-5.0675,-5.0981,-5.0253,-5.0119,-4.9806,-4.8976,-4.8135,-4.7608,-4.7608,-4.6846,-4.6612,-4.7469,-4.6807,-4.63,-4.63,-4.63,-4.63,-4.63,-4.63,-4.63,-4.63,-4.63,-4.63,-4.63,-4.63,-4.63,-4.63,-4.63,-4.63,-4.63,-4.63,-4.63,-2.6609,0.0,0.0,0.0,0.0,0.0,0.0,0.0,-3.789,-4.0445,-4.1468,-4.2543,-4.4608,-4.4989,-4.5176,-4.5795,-4.5952,-4.5998,-4.5896,-4.6002,-4.6087,-4.6067,-4.608,-4.6115,-4.615,-4.6173,-4.6207,-4.6235,-4.6267,-4.6308,-4.6308,-4.6308,-4.6308,-4.6308,-4.6308,-4.6308,-4.6308,-4.6308,-4.6308,-4.6308,-4.6308,-4.6308,-4.6308,-4.6308,-4.6308,-4.6308,-4.6308,-4.6308,-4.6308,-4.6308,-4.6308,-4.6308,-4.6308,-4.6445,-4.666,-4.666,-4.7207,-4.7969,-4.7969,-4.8535,-4.9258,-4.9258,-4.9844,-5.0527,-5.0527,-5.0937,-5.1406,-5.1406,-5.1406,-5.1406,-5.1406,-5.1406,-5.1406,-5.1406,-5.1406,-5.1406,-5.1406,-5.1362,-5.1253,-5.1057,-5.1192,-5.1271,-5.1083,-5.0517,-5.0028,-4.9773,-4.8522,-4.7602,-4.7596,-4.6837,-4.6386,-4.6632,-4.6436,-4.63,-4.63,-4.63,-4.63,-4.63,-4.63,-4.63,-4.63,-4.63,-4.63,-4.63,-4.63,-4.63,-4.63,-4.63,-4.63,-4.63,-4.63,-4.63,0.0,0.0,0.0,0.0,0.0,0.0,-3.3228,-3.4292,-3.5549,-3.8824,-3.9907,-4.0932,-4.3111,-4.3518,-4.3904,-4.5104,-4.537,-4.5511,-4.5756,-4.5902,-4.5983,-4.6002,-4.5998,-4.6002,-4.6095,-4.6112,-4.6139,-4.62,-4.6239,-4.6267,-4.6308,-4.6308,-4.6308,-4.6308,-4.6308,-4.6308,-4.6308,-4.6308,-4.6308,-4.6308,-4.6308,-4.6308,-4.6308,-4.6308,-4.6308,-4.6308,-4.6308,-4.6308,-4.6308,-4.6308,-4.6308,-4.6308,-4.6308,-4.6308,-4.6308,-4.6308,-4.6621,-4.7051,-4.7051,-4.7637,-4.8359,-4.8359,-4.9199,-5.0195,-5.0195,-5.0762,-5.1406,-5.1406,-5.1406,-5.1406,-5.1406,-5.1406,-5.1406,-5.1406,-5.1406,-5.1406,-5.1406,-5.1406,-5.1406,-5.1404,-5.113,-5.1012,-5.1343,-5.0405,-4.9603,-4.9602,-4.8468,-4.7608,-4.7605,-4.6843,-4.6432,-4.6799,-4.6526,-4.6309,-4.6306,-4.6306,-4.6305,-4.63,-4.63,-4.63,-4.63,-4.63,-4.63,-4.63,-4.63,-4.63,-4.63,-4.63,-4.63,-4.63,-4.63,-4.63,0.0,0.0,0.0,0.0,0.0,0.0,-3.4988,-3.4441,-3.4151,-3.7876,-3.8727,-3.9327,-4.11,-4.1506,-4.2086,-4.3646,-4.413,-4.4659,-4.5671,-4.5807,-4.5835,-4.5969,-4.5861,-4.5866,-4.606,-4.6027,-4.6054,-4.6162,-4.6199,-4.6235,-4.6288,-4.6308,-4.6308,-4.6308,-4.6308,-4.6308,-4.6308,-4.6308,-4.6308,-4.6308,-4.6308,-4.6308,-4.6308,-4.6308,-4.6308,-4.6308,-4.6308,-4.6308,-4.6308,-4.6308,-4.6308,-4.6308,-4.6308,-4.6308,-4.6308,-4.6308,-4.6308,-4.6308,-4.6308,-4.6816,-4.7461,-4.7461,-4.8574,-4.9902,-4.9902,-5.0547,-5.1289,-5.1367,-5.1406,-5.1406,-5.1406,-5.1406,-5.1406,-5.1406,-5.1328,-5.1289,-5.1387,-5.1328,-5.1289,-5.1387,-5.0742,-5.043,-5.1132,-4.9862,-4.8767,-4.8764,-4.8001,-4.7454,-4.7454,-4.677,-4.6594,-4.7375,-4.6751,-4.63,-4.6295,-4.6294,-4.6291,-4.6303,-4.6303,-4.6303,-4.6303,-4.6303,-4.6302,-4.6302,-4.6302,-4.63,-4.63,-4.63,-4.63,-4.63,-4.63,-4.63,0.0,0.0,0.0,-3.2314,-3.2725,0.0,-3.0293,-3.1487,-3.3146,-3.3262,-3.3861,-3.5079,-3.7464,-3.847,-3.9044,-3.9392,-4.1177,-4.3285,-4.5497,-4.5807,-4.5814,-4.5841,-4.5821,-4.5827,-4.5841,-4.5939,-4.6017,-4.6036,-4.6139,-4.6206,-4.6212,-4.6267,-4.6308,-4.6308,-4.6308,-4.6308,-4.6308,-4.6308,-4.6308,-4.6308,-4.6308,-4.6308,-4.6308,-4.6308,-4.6308,-4.6308,-4.6308,-4.6308,-4.6308,-4.6308,-4.6308,-4.6308,-4.6308,-4.6308,-4.6308,-4.6308,-4.6308,-4.6308,-4.6308,-4.6406,-4.6543,-4.6543,-4.7266,-4.8105,-4.8105,-4.9199,-5.0566,-5.1211,-5.1406,-5.1406,-5.1406,-5.1406,-5.1406,-5.1406,-5.0918,-5.0605,-5.1269,-5.0898,-5.0625,-5.1269,-5.0742,-5.0254,-5.041,-4.9004,-4.7851,-4.7851,-4.7109,-4.6542,-4.6541,-4.6403,-4.6364,-4.6536,-4.6399,-4.6301,-4.6301,-4.6301,-4.63,-4.6299,-4.6299,-4.6299,-4.6299,-4.6294,-4.6291,-4.6291,-4.6305,-4.63,-4.63,-4.63,-4.63,-4.63,-4.63,-4.63,-3.4737,-3.4717,-3.5046,-3.5002,-3.4369,0.0,0.0,-3.1855,-3.2217,-3.3479,-3.3049,-3.3242,-3.5839,-3.595,-3.6066,-3.7342,-3.934,-4.1203,-4.248,-4.3756,-4.4543,-4.4543,-4.4543,-4.4717,-4.5162,-4.5267,-4.5508,-4.5958,-4.6091,-4.616,-4.6202,-4.6237,-4.6266,-4.6308,-4.6308,-4.6308,-4.6308,-4.6308,-4.6308,-4.6308,-4.6308,-4.6308,-4.6308,-4.6308,-4.6308,-4.6308,-4.6308,-4.6308,-4.6308,-4.6308,-4.6308,-4.6308,-4.6308,-4.6308,-4.6308,-4.6308,-4.6308,-4.6308,-4.6308,-4.6308,-4.6308,-4.6308,-4.6894,-4.7598,-4.7598,-4.8828,-5.0371,-5.1172,-5.1406,-5.1406,-5.1406,-5.1406,-5.1406,-5.1406,-5.1094,-5.0918,-5.1308,-5.1074,-5.0918,-5.1328,-5.0391,-4.9687,-5.0137,-4.8398,-4.7109,-4.7539,-4.6855,-4.6308,-4.6308,-4.6308,-4.6308,-4.6307,-4.6307,-4.6306,-4.6305,-4.6305,-4.6304,-4.6301,-4.6301,-4.6301,-4.6301,-4.63,-4.6297,-4.6297,-4.6295,-4.6293,-4.6293,-4.6293,-4.6308,-4.63,-4.63,-4.63,-3.7328,-3.7038,-3.729,-3.7831,-3.624,-3.4557,0.0,0.0,0.0,-3.4021,-3.2919,0.0,0.0,-3.3576,-3.3281,-3.5356,-3.7276,-3.8456,-3.8282,-4.0462,-4.2183,-4.2531,-4.286,-4.3324,-4.404,-4.3808,-4.4144,-4.5395,-4.5097,-4.5095,-4.5631,-4.5837,-4.5957,-4.6034,-4.619,-4.6289,-4.6308,-4.6308,-4.6308,-4.6308,-4.6308,-4.6308,-4.6308,-4.6308,-4.6308,-4.6308,-4.6308,-4.6308,-4.6308,-4.6308,-4.6308,-4.6308,-4.6308,-4.6308,-4.6308,-4.6308,-4.6308,-4.6308,-4.6308,-4.6308,-4.6308,-4.6308,-4.6777,-4.7383,-4.7558,-4.8574,-4.9902,-5.0898,-5.1172,-5.1191,-5.1367,-5.1406,-5.1406,-5.1406,-5.1289,-5.1211,-5.1367,-5.1289,-5.1211,-5.1367,-5.0176,-4.9316,-4.9863,-4.793,-4.6543,-4.7246,-4.6758,-4.6308,-4.6308,-4.6308,-4.6308,-4.6308,-4.6308,-4.6308,-4.6307,-4.6307,-4.6307,-4.6304,-4.6304,-4.6304,-4.6304,-4.6303,-4.6302,-4.6301,-4.6301,-4.6301,-4.6301,-4.6301,-4.6297,-4.6305,-4.6305,-4.6305,-4.1545,-4.1854,-4.1564,-3.7947,-3.8508,-3.8185,-3.155,0.0,-3.3214,-3.0564,0.0,-3.083,0.0,0.0,0.0,-3.1275,-3.3388,-3.4698,-3.3938,-3.6027,-3.8199,-3.9752,-4.1235,-4.2183,-4.2299,-4.0951,-4.1054,-4.3428,-4.1577,-4.1336,-4.3592,-4.4506,-4.4997,-4.506,-4.58,-4.624,-4.6308,-4.6308,-4.6308,-4.6308,-4.6308,-4.6308,-4.6308,-4.6308,-4.6308,-4.6308,-4.6308,-4.6308,-4.6308,-4.6308,-4.6308,-4.6308,-4.6308,-4.6308,-4.6308,-4.6308,-4.6308,-4.6308,-4.6308,-4.6308,-4.6308,-4.6308,-4.6367,-4.6582,-4.7363,-4.7734,-4.8242,-4.9883,-5.0332,-5.0508,-5.1211,-5.1406,-5.1406,-5.1406,-5.0859,-5.0527,-5.125,-5.084,-5.0547,-5.1269,-5.0664,-4.9844,-4.916,-4.7519,-4.6328,-4.6426,-4.6367,-4.6308,-4.6308,-4.6308,-4.6308,-4.6308,-4.6308,-4.6308,-4.6308,-4.6308,-4.6308,-4.6308,-4.6308,-4.6308,-4.6308,-4.6307,-4.6305,-4.6301,-4.6301,-4.6301,-4.6301,-4.6301,-4.6301,-4.63,-4.63,-4.63,-4.2241,-4.226,-4.2009,-3.9727,-3.8856,-3.7425,-3.3214,-3.2227,-3.2068,-3.1603,0.0,0.0,0.0,0.0,0.0,0.0,-3.2319,-3.3189,-3.1831,-3.3416,-3.5336,-3.7083,-3.7909,-3.8721,-3.9707,-3.9166,-3.9611,-4.168,-4.0424,-4.0451,-4.2524,-4.3504,-4.4246,-4.4821,-4.5192,-4.5662,-4.624,-4.6241,-4.6265,-4.6308,-4.6308,-4.6308,-4.6308,-4.6308,-4.6308,-4.6308,-4.6308,-4.6308,-4.6308,-4.6308,-4.6308,-4.6308,-4.6308,-4.6308,-4.6308,-4.6308,-4.6308,-4.6308,-4.6308,-4.6308,-4.6308,-4.6308,-4.6308,-4.6465,-4.7344,-4.7598,-4.7969,-4.9707,-5.0195,-5.0391,-5.1191,-5.1406,-5.1406,-5.1406,-5.1133,-5.0996,-5.1328,-5.1133,-5.0996,-5.1328,-5.0742,-5.0078,-4.9726,-4.8203,-4.7051,-4.7051,-4.6621,-4.6308,-4.6308,-4.6308,-4.6308,-4.6308,-4.6308,-4.6308,-4.6308,-4.6308,-4.6308,-4.6308,-4.6308,-4.6308,-4.6308,-4.6308,-4.6308,-4.6307,-4.6307,-4.6307,-4.6307,-4.6307,-4.6307,-4.6307,-4.6304,-4.6301,-4.3207,-4.304,-4.2576,-4.0578,-3.8663,-3.6574,-3.3944,-3.2474,-3.1913,-3.2894,-3.2179,0.0,0.0,0.0,0.0,0.0,0.0,-3.2507,-3.0849,-3.1657,-3.2875,-3.4156,-3.4911,-3.5916,-3.7367,-3.6671,-3.7116,-3.9553,-3.8282,-3.8559,-4.1242,-4.2213,-4.3214,-4.4378,-4.4651,-4.5212,-4.6165,-4.6167,-4.62,-4.6242,-4.6242,-4.6245,-4.6267,-4.6267,-4.6288,-4.6308,-4.6308,-4.6308,-4.6308,-4.6308,-4.6308,-4.6308,-4.6308,-4.6308,-4.6308,-4.6308,-4.6308,-4.6308,-4.6308,-4.6308,-4.6308,-4.6308,-4.6308,-4.6426,-4.7051,-4.7402,-4.791,-4.9414,-5.0019,-5.0391,-5.1191,-5.1406,-5.1406,-5.1406,-5.1406,-5.1406,-5.1406,-5.1406,-5.1406,-5.1406,-5.0937,-5.0527,-5.0527,-4.9101,-4.7871,-4.7637,-4.7051,-4.6562,-4.6328,-4.6308,-4.6308,-4.6308,-4.6308,-4.6308,-4.6308,-4.6308,-4.6308,-4.6308,-4.6308,-4.6308,-4.6308,-4.6308,-4.6308,-4.6308,-4.6308,-4.6308,-4.6308,-4.6308,-4.6308,-4.6308,-4.6307,-4.6305,-4.5665,-4.5672,-4.4481,-3.9521,-3.8212,-3.6839,-3.1855,-3.2575,-3.404,-3.3262,-3.5002,-3.6439,-3.5704,-3.4839,0.0,0.0,0.0,0.0,0.0,-3.0656,-3.0694,-3.0752,-3.2943,-3.48,-3.5684,-3.2783,-3.2551,-3.6709,-3.3919,-3.4253,-3.9313,-4.0416,-4.1676,-4.3384,-4.4258,-4.5142,-4.6082,-4.6102,-4.6105,-4.6109,-4.6109,-4.6139,-4.6204,-4.6204,-4.624,-4.6308,-4.6308,-4.6308,-4.6308,-4.6308,-4.6308,-4.6308,-4.6308,-4.6308,-4.6308,-4.6308,-4.6308,-4.6308,-4.6308,-4.6308,-4.6308,-4.6308,-4.6308,-4.6308,-4.6328,-4.6933,-4.7793,-4.8691,-4.9551,-5.0391,-5.1191,-5.1406,-5.1406,-5.1406,-5.1406,-5.1406,-5.1406,-5.1406,-5.1406,-5.1406,-5.1387,-5.1367,-5.1367,-4.9961,-4.8574,-4.7734,-4.7578,-4.7246,-4.6406,-4.6308,-4.6308,-4.6308,-4.6308,-4.6308,-4.6308,-4.6308,-4.6308,-4.6308,-4.6308,-4.6308,-4.6308,-4.6308,-4.6308,-4.6308,-4.6308,-4.6308,-4.6308,-4.6308,-4.6308,-4.6308,-4.6308,-4.6308,-4.5723,-4.5723,-4.492,-4.1557,-3.9412,-3.7255,-3.388,-3.3775,-3.4156,-3.3281,-3.5137,-3.6651,-3.5839,-3.5458,0.0,0.0,0.0,0.0,0.0,-2.876,-2.8234,-2.8803,0.0,0.0,-3.1487,-3.0946,-3.1642,-3.419,-3.332,-3.4151,-3.7599,-3.9152,-4.0718,-4.2425,-4.3317,-4.4505,-4.6012,-4.6032,-4.6067,-4.6098,-4.6098,-4.6112,-4.6134,-4.6134,-4.6165,-4.6238,-4.6238,-4.6265,-4.6308,-4.6308,-4.6308,-4.6308,-4.6308,-4.6308,-4.6308,-4.6308,-4.6308,-4.6308,-4.6308,-4.6308,-4.6308,-4.6308,-4.6308,-4.6406,-4.6992,-4.7363,-4.7891,-4.9355,-4.9961,-5.0391,-5.1191,-5.1406,-5.1406,-5.1406,-5.1406,-5.1406,-5.1406,-5.1406,-5.1406,-5.1406,-5.1406,-5.1406,-5.1406,-5.0937,-5.0273,-4.9453,-4.8828,-4.8144,-4.7266,-4.7168,-4.6933,-4.6367,-4.6308,-4.6308,-4.6308,-4.6308,-4.6308,-4.6308,-4.6308,-4.6308,-4.6308,-4.6308,-4.6308,-4.6308,-4.6308,-4.6308,-4.6308,-4.6308,-4.6308,-4.6308,-4.6308,-4.6308,-4.5695,-4.5703,-4.5094,-4.2597,-4.0712,-3.8724,-3.5927,-3.5996,-3.6383,-3.5527,-3.7143,-3.8638,-3.8413,-3.7651,0.0,0.0,0.0,0.0,0.0,-2.7871,-2.7155,0.0,0.0,0.0,0.0,-2.9437,-3.0168,-3.2469,-3.2372,-3.3455,-3.6323,-3.8102,-3.9939,-4.1932,-4.286,-4.4144,-4.5916,-4.5935,-4.5956,-4.5988,-4.5988,-4.6026,-4.6056,-4.6056,-4.6102,-4.616,-4.6197,-4.6215,-4.6266,-4.6289,-4.6308,-4.6308,-4.6308,-4.6308,-4.6308,-4.6308,-4.6308,-4.6308,-4.6308,-4.6308,-4.6348,-4.666,-4.6758,-4.6914,-4.7793,-4.8281,-4.8769,-4.9883,-5.041,-5.0742,-5.1269,-5.1406,-5.1406,-5.1406,-5.1406,-5.1406,-5.1406,-5.1406,-5.1406,-5.1406,-5.1406,-5.1406,-5.1406,-5.1406,-5.1133,-5.0312,-4.9726,-4.9043,-4.8164,-4.7793,-4.7383,-4.6816,-4.6484,-4.6308,-4.6308,-4.6308,-4.6308,-4.6308,-4.6308,-4.6308,-4.6308,-4.6308,-4.6308,-4.6308,-4.6308,-4.6308,-4.6308,-4.6308,-4.6308,-4.6308,-4.6308,-4.6308]},{"header":{"parameterUnit":"m.s-1","parameterCategory":1,"la1":30.6,"la2":29.2853,"lo1":-89.7004,"lo2":-87.6739,"dy":0.0162,"dx":0.0183,"nx":112,"ny":82,"refTime":"2025-05-22T18:00:00:Z","depth":0,"parameterNumber":3,"parameterNumberName":"V-component_of_WINDS"},"data":[0.0,0.0,0.0,0.0,0.0,0.0,0.0,0.0,0.0,0.0,0.0,0.0,0.0,0.0,0.0,0.0,0.0,0.0,0.0,0.0,0.0,0.0,0.0,0.0,0.0,0.0,0.0,0.0,0.0,0.0,0.0,0.0,0.0,0.0,0.0,0.0,0.0,0.0,0.0,0.0,0.0,0.0,0.0,0.0,0.0,0.0,0.0,0.0,0.0,0.0,0.0,0.0,0.0,0.0,0.0,0.0,0.0,0.0,0.0,0.0,0.0,0.0,0.0,0.0,0.0,0.0,0.0,0.0,0.0,0.0,0.0,0.0,0.0,0.0,0.0,0.0,0.0,0.0,0.0,0.0,0.0,0.0,0.0,0.0,0.0,0.0,0.0,0.0,0.0,0.0,-0.8973,-1.0142,-1.0615,-1.0504,-0.9684,-0.8636,-0.7498,-0.6253,0.0,0.0,0.0,0.0,0.0,0.0,0.0,0.0,0.0,0.0,0.0,0.0,0.0,0.0,0.0,0.0,0.0,0.0,0.0,0.0,0.0,0.0,0.0,0.0,0.0,0.0,0.0,0.0,0.0,0.0,0.0,0.0,0.0,0.0,0.0,0.0,0.0,0.0,0.0,0.0,0.0,0.0,0.0,0.0,0.0,0.0,0.0,0.0,0.0,0.0,0.0,0.0,0.0,0.0,0.0,0.0,0.0,0.0,0.0,0.0,0.0,0.0,0.0,0.0,0.0,0.0,0.0,0.0,0.0,0.0,0.0,0.0,0.0,0.0,0.0,0.0,0.0,0.0,0.0,0.0,0.0,0.0,0.0,0.0,0.0,0.0,0.0,0.0,0.0,0.0,0.0,0.0,0.0,0.0,0.0,0.0,0.0,0.0,0.0,0.0,0.0,0.0,0.0,0.0,-0.9264,-1.0799,-1.0998,-1.0811,-1.0241,-0.8944,-0.7683,-0.6595,0.0,0.0,0.0,0.0,0.0,0.0,0.0,0.0,0.0,0.0,0.0,0.0,0.0,0.0,0.0,0.0,0.0,0.0,0.0,0.0,0.0,0.0,0.0,0.0,0.0,0.0,0.0,0.0,0.0,0.0,0.0,0.0,0.0,0.0,0.0,0.0,0.0,0.0,0.0,0.0,0.0,0.0,0.0,0.0,0.0,0.0,0.0,0.0,0.0,0.0,0.0,0.0,0.0,0.0,0.0,0.0,0.0,0.0,0.0,0.0,0.0,0.0,0.0,0.0,0.0,0.0,0.0,0.0,0.0,0.0,0.0,0.0,0.0,0.0,0.0,0.0,0.0,0.0,0.0,0.0,0.0,0.0,0.0,0.0,0.0,0.0,0.0,0.0,0.0,0.0,0.0,0.0,0.0,0.0,0.0,0.0,0.0,0.0,0.0,0.0,0.0,0.0,0.0,-0.921,-1.0172,-1.1341,-1.1538,-1.14,-1.1001,-0.9626,-0.84,-0.7484,-0.5784,0.0,0.0,0.0,0.0,0.0,0.0,0.0,0.0,0.0,0.0,0.0,0.0,0.0,0.0,0.0,0.0,0.0,0.0,0.0,0.0,0.0,0.0,0.0,0.0,0.0,0.0,0.0,0.0,0.0,0.0,0.0,0.0,0.0,0.0,0.0,0.0,0.0,0.0,0.0,0.0,0.0,0.0,0.0,0.0,0.0,0.0,0.0,0.0,0.0,0.0,0.0,0.0,0.0,0.0,0.0,0.0,0.0,0.0,0.0,0.0,0.0,0.0,0.0,0.0,0.0,0.0,0.0,0.0,0.0,0.0,0.0,0.0,0.0,0.0,0.0,0.0,0.0,0.0,0.0,0.0,0.0,0.0,0.0,0.0,0.0,0.0,0.0,0.0,0.0,0.0,0.0,0.0,0.0,0.0,0.0,0.0,0.0,0.0,0.0,0.0,0.0,0.0,-1.0222,-1.0948,-1.1729,-1.1912,-1.1854,-1.1521,-1.013,-0.894,-0.824,-0.6272,0.0,0.0,0.0,0.0,0.0,0.0,0.0,0.0,0.0,0.0,0.0,0.0,0.0,0.0,0.0,0.0,0.0,0.0,0.0,0.0,0.0,0.0,0.0,0.0,0.0,0.0,0.0,0.0,0.0,0.0,0.0,0.0,0.0,0.0,0.0,0.0,0.0,0.0,0.0,0.0,0.0,0.0,0.0,0.0,0.0,0.0,0.0,0.0,0.0,0.0,0.0,0.0,0.0,0.0,0.0,0.0,0.0,0.0,0.0,0.0,0.0,0.0,0.0,0.0,0.0,0.0,0.0,0.0,0.0,0.0,0.0,0.0,0.0,0.0,0.0,0.0,0.0,0.0,0.0,0.0,0.0,0.0,0.0,0.0,0.0,0.0,0.0,0.0,0.0,0.0,0.0,0.0,0.0,0.0,0.0,0.0,0.0,0.0,0.0,0.0,0.0,0.0,-1.0268,-1.1066,-1.1739,-1.1866,-1.1788,-1.1502,-1.0038,-0.8947,-0.8493,-0.6417,0.0,0.0,0.0,0.0,0.0,0.0,0.0,0.0,0.0,0.0,0.0,0.0,0.0,0.0,0.0,0.0,0.0,0.0,0.0,0.0,0.0,0.0,0.0,0.0,0.0,0.0,0.0,0.0,0.0,0.0,0.0,0.0,0.0,0.0,0.0,0.0,0.0,0.0,0.0,0.0,0.0,0.0,0.0,0.0,0.0,0.0,0.0,0.0,0.0,0.0,0.0,0.0,0.0,0.0,0.0,0.0,0.0,0.0,0.0,0.0,0.0,0.0,0.0,0.0,0.0,0.0,0.0,0.0,0.0,0.0,0.0,0.0,0.0,0.0,0.0,0.0,0.0,0.0,0.0,0.0,0.0,0.0,0.0,0.0,0.0,0.0,0.0,0.0,0.0,0.0,0.0,0.0,0.0,0.0,0.0,0.0,0.0,0.0,0.0,0.0,0.0,0.0,-1.0464,-1.1408,-1.2152,-1.2321,-1.224,-1.1863,-1.0635,-0.9584,-0.8864,0.0,0.0,0.0,0.0,0.0,0.0,0.0,0.0,0.0,0.0,0.0,0.0,0.0,0.0,0.0,0.0,0.0,0.0,0.0,0.0,0.0,0.0,0.0,0.0,0.0,0.0,0.0,0.0,0.0,0.0,0.0,0.0,0.0,0.0,0.0,0.0,0.0,0.0,0.0,0.0,0.0,0.0,0.0,0.0,0.0,0.0,0.0,0.0,0.0,0.0,0.0,0.0,0.0,0.0,0.0,0.0,0.0,0.0,0.0,0.0,0.0,0.0,0.0,0.0,0.0,0.0,0.0,0.0,0.0,0.0,0.0,0.0,0.0,0.0,0.0,0.0,0.0,0.0,0.0,0.0,0.0,0.0,0.0,0.0,0.0,0.0,0.0,0.0,0.0,0.0,0.0,0.0,0.0,0.0,0.0,0.0,0.0,0.0,0.0,0.0,0.0,0.0,-0.9496,-1.0636,-1.1608,-1.2307,-1.2501,-1.2382,-1.184,-1.0876,-0.9944,-0.9063,0.0,0.0,0.0,0.0,0.0,0.0,0.0,0.0,0.0,0.0,0.0,0.0,0.0,0.0,0.0,0.0,0.0,0.0,0.0,0.0,0.0,0.0,0.0,0.0,0.0,0.0,0.0,0.0,0.0,0.0,0.0,0.0,0.0,0.0,0.0,0.0,0.0,0.0,0.0,0.0,0.0,0.0,0.0,0.0,0.0,0.0,0.0,0.0,0.0,0.0,0.0,0.0,0.0,0.0,0.0,0.0,0.0,0.0,0.0,0.0,0.0,0.0,0.0,0.0,0.0,0.0,0.0,0.0,0.0,0.0,0.0,0.0,0.0,0.0,0.0,0.0,0.0,0.0,0.0,0.0,0.0,0.0,0.0,0.0,0.0,0.0,0.0,0.0,0.0,0.0,0.0,0.0,0.0,0.0,0.0,0.0,0.0,0.0,0.0,0.0,0.0,0.0,-0.9725,-1.0766,-1.1571,-1.2043,-1.2233,-1.2064,-1.1442,-1.0628,-0.9798,0.0,0.0,0.0,0.0,0.0,0.0,0.0,0.0,0.0,0.0,0.0,0.0,0.0,0.0,0.0,0.0,0.0,0.0,0.0,0.0,0.0,0.0,0.0,0.0,0.0,0.0,0.0,0.0,0.0,0.0,0.0,0.0,0.0,0.0,0.0,0.0,0.0,0.0,0.0,0.0,0.0,0.0,0.0,0.0,0.0,0.0,0.0,0.0,0.0,0.0,0.0,0.0,0.0,0.0,0.0,0.0,0.0,0.0,0.0,0.0,0.0,0.0,0.0,0.0,0.0,0.0,0.0,0.0,0.0,0.0,0.0,0.0,0.0,0.0,0.0,0.0,0.0,0.0,0.0,0.0,0.0,0.0,0.0,0.0,0.0,0.0,0.0,0.0,0.0,0.0,0.0,0.0,0.0,0.0,0.0,0.0,0.0,0.0,0.0,0.0,0.0,0.0,0.0,-0.9861,-1.0958,-1.1778,-1.2255,-1.2421,-1.2281,-1.1648,-1.0912,-1.0056,-0.905,0.0,0.0,0.0,0.0,0.0,0.0,0.0,0.0,0.0,0.0,0.0,0.0,0.0,0.0,0.0,0.0,0.0,0.0,0.0,0.0,0.0,0.0,0.0,0.0,0.0,0.0,0.0,0.0,0.0,0.0,0.0,0.0,0.0,0.0,0.0,0.0,0.0,0.0,0.0,0.0,0.0,0.0,0.0,0.0,0.0,0.0,0.0,0.0,0.0,0.0,0.0,0.0,0.0,0.0,0.0,0.0,0.0,0.0,0.0,0.0,0.0,0.0,0.0,0.0,0.0,0.0,0.0,0.0,0.0,0.0,0.0,0.0,0.0,0.0,0.0,0.0,0.0,0.0,0.0,0.0,0.0,0.0,0.0,0.0,0.0,0.0,0.0,0.0,0.0,0.0,0.0,0.0,0.0,0.0,0.0,0.0,0.0,0.0,0.0,0.0,0.0,0.0,-1.0075,-1.1036,-1.1791,-1.2314,-1.2417,-1.2245,-1.1614,-1.1068,-1.0288,-0.9153,0.0,0.0,0.0,0.0,0.0,0.0,0.0,0.0,0.0,0.0,0.0,0.0,0.0,0.0,0.0,0.0,0.0,0.0,0.0,0.0,0.0,0.0,0.0,0.0,0.0,0.0,0.0,0.0,0.0,0.0,0.0,0.0,0.0,0.0,0.0,0.0,0.0,0.0,0.0,0.0,0.0,0.0,0.0,0.0,0.0,0.0,0.0,0.0,0.0,0.0,0.0,0.0,0.0,0.0,0.0,0.0,0.0,0.0,0.0,0.0,0.0,0.0,0.0,0.0,0.0,0.0,0.0,0.0,0.0,0.0,0.0,0.0,0.0,0.0,0.0,0.0,0.0,0.0,0.0,0.0,0.0,0.0,0.0,0.0,0.0,0.0,0.0,0.0,0.0,0.0,0.0,0.0,0.0,0.0,0.0,0.0,0.0,0.0,0.0,0.0,0.0,0.0,-1.0372,-1.1062,-1.1615,-1.2238,-1.2305,-1.2064,-1.1442,-1.1156,-1.0494,-0.9284,0.0,0.0,0.0,0.0,0.0,0.0,0.0,0.0,0.0,0.0,0.0,0.0,0.0,0.0,0.0,0.0,0.0,0.0,0.0,0.0,0.0,0.0,0.0,0.0,0.0,0.0,0.0,0.0,0.0,0.0,0.0,0.0,0.0,0.0,0.0,0.0,0.0,0.0,0.0,0.0,0.0,0.0,0.0,0.0,0.0,0.0,0.0,0.0,0.0,0.0,0.0,0.0,0.0,0.0,0.0,0.0,0.0,0.0,0.0,0.0,-0.5237,-0.4987,0.0,0.0,0.0,0.0,0.0,0.0,0.0,0.0,0.0,0.0,0.0,0.0,0.0,0.0,0.0,0.0,0.0,0.0,0.0,0.0,0.0,0.0,0.0,0.0,0.0,0.0,0.0,0.0,0.0,0.0,0.0,0.0,0.0,0.0,0.0,0.0,0.0,0.0,0.0,0.0,-1.0392,-1.1062,-1.1615,-1.2238,-1.2305,-1.2064,-1.1442,-1.1156,-1.0494,-0.9284,-0.83,0.0,0.0,0.0,0.0,0.0,0.0,0.0,0.0,0.0,0.0,0.0,0.0,0.0,0.0,0.0,0.0,0.0,0.0,0.0,0.0,0.0,0.0,0.0,0.0,0.0,0.0,0.0,0.0,0.0,0.0,0.0,0.0,0.0,0.0,0.0,0.0,0.0,0.0,0.0,0.0,0.0,0.0,0.0,0.0,0.0,0.0,0.0,0.0,0.0,0.0,0.0,0.0,0.0,0.0,0.0,0.0,0.0,0.0,0.0,-0.6147,-0.562,0.0,0.0,0.0,0.0,0.0,0.0,0.0,0.0,0.0,0.0,0.0,0.0,0.0,0.0,0.0,0.0,0.0,0.0,0.0,0.0,0.0,0.0,0.0,0.0,0.0,0.0,0.0,0.0,0.0,0.0,0.0,0.0,0.0,0.0,0.0,0.0,0.0,0.0,0.0,0.0,-1.0405,-1.1062,-1.1615,-1.2238,-1.2305,-1.2124,-1.1677,-1.1369,-1.0822,-0.9927,-0.8861,0.0,0.0,0.0,0.0,0.0,0.0,0.0,0.0,0.0,0.0,0.0,0.0,0.0,0.0,0.0,0.0,0.0,0.0,0.0,0.0,0.0,0.0,0.0,0.0,0.0,0.0,0.0,0.0,0.0,0.0,0.0,0.0,0.0,0.0,0.0,0.0,0.0,0.0,0.0,0.0,0.0,0.0,0.0,0.0,0.0,0.0,0.0,0.0,0.0,0.0,0.0,0.0,0.0,-0.7884,-0.7964,-0.7344,-0.8836,-0.9158,-0.8515,-0.7207,-0.6709,-0.6883,-0.6986,0.0,0.0,0.0,0.0,0.0,0.0,0.0,0.0,0.0,0.0,0.0,0.0,0.0,0.0,0.0,0.0,0.0,0.0,0.0,0.0,0.0,0.0,-0.8559,-0.96,-1.0009,-0.9768,-0.8336,0.0,0.0,0.0,0.0,0.0,0.0,0.0,0.0,0.0,0.0,0.0,-1.0492,-1.1142,-1.171,-1.2245,-1.2305,-1.2184,-1.1933,-1.1597,-1.1176,-1.0626,-0.9599,-0.8718,0.0,0.0,0.0,0.0,0.0,0.0,0.0,0.0,0.0,0.0,0.0,0.0,0.0,0.0,0.0,0.0,0.0,0.0,0.0,0.0,0.0,0.0,0.0,0.0,0.0,0.0,0.0,0.0,0.0,0.0,0.0,0.0,-0.4452,-0.479,0.0,0.0,0.0,0.0,0.0,0.0,0.0,0.0,0.0,0.0,0.0,0.0,0.0,-0.6712,-0.7009,-0.7403,-0.7667,-0.7841,-0.8312,-0.8482,-0.84,-0.8649,-0.8704,-0.8596,-0.8373,0.0,-0.9488,-0.9215,0.0,0.0,0.0,0.0,0.0,0.0,0.0,0.0,0.0,0.0,0.0,0.0,0.0,0.0,0.0,0.0,0.0,0.0,0.0,0.0,0.0,0.0,-1.0617,-1.0516,-1.1246,-1.1628,-1.0436,-0.9885,-0.9579,-0.9334,-0.8546,-0.7872,0.0,0.0,0.0,0.0,0.0,0.0,-1.0808,-1.1484,-1.1937,-1.2265,-1.2305,-1.2184,-1.1933,-1.1597,-1.1176,-1.0626,-1.0174,-0.9557,-0.8699,-0.8315,0.0,0.0,0.0,0.0,0.0,0.0,0.0,0.0,0.0,0.0,0.0,0.0,0.0,0.0,0.0,0.0,0.0,0.0,0.0,0.0,0.0,0.0,0.0,0.0,0.0,0.0,0.0,0.0,0.0,-0.4157,-0.4866,-0.4905,-0.5175,-0.5298,0.0,0.0,0.0,0.0,0.0,0.0,0.0,0.0,0.0,-0.7009,-0.7289,-0.7561,-0.7821,-0.8178,-0.8394,-0.8471,-0.9834,-1.0241,-0.98,-1.1452,-1.1904,-1.1457,-1.1948,-1.2431,-1.2625,-1.0033,-0.8599,-0.8002,0.0,0.0,0.0,0.0,-0.8264,-0.8876,-0.9978,-1.0635,-1.0962,-1.0784,0.0,0.0,0.0,0.0,0.0,0.0,0.0,-1.0327,-1.0676,-1.1259,-1.18,-1.2002,-1.2436,-1.2669,-1.2185,-1.1748,-1.1095,-0.993,-0.9679,-0.9417,-0.8751,-0.8532,0.0,0.0,0.0,-1.0247,-1.1122,-1.1603,-1.202,-1.2271,-1.2305,-1.2251,-1.2124,-1.169,-1.1282,-1.1062,-1.0461,-0.9866,-0.9325,-0.8858,-0.8234,0.0,0.0,0.0,0.0,0.0,0.0,0.0,0.0,0.0,0.0,0.0,0.0,0.0,0.0,0.0,0.0,0.0,0.0,0.0,0.0,0.0,0.0,0.0,0.0,0.0,0.0,0.0,0.0,-0.4674,-0.5242,-0.5159,-0.5575,-0.5757,0.0,0.0,0.0,0.0,0.0,0.0,-0.6971,-0.7297,-0.7598,-0.7817,-0.8081,-0.8329,-0.856,-0.8824,-0.8978,-0.9027,-1.0636,-1.1034,-1.0435,-1.2622,-1.3228,-1.2627,-1.3326,-1.3603,-1.3415,-1.1094,-0.9637,-0.8899,-0.899,-0.8739,-0.8425,-0.9306,-0.9921,-1.052,-1.1848,-1.2505,-1.2772,-1.2846,-1.2418,-1.1784,-1.131,0.0,0.0,0.0,0.0,-1.1625,-1.2245,-1.2532,-1.2759,-1.3213,-1.338,-1.3414,-1.334,-1.314,-1.2492,-1.081,-1.0809,-1.0828,-0.9923,-0.9644,0.0,-0.965,-1.009,-1.0715,-1.1443,-1.1797,-1.2064,-1.2278,-1.2305,-1.2305,-1.2305,-1.1764,-1.1389,-1.1389,-1.0675,-1.01,-0.9806,-0.9305,-0.8777,-0.8223,0.0,0.0,0.0,0.0,0.0,0.0,0.0,0.0,0.0,0.0,0.0,0.0,0.0,0.0,0.0,0.0,0.0,0.0,0.0,0.0,0.0,0.0,0.0,0.0,0.0,0.0,0.0,0.0,0.0,-0.5849,-0.6317,0.0,0.0,0.0,0.0,-0.6657,-0.7151,-0.7539,-0.7735,-0.8044,-0.8398,-0.8743,-0.8771,-0.8946,-0.9343,-0.9367,-0.9417,-0.9538,-0.9694,-0.9698,-0.9649,-0.9797,-0.9846,-0.9797,-0.9842,-0.9891,-1.0089,-1.2991,-1.36,-1.2717,-1.2442,-1.218,-1.1991,-1.23,-1.2801,-1.3452,-1.3824,-1.4008,-1.4041,-1.4315,-1.3828,-1.306,-1.277,-1.2275,0.0,0.0,-1.2254,-1.271,-1.275,-1.3146,-1.3547,-1.3573,-1.3834,-1.3968,-1.364,-1.3573,-1.3367,-1.2759,-1.1971,-1.1349,-1.1295,0.0,-1.062,-1.0862,-1.1162,-1.1476,-1.1839,-1.2098,-1.2285,-1.2305,-1.2305,-1.2305,-1.2305,-1.1764,-1.1389,-1.1389,-1.0868,-1.0439,-1.0077,-0.98,-0.9365,-0.8778,-0.8145,0.0,0.0,0.0,0.0,0.0,0.0,0.0,0.0,0.0,0.0,0.0,0.0,0.0,0.0,0.0,0.0,0.0,0.0,0.0,0.0,0.0,0.0,0.0,0.0,0.0,0.0,0.0,0.0,-0.6184,-0.6645,0.0,-0.7082,-0.7273,-0.7461,-0.7529,-0.7935,-0.8256,-0.8434,-0.8783,-0.9077,-0.9161,-0.9279,-0.9453,-0.9743,-0.9587,-0.962,-0.9791,-1.0362,-1.0984,-1.1614,-1.2301,-1.2726,-1.281,-1.281,-1.281,-1.2893,-1.4088,-1.3386,-1.1613,-1.1378,-1.1684,-1.2281,-1.2993,-1.338,-1.3705,-1.4434,-1.4693,-1.4636,-1.4549,-1.4309,-1.3995,-1.3742,-1.3501,-1.3333,-1.352,-1.3728,-1.3928,-1.4164,-1.4378,-1.4496,-1.4496,-1.4576,-1.4569,-1.4233,-1.4166,-1.4088,-1.3728,-1.3046,-1.2452,-1.2058,-1.2013,-1.1973,-1.185,-1.2084,-1.2422,-1.2692,-1.2683,-1.2623,-1.2623,-1.2418,-1.2305,-1.2305,-1.1764,-1.1389,-1.1389,-1.0914,-1.0372,-0.986,-0.974,-0.9406,-0.8818,-0.8417,-0.7839,0.0,0.0,0.0,0.0,0.0,0.0,0.0,0.0,0.0,0.0,0.0,0.0,0.0,0.0,0.0,0.0,0.0,0.0,0.0,0.0,0.0,0.0,0.0,0.0,0.0,0.0,-0.6231,-0.6697,-0.7102,-0.7461,-0.7732,-0.7893,-0.8082,-0.8276,-0.8625,-0.8926,-0.8995,-0.9287,-0.9445,-0.9445,-0.9563,-0.9685,-0.9799,-0.9685,-0.9685,-0.9799,-1.0362,-1.1033,-1.1663,-1.2398,-1.2775,-1.2914,-1.2914,-1.2962,-1.3032,-1.3032,-1.2306,-1.1209,-1.1679,-1.2077,-1.2497,-1.3483,-1.3859,-1.3952,-1.493,-1.5257,-1.5224,-1.5023,-1.4897,-1.4776,-1.4589,-1.4462,-1.4422,-1.4616,-1.4669,-1.4716,-1.4955,-1.5008,-1.5008,-1.5008,-1.5008,-1.4955,-1.471,-1.4669,-1.4583,-1.4289,-1.3761,-1.3227,-1.2826,-1.2839,-1.2878,-1.2639,-1.2779,-1.3018,-1.3186,-1.3033,-1.2945,-1.2945,-1.267,-1.2489,-1.2489,-1.1817,-1.1389,-1.1389,-1.0788,-1.0234,-0.9846,-0.9639,-0.9352,-0.8938,-0.847,-0.8,-0.7506,0.0,0.0,0.0,0.0,0.0,0.0,0.0,0.0,0.0,0.0,0.0,0.0,0.0,0.0,0.0,0.0,0.0,0.0,0.0,0.0,0.0,0.0,0.0,-0.5612,-0.6186,-0.6805,-0.7341,-0.7669,-0.7946,-0.8263,-0.8379,-0.853,-0.8799,-0.9165,-0.9412,-0.9412,-0.9531,-0.9579,-0.9587,-0.9587,-0.9591,-0.9603,-0.9599,-0.9599,-0.9603,-0.9599,-0.9644,-0.9644,-0.9644,-0.9648,-0.9652,-0.9652,-0.9796,-0.9951,-0.9947,-1.0659,-1.1873,-1.3586,-1.363,-1.2888,-1.3962,-1.4352,-1.449,-1.5445,-1.5784,-1.5784,-1.5784,-1.5638,-1.5411,-1.5411,-1.5211,-1.5035,-1.5035,-1.5035,-1.5035,-1.5035,-1.5035,-1.5035,-1.5035,-1.5035,-1.5035,-1.5022,-1.5022,-1.489,-1.4589,-1.4033,-1.364,-1.362,-1.3387,-1.324,-1.324,-1.324,0.0,-1.324,-1.3227,-1.3227,-1.3227,-1.2978,-1.2784,-1.2784,-1.1937,-1.1389,-1.1389,-1.0569,-1.0083,-1.0083,-0.9531,-0.9224,-0.9211,-0.8372,-0.7796,-0.752,0.0,0.0,0.0,0.0,0.0,0.0,0.0,0.0,0.0,0.0,0.0,0.0,0.0,0.0,0.0,0.0,0.0,0.0,0.0,0.0,0.0,-0.5757,-0.605,-0.6084,-0.6513,-0.7091,-0.7737,-0.814,-0.8462,-0.8625,-0.9008,-0.9216,-0.9119,-0.9352,-0.9551,-0.9551,-0.96,-0.9685,-0.9811,-0.9815,-0.9945,-1.0156,-1.0083,-1.0083,-1.016,-1.0079,-1.042,-1.1132,-1.1132,-1.1209,-1.134,-1.134,-1.1372,-1.1408,-1.1268,-1.14,-1.185,-1.3151,-1.3845,-1.4221,-1.5363,-1.5579,-1.5445,-1.5683,-1.5784,-1.5784,-1.5784,-1.5724,-1.5712,-1.5712,-1.5658,-1.5591,-1.5591,-1.5591,-1.5591,-1.5591,-1.5591,-1.5591,-1.5591,-1.5591,-1.5531,-1.5324,-1.5277,-1.519,-1.4903,-1.471,-1.4469,-1.4041,-1.3901,-1.3848,-1.3848,-1.3848,-1.3848,-1.3848,-1.3661,-1.3487,-1.3487,-1.3099,-1.2784,-1.2784,-1.1937,-1.1389,-1.1389,-1.0569,-1.0083,-1.0083,-0.976,-0.9459,-0.9217,-0.8771,-0.8335,0.0,0.0,0.0,0.0,0.0,0.0,0.0,0.0,0.0,0.0,0.0,0.0,0.0,0.0,0.0,0.0,0.0,0.0,0.0,0.0,0.0,0.0,-0.6288,-0.6607,-0.6835,-0.7048,-0.742,-0.803,-0.8256,-0.8483,-0.8764,-0.9076,-0.9179,-0.9031,-0.9444,-0.9684,-0.9588,-0.9756,-0.9896,-0.9998,-1.0053,-1.0103,-1.0318,-1.0213,-1.0213,-1.0318,-1.0265,-1.0525,-1.1092,-1.1092,-1.115,-1.1252,-1.1773,-1.1718,-1.1367,-1.173,-1.1935,-1.2039,0.0,0.0,0.0,0.0,-1.4481,-1.4643,-1.4643,-1.4569,-1.4519,-1.4519,-1.4519,-1.4573,-1.5057,-1.5159,-1.5255,-1.5683,-1.5784,-1.5784,-1.5784,-1.5784,-1.5784,-1.5784,-1.5784,-1.5785,-1.5611,-1.5578,-1.5491,-1.5204,-1.5189,0.0,-1.4579,-1.4355,-1.4229,-1.4108,-1.4088,-1.4088,-1.4088,-1.3935,-1.3828,-1.3828,-1.3407,-1.3073,-1.2991,-1.2238,0.0,0.0,0.0,-1.0194,-0.9947,-0.9773,0.0,0.0,0.0,0.0,0.0,-0.856,0.0,0.0,-0.7891,-0.7971,0.0,0.0,0.0,0.0,0.0,0.0,0.0,0.0,0.0,0.0,0.0,0.0,0.0,0.0,0.0,0.0,-0.6803,-0.7149,-0.7563,-0.7638,-0.7794,-0.8122,-0.8108,-0.8233,-0.8676,-0.8794,-0.8801,-0.8805,-0.9462,-0.9764,-0.9509,-0.9916,0.0,0.0,0.0,-1.0286,-1.0306,-1.0326,-1.0335,-1.0335,-1.0335,-1.0326,-1.0306,-1.0306,-1.0294,-1.0326,-1.1306,-1.1252,-1.0514,-1.1554,-1.2068,-1.2166,-1.177,-1.1318,-1.0911,-1.1766,-1.2557,-1.3236,-1.3385,0.0,0.0,-1.2926,-1.2915,-1.3104,-1.401,-1.4394,-1.4682,-1.554,-1.5784,-1.5784,-1.5784,-1.5784,-1.5784,-1.5784,-1.5784,-1.5784,-1.5784,-1.5784,-1.5752,-1.5491,-1.5444,-1.5351,-1.5109,-1.4736,-1.4436,-1.4175,-1.4108,-1.4088,-1.4088,-1.4088,-1.4088,-1.4088,-1.378,0.0,-1.3233,-1.2652,-1.2064,-1.1475,-1.0962,-1.0439,-0.9883,-0.986,-0.9866,-0.9833,-0.9833,-0.9842,-0.9809,-0.9809,-0.9829,-0.9836,-0.8825,-0.8753,0.0,0.0,0.0,0.0,0.0,0.0,0.0,0.0,0.0,0.0,0.0,0.0,0.0,0.0,0.0,-0.6847,-0.7268,-0.7539,-0.7743,-0.7875,-0.7963,-0.8043,-0.8219,-0.8283,-0.8187,-0.87,-0.8928,-0.8729,-0.9135,-0.9488,-0.964,-0.9727,-0.9966,-1.0326,-1.0517,-1.066,-1.0869,-1.0948,-1.1017,-1.1017,-1.1017,0.0,-1.0869,-1.0869,-1.0788,-1.0645,-1.0858,-1.0824,-1.0631,-1.0704,-1.077,-1.0947,-1.2608,-1.3726,-1.4372,-1.4378,-1.4478,-1.474,-1.5658,-1.5369,-1.4533,-1.4376,-1.4262,-1.4215,-1.431,-1.4873,0.0,-1.5737,-1.5784,-1.5784,-1.5784,-1.5784,-1.5784,-1.5784,-1.5784,-1.5784,-1.5784,-1.5784,-1.5764,-1.5711,-1.5698,-1.5651,-1.5364,-1.487,-1.4502,-1.4442,-1.4242,-1.4088,-1.4088,-1.4088,-1.4088,-1.4088,-1.378,-1.3487,-1.3233,-1.2652,-1.2151,-1.1804,-1.1456,-1.1102,-1.0755,-1.0969,-1.0982,-1.0748,-1.0742,-1.0653,-1.0425,-1.0425,-1.0546,-1.0715,-0.9831,-0.9489,0.0,0.0,0.0,0.0,0.0,0.0,0.0,0.0,0.0,0.0,0.0,-0.3699,-0.5249,0.0,-0.6605,-0.7309,-0.7604,-0.7756,-0.7902,-0.7941,-0.7988,-0.7988,-0.8137,-0.8168,-0.8147,-0.8628,-0.8805,-0.8629,-0.9088,-0.9394,-0.9447,-0.9873,-1.0225,-1.0425,-1.0755,-1.1001,-1.1094,-1.1179,-1.1224,-1.1224,-1.1224,-1.1179,-1.1094,-1.1094,-1.1045,-1.0952,-1.1471,-1.1377,-1.0869,-1.123,-1.1414,-1.1522,-1.2637,-1.338,-1.389,-1.3725,-1.403,-1.4338,-1.377,-1.3488,-1.3416,-1.3353,-1.2828,-1.2463,-1.3439,-1.3608,-1.3692,-1.4771,-1.5064,-1.5159,-1.5683,-1.5784,-1.5784,-1.5784,-1.5784,-1.5784,-1.5784,-1.5784,-1.5784,-1.5784,-1.5784,-1.5785,-1.5638,-1.5251,-1.4856,-1.4563,-1.4396,-1.4255,-1.4108,-1.4088,-1.4088,-1.4088,-1.3955,-1.3748,-1.3413,-1.2872,-1.2435,-1.2104,-1.181,-1.1583,-1.1471,-1.143,-1.1322,-1.1209,-1.1209,-1.1136,-1.0995,-1.0995,-1.1069,-1.1196,-1.0755,-1.0555,0.0,0.0,0.0,0.0,0.0,0.0,0.0,0.0,-0.1505,-0.2821,-0.3582,-0.449,-0.6025,-0.6815,-0.7355,-0.779,-0.7855,-0.7899,-0.7971,-0.7988,-0.7988,-0.7988,-0.8015,-0.8133,-0.831,-0.8525,-0.8661,-0.8569,-0.9119,-0.9388,-0.9284,-0.995,-1.0398,-1.0451,-1.0839,-1.1103,-1.1161,-1.1193,-1.1271,-1.133,-1.133,-1.1313,-1.1277,-1.1277,-1.1256,-1.1273,-1.2086,-1.1907,-1.1118,-1.1806,-1.2156,-1.2151,-1.2323,-1.2417,-1.2417,-1.2417,-1.3061,-1.3657,-1.1754,-1.1645,-1.2276,-1.203,-1.1236,-1.0642,-1.2365,-1.2292,-1.1918,-1.3833,-1.4334,-1.449,-1.5302,-1.5635,-1.5737,-1.554,-1.5642,-1.5784,-1.5784,-1.5784,-1.5784,-1.5784,-1.5784,-1.5784,-1.5784,-1.5631,-1.5304,-1.477,-1.4596,-1.4436,-1.4202,-1.4122,-1.4088,-1.4088,-1.4088,-1.3968,-1.3626,-1.3146,-1.2744,-1.2405,-1.2225,-1.2141,-1.208,-1.187,-1.1735,-1.1735,-1.1717,-1.171,-1.1735,-1.171,-1.1717,-1.1735,-1.1735,-1.1615,-0.0464,-0.063,-0.0875,-0.1132,-0.1134,-0.1162,0.0,0.0,-0.1835,-0.3729,-0.4285,-0.5067,-0.7068,-0.7594,-0.7797,-0.7934,-0.7965,-0.7971,-0.7988,-0.7988,-0.7988,-0.7988,-0.816,-0.8252,-0.832,-0.8559,-0.8669,-0.8682,-0.8999,-0.9328,-0.955,-0.9778,-0.999,-1.0332,-1.0497,-1.0701,-1.0996,-1.12,-1.1463,-1.1715,-1.1715,-1.1626,-1.1468,-1.1468,-1.1378,-1.122,-1.1315,-1.1306,-1.1179,-1.1178,-1.116,-1.1251,-1.2055,-1.2417,-1.2417,-1.2417,-1.3097,-1.4046,-1.3772,-1.3756,-1.365,-1.251,-1.1957,-1.1796,-1.1831,-1.2283,-1.3055,-1.4242,-1.4424,-1.4346,-1.4442,-1.5112,-1.5588,-1.4682,-1.5159,-1.5784,-1.5784,-1.5784,-1.5784,-1.5784,-1.5784,-1.5784,-1.5784,-1.5758,-1.5671,-1.5351,-1.4856,-1.4509,-1.4476,-1.4249,-1.4088,-1.4088,-1.4088,-1.3968,-1.3626,-1.3347,-1.3026,-1.2757,-1.2926,-1.2939,-1.2697,-1.2879,-1.3013,-1.3013,-1.2777,-1.277,-1.3013,-1.277,-1.2784,-1.3013,-1.3013,-1.2401,-0.0662,-0.0887,-0.1118,0.0,-0.1275,-0.1282,-0.1399,-0.1411,-0.1827,-0.3362,-0.4222,-0.5134,-0.6606,-0.7459,-0.7994,0.0,-0.8174,-0.8204,-0.8286,-0.8225,-0.8174,-0.8174,-0.8303,-0.8394,-0.8394,-0.8584,-0.8747,-0.8835,-0.9035,-0.9267,-0.9377,-0.9729,-1.0039,-1.0156,-1.0487,-1.0748,-1.0872,-1.1178,-1.1398,-1.1522,-1.1712,-1.1736,-1.1663,-1.1663,-1.1557,-1.1382,-1.1382,-1.1321,-1.1216,-1.1147,-1.1057,-1.1016,-1.1432,-1.1495,-1.15,-1.2146,-1.3112,-1.3922,-1.2575,-1.2575,-1.3048,-1.248,-1.1733,-1.1207,-1.181,-1.169,-1.155,-1.2475,-1.2665,-1.2713,-1.3255,-1.3703,-1.389,-1.3463,-1.3703,-1.3986,-1.3986,-1.3986,-1.4184,-1.4819,-1.443,-1.4184,-1.4819,-1.443,-1.3951,-1.3844,-1.39,-1.4084,-1.4455,-1.3784,-1.3483,-1.4046,-1.4088,-1.3968,-1.3626,-1.3694,-1.3587,-1.3287,-1.3353,-1.336,-1.3273,-1.3233,-1.3213,-1.3213,-1.2562,-1.228,-1.2399,-1.1702,-1.1748,-1.2399,-1.2399,-1.2427,-0.0783,0.0,0.0,-0.1329,-0.1394,-0.1452,-0.1469,-0.149,-0.1852,-0.2991,-0.4041,-0.5143,-0.6218,-0.7288,-0.8092,-0.8245,-0.8323,-0.8371,-0.8462,-0.836,-0.8323,-0.8323,-0.836,-0.8438,-0.8479,-0.8659,-0.8835,-0.8988,-0.9133,-0.9292,-0.9333,-0.9763,-1.0025,-1.0025,-1.0371,-1.0547,-1.0668,-1.097,-1.1212,-1.1273,-1.1647,-1.1776,-1.1776,-1.1776,-1.1703,-1.1577,-1.1577,-1.15,-1.137,-1.1321,-1.1228,-1.111,-1.1057,-1.0928,-1.0876,-1.1694,-1.2683,-1.3329,-1.1391,-1.1446,-1.2363,-1.2041,-1.125,-1.0667,-1.1514,-1.1062,-1.0418,-1.1298,-1.1475,-1.1554,-1.2185,-1.2537,-1.263,-1.2339,-1.2484,-1.2678,-1.2678,-1.2678,-1.2926,-1.3709,-1.3221,-1.2926,-1.3709,-1.3216,-1.2678,-1.2678,-1.2811,-1.3093,-1.373,-1.291,-1.2577,-1.3264,-1.3307,-1.3224,-1.2981,-1.3452,-1.3578,-1.3244,-1.3556,-1.3686,-1.3606,-1.327,-1.3077,-1.3077,-1.2059,-1.1607,-1.1677,-1.0903,-1.0944,-1.1677,-1.1677,-1.205,0.0,0.0,-0.1061,-0.1328,-0.1455,-0.1495,-0.1603,-0.1617,-0.1921,-0.2958,-0.4071,-0.5122,-0.6184,-0.7288,-0.8092,-0.8245,-0.8323,-0.8371,-0.8462,-0.836,-0.8323,-0.8323,-0.8327,-0.8381,0.0,-0.8754,-0.8991,-0.919,-0.9347,-0.9439,-0.9588,-0.9734,-0.9815,-0.9815,-0.9819,-1.0001,-1.0304,-1.0668,-1.097,-1.1273,-1.1647,-1.1776,-1.1776,-1.1776,-1.1776,-1.1768,-1.1768,-1.1764,-1.1748,-1.1565,-1.1488,-1.1464,-1.1285,-1.111,-1.1016,-1.1016,-1.1611,-1.2309,-1.1122,-1.1446,-1.22,-1.1122,-1.0743,-1.0684,-1.0739,-1.0562,-1.0638,-1.1677,-1.1695,-1.1386,-1.1432,-1.2068,-1.2436,-1.1463,-1.1999,-1.2678,-1.2678,-1.2678,-1.2732,-1.2732,-1.2727,-1.2732,-1.2732,-1.2727,-1.2678,-1.2678,-1.1715,-1.1254,-1.1992,-1.1651,-1.1365,-1.137,-1.137,-1.1365,-1.1359,-1.2223,-1.2632,-1.2372,-1.3448,-1.3941,-1.3613,-1.3016,-1.2723,-1.2723,-1.1542,-1.1079,-1.13,-1.1032,-1.1037,-1.1305,-1.1305,-1.1348,-0.0833,0.0,-0.1287,-0.1434,-0.1519,-0.1551,-0.1592,-0.1601,-0.1704,-0.2067,-0.2973,-0.3825,-0.4227,-0.5732,-0.7057,-0.7327,-0.7991,-0.8499,-0.875,-0.8655,-0.8523,-0.8421,-0.8503,0.0,0.0,0.0,0.0,-0.919,-0.9354,-0.9449,-0.9602,-0.9744,-0.9822,-0.9822,-0.9822,-0.9883,-0.9943,-1.0304,-1.0547,-1.0668,-1.0974,-1.116,-1.116,-1.116,-1.116,-1.116,-1.116,-1.116,-1.1152,-1.1275,-1.1304,-1.1197,-1.1314,-1.1293,-1.1139,-1.1139,-1.1304,-1.1407,-1.0898,-1.0962,-1.1232,-1.0798,-1.0692,-1.0692,-1.0692,-1.0651,-1.0633,-1.0885,-1.0775,-1.0548,-1.042,-1.0545,-1.0551,-1.0207,-1.0404,-1.065,-1.065,-1.065,-1.0841,-1.1565,-1.113,-1.089,-1.156,-1.113,-1.065,-1.065,-1.1341,-1.1584,-1.089,-1.1201,-1.145,-1.13,-1.1284,-1.1284,-1.1284,-1.2143,-1.2662,-1.2578,-1.3516,-1.3782,-1.3042,-1.2826,-1.24,-1.18,-1.0775,-1.0259,-1.0376,-0.9707,-0.9707,-1.0376,-1.0376,-1.0722,-0.1018,-0.1272,-0.1436,-0.1495,-0.1573,-0.1593,-0.1612,-0.1617,-0.1617,-0.1617,-0.2458,-0.3192,-0.3192,-0.4903,-0.6448,-0.6782,-0.7721,-0.853,-0.8834,-0.8808,-0.8672,-0.8574,-0.8652,-0.8693,0.0,0.0,0.0,-0.9268,-0.9374,-0.9527,-0.9676,-0.9771,-0.9822,-0.9822,-0.9822,-0.9822,-0.9822,-1.0122,-1.0365,-1.0486,-1.0728,-1.0789,-1.0789,-1.0789,-1.0789,-1.0789,-1.0789,-1.0789,-1.0849,-1.1031,-1.103,-1.0934,-1.1292,-1.1303,-1.1147,-1.1263,-1.1154,-1.0863,-1.0854,-1.0749,-1.0692,-1.0692,-1.0692,-1.0692,-1.0692,-1.0692,-1.0668,-1.0558,-1.04,-1.0217,-1.003,-0.9851,-0.9705,-0.9595,-0.9579,-0.9579,-0.9579,-0.9579,-0.9821,-1.0498,-1.006,-0.9821,-1.0498,-1.0064,-0.9579,-0.9579,-1.059,-1.1001,-1.0053,-1.0338,-1.0548,-1.0416,-1.0382,-1.0337,-1.0337,-1.1154,-1.1714,-1.1714,-1.2571,-1.2833,-1.2229,-1.1886,-1.1413,-1.0809,-0.9903,-0.9428,-0.9428,-0.8872,-0.8867,-0.9428,-0.9428,-0.9777,-0.1174,-0.1337,-0.1496,-0.1603,-0.1617,-0.1617,-0.1617,-0.1617,-0.1615,-0.1613,-0.2429,-0.3127,0.0,0.0,-0.6237,-0.6644,-0.7542,-0.8386,-0.8831,-0.877,-0.8679,0.0,0.0,0.0,0.0,0.0,0.0,-0.9371,-0.952,-0.9663,-0.9812,-0.9822,-0.9822,-0.9822,-0.9822,-0.9822,-0.9822,-1.0126,-1.0425,-1.0728,-1.0728,-1.0728,-1.0728,-1.0728,-1.0728,-1.0728,-1.0728,-1.0728,-1.0728,-1.0789,-1.0789,-1.0789,-1.1152,-1.1175,-1.1039,-1.1335,-1.116,-1.0693,-1.0883,-1.0815,-1.0649,-1.0641,-1.0637,-1.0637,-1.0637,-1.0637,-1.0637,-1.0637,-1.0512,-1.0338,-1.0221,-1.003,-0.9793,-0.9631,-0.9587,-0.9579,-0.9579,-0.9579,-0.9579,-0.9579,-0.9579,-0.9579,-0.9579,-0.9579,-0.9579,-0.9579,-0.9579,-0.9563,-0.9424,-0.9056,-0.8844,-0.8836,-0.8682,-0.8624,-0.8624,-0.9393,-0.9903,-0.9903,-1.0766,-1.1284,-1.1241,-1.0376,-0.9859,-0.9816,-0.9043,-0.8612,-0.8612,-0.8612,-0.8612,-0.8612,-0.8612,-0.8612,-0.1372,-0.151,-0.1597,-0.1613,-0.1617,-0.1617,-0.1617,-0.1617,-0.1604,-0.1558,-0.1735,-0.1902,0.0,0.0,0.0,-0.5532,-0.6473,0.0,-0.8923,-0.8326,0.0,-0.8983,0.0,-0.9181,-0.9106,-0.9303,0.0,0.0,-0.9483,-0.9551,-0.9808,-0.9822,-0.9822,-0.9822,-0.9822,-0.9822,-0.9822,-0.9879,-0.9943,-1.0061,-1.0061,-1.0061,-1.0061,-1.0061,-1.0061,-1.0061,-1.0061,-1.0061,-1.0065,-1.0304,-1.0425,-1.0486,-1.0789,-1.0884,-1.085,-1.097,-1.0804,-1.0542,-1.0618,-1.0413,-1.0148,-1.0075,-1.0036,-1.0036,-1.0036,-1.0036,-1.0036,-1.0036,-0.9911,-0.9716,-0.9671,-0.9499,-0.9271,-0.9229,-0.9118,-0.9023,-0.9023,-0.9179,-0.9282,-0.9282,-0.948,-0.9579,-0.9579,-0.9579,-0.9579,-0.9579,-0.9579,-0.9563,-0.9424,-0.9322,-0.9169,-0.9039,-0.8865,-0.8755,-0.8755,-0.9464,-0.9903,-0.9903,-1.0766,-1.0982,-1.0289,-1.0028,-0.9602,-0.8955,-0.87,-0.8612,-0.8612,-0.8612,-0.8612,-0.8612,-0.8612,-0.8612,-0.1521,-0.1611,-0.1637,-0.1637,-0.1637,-0.1626,-0.1586,-0.1577,-0.156,-0.1452,-0.1475,0.0,-0.1422,-0.2767,0.0,0.0,0.0,0.0,-0.8146,-0.7802,-0.7857,0.0,-0.9388,0.0,-0.9361,-0.951,-0.9635,0.0,-0.9622,-0.9646,-0.9812,-0.9822,-0.9822,-0.9822,-0.9822,-0.9822,-0.9822,-0.9822,-0.9822,-0.9822,-0.9822,-0.9822,-0.9822,-0.9822,-0.9822,-0.9822,-0.9822,-0.9822,-0.9822,-1.0001,-1.0061,-1.0122,-1.0425,-1.0607,-1.0607,-1.0728,-1.0612,-1.0408,-1.0343,-1.0095,-0.9745,-0.9868,-0.9876,-0.9816,-0.9816,-0.9816,-0.9816,-0.9816,-0.9691,-0.9602,-0.9528,-0.9372,-0.9253,-0.9112,-0.9008,-0.8914,-0.884,-0.9031,-0.9236,-0.9331,-0.948,-0.9579,-0.9579,-0.9579,-0.9579,-0.9579,-0.9579,-0.9592,-0.9486,-0.9453,-0.9367,-0.9265,-0.9047,-0.8909,-0.8828,-0.9174,-0.9385,-0.9349,-0.9816,-0.9864,-0.9345,-0.9345,-0.9087,-0.8612,-0.8612,-0.8612,-0.8612,-0.8612,-0.8612,-0.8612,-0.8612,-0.8612,-0.1692,-0.1717,-0.1719,-0.1715,-0.1714,-0.169,-0.1547,-0.1523,-0.15,-0.1387,0.0,-0.1376,-0.1368,-0.2231,-0.2984,-0.3247,0.0,-0.5254,-0.6835,-0.6976,-0.7495,-0.9004,-0.9318,-0.9457,-0.9639,-0.9639,-0.969,-0.9812,-0.9822,-0.9822,-0.9822,-0.9822,-0.9822,-0.9822,-0.9822,-0.9822,-0.9822,-0.9822,-0.9822,-0.9822,-0.9822,-0.9822,-0.9822,-0.9822,-0.9822,-0.9822,-0.9822,-0.9822,-0.9822,-0.9822,-0.9822,-0.9819,-1.0126,-1.0243,-1.0243,-1.0547,-1.0486,-1.0226,-1.0098,-0.9773,-0.9501,-0.9784,-0.9786,-0.9706,-0.9706,-0.9706,-0.9706,-0.9706,-0.9706,-0.9618,-0.9471,-0.9416,-0.9332,-0.9105,-0.901,-0.8936,-0.8792,-0.8947,-0.9232,-0.948,-0.9579,-0.9579,-0.9579,-0.9579,-0.9579,-0.9579,-0.9579,-0.9579,-0.9579,-0.949,-0.9437,-0.9437,-0.9234,-0.9068,-0.8905,-0.8869,-0.8792,-0.8694,-0.8682,-0.8669,-0.8645,-0.8645,-0.8637,-0.8612,-0.8612,-0.8612,-0.8612,-0.8612,-0.8612,-0.8612,-0.8612,-0.8612,-0.171,-0.168,-0.1691,-0.172,-0.1714,-0.169,-0.1547,-0.1506,0.0,0.0,-0.1322,-0.1302,-0.1252,-0.2197,-0.3052,-0.3272,0.0,0.0,0.0,0.0,-0.5356,0.0,0.0,0.0,0.0,-0.9785,0.0,0.0,-0.9822,-0.9822,-0.9822,-0.9822,-0.9822,-0.9822,-0.9822,-0.9822,-0.9822,-0.9822,-0.9822,-0.9822,-0.9822,-0.9822,-0.9822,-0.9822,-0.9822,-0.9822,-0.9822,-0.9822,-0.9822,-0.9822,-0.9822,-0.9822,-0.9883,-0.9879,-0.9879,-0.994,-0.994,-0.9876,-0.9852,-0.975,-0.9523,-0.9417,-0.9223,-0.9047,-0.9047,-0.9047,-0.9047,-0.9047,-0.9047,-0.904,-0.9013,-0.8913,-0.8804,-0.8805,-0.8602,-0.8415,-0.8387,-0.8628,-0.8928,-0.9232,-0.943,-0.9579,-0.9579,-0.9579,-0.9579,-0.9579,-0.9579,-0.9579,-0.9579,-0.96,-0.9579,-0.9579,-0.9421,-0.9343,-0.9314,-0.9133,-0.9035,-0.9007,-0.9007,-0.8938,-0.8783,-0.8775,-0.871,-0.8612,-0.8612,-0.8612,-0.8612,-0.8612,-0.8612,-0.8612,-0.8612,-0.8612,-0.168,-0.1705,-0.172,-0.1691,-0.1684,-0.1648,-0.1463,0.0,0.0,0.0,-0.1243,-0.1228,-0.1214,0.0,0.0,0.0,0.0,0.0,0.0,0.0,0.0,0.0,0.0,0.0,0.0,-0.939,-0.9822,-0.9822,-0.9822,-0.9822,-0.9822,-0.9822,-0.9822,-0.9822,-0.9822,-0.9822,-0.9822,-0.9822,-0.9822,-0.9822,-0.9822,-0.9822,-0.9822,-0.9822,-0.9822,-0.9822,-0.9822,-0.9822,-0.9822,-0.9822,-0.9822,-0.9822,-0.9822,-0.9822,-0.9822,-0.9822,-0.9822,-0.9822,-0.9822,-0.9727,-0.9571,-0.9347,-0.9171,-0.9035,-0.8905,-0.8885,-0.8885,-0.8885,-0.8885,-0.8885,-0.8885,-0.8828,-0.8808,-0.873,-0.8486,-0.8299,-0.8369,-0.8585,-0.8825,-0.8977,-0.9327,-0.9579,-0.943,-0.9529,-0.9579,-0.9579,-0.9579,-0.9579,-0.9579,-0.9579,-0.9579,-0.9579,-0.9551,-0.9458,-0.9412,-0.9326,-0.9194,-0.9104,-0.9096,-0.9056,-0.8966,-0.8966,-0.8926,-0.8844,-0.8844,-0.8844,-0.8844,-0.8844,-0.8796,-0.8698,-0.8698,-0.8653,-0.1645,-0.1731,-0.1805,-0.1713,-0.1704,-0.1657,-0.143,-0.1407,0.0,0.0,-0.1178,-0.1166,-0.1196,0.0,0.0,0.0,0.0,0.0,0.0,0.0,0.0,0.0,0.0,0.0,0.0,-0.8775,0.0,-0.9758,-0.9822,-0.9822,-0.9822,-0.9822,-0.9822,-0.9822,-0.9822,-0.9822,-0.9822,-0.9822,-0.9822,-0.9822,-0.9822,-0.9822,-0.9822,-0.9822,-0.9822,-0.9822,-0.9822,-0.9822,-0.9822,-0.9822,-0.9822,-0.9822,-0.9822,-0.9822,-0.9822,-0.9822,-0.9822,-0.9822,-0.9822,-0.9747,-0.9625,-0.9442,-0.9333,-0.9183,-0.8981,-0.8885,-0.8885,-0.8885,-0.8885,-0.8885,-0.8885,-0.8885,-0.8844,-0.8747,-0.8509,-0.8327,-0.837,-0.8553,-0.8726,-0.8726,-0.9076,-0.9377,-0.9133,-0.9282,-0.9426,-0.9529,-0.9529,-0.9529,-0.9579,-0.9579,-0.9579,-0.9579,-0.9579,-0.9567,-0.9473,-0.9461,-0.9356,-0.9222,-0.9214,-0.9194,-0.9153,-0.9153,-0.9137,-0.9096,-0.9096,-0.9096,-0.9096,-0.9096,-0.9023,-0.8877,-0.884,-0.8747,-0.165,-0.1746,-0.1777,-0.1719,-0.1704,-0.1657,-0.143,0.0,0.0,-0.1233,-0.1147,-0.1134,-0.1201,-0.1258,0.0,0.0,0.0,0.0,0.0,0.0,0.0,0.0,0.0,0.0,0.0,-0.798,-0.8532,-0.9697,-0.9822,-0.9822,-0.9822,-0.9822,-0.9822,-0.9822,-0.9822,-0.9822,-0.9822,-0.9822,-0.9822,-0.9822,-0.9822,-0.9822,-0.9822,-0.9822,-0.9822,-0.9822,-0.9822,-0.9822,-0.9822,-0.9822,-0.9822,-0.9822,-0.9822,-0.9822,-0.9822,-0.9822,-0.9822,-0.9822,-0.9822,-0.9812,-0.9754,-0.9473,-0.9333,-0.9183,-0.8981,-0.8885,-0.8885,-0.8885,-0.8885,-0.8885,-0.8885,-0.8885,-0.8844,-0.8747,-0.8584,-0.8477,-0.833,-0.8388,-0.8432,-0.8432,-0.868,-0.8874,-0.8825,-0.8874,-0.8977,-0.9183,-0.9236,-0.9335,-0.9579,-0.9579,-0.9579,-0.9579,-0.9579,-0.9571,-0.9604,-0.9604,-0.9596,-0.9579,-0.953,-0.9506,-0.9384,-0.938,-0.9306,-0.91,-0.9096,-0.9096,-0.9096,-0.9096,-0.9088,-0.9068,-0.8897,-0.8812,-0.1589,-0.1735,-0.1757,-0.1714,-0.1692,-0.1636,-0.1426,0.0,-0.1296,-0.1211,-0.1155,-0.1136,-0.1185,-0.1213,-0.1259,0.0,0.0,0.0,0.0,0.0,0.0,0.0,0.0,0.0,0.0,0.0,-0.7243,-0.8532,-0.939,-0.9822,-0.9822,-0.9822,-0.9822,-0.9822,-0.9822,-0.9822,-0.9822,-0.9822,-0.9822,-0.9822,-0.9822,-0.9822,-0.9822,-0.9822,-0.9822,-0.9822,-0.9822,-0.9822,-0.9822,-0.9822,-0.9822,-0.9822,-0.9822,-0.9822,-0.9822,-0.9822,-0.9822,-0.9822,-0.9822,-0.9822,-0.9771,-0.9476,-0.934,-0.9245,-0.9008,-0.8885,-0.8885,-0.8885,-0.8885,-0.8885,-0.8885,-0.8885,-0.8844,-0.8747,-0.8594,-0.8442,-0.835,-0.8348,-0.8333,-0.8187,-0.8528,-0.8726,-0.8577,-0.8676,-0.8825,-0.8928,-0.8977,-0.8977,-0.9126,-0.9278,-0.9381,-0.9381,-0.9529,-0.9579,-0.9579,-0.9579,-0.9579,-0.9579,-0.9579,-0.9596,-0.9522,-0.9518,-0.9486,-0.9417,-0.9417,-0.9417,-0.9417,-0.9417,-0.936,-0.9298,-0.9177,-0.9027,-0.1457,-0.16,-0.1675,-0.1699,-0.1618,-0.1511,0.0,-0.1245,-0.1175,-0.1111,-0.1061,-0.1078,-0.1165,-0.1136,-0.1161,0.0,0.0,-0.1356,0.0,0.0,0.0,0.0,0.0,-0.3405,0.0,-0.5073,-0.6263,-0.7245,-0.8529,-0.9268,-0.9268,-0.9576,-0.9822,-0.9822,-0.9822,-0.9822,-0.9822,-0.9822,-0.9822,-0.9822,-0.9822,-0.9822,-0.9822,-0.9822,-0.9822,-0.9822,-0.9822,-0.9822,-0.9822,-0.9822,-0.9822,-0.9822,-0.9822,-0.9822,-0.9822,-0.9822,-0.9822,-0.9822,-0.9822,-0.9791,-0.9717,-0.9462,-0.9351,-0.9266,-0.9015,-0.8885,-0.8885,-0.8885,-0.8885,-0.8885,-0.8885,-0.8885,-0.8858,-0.8804,-0.8662,-0.8509,-0.8364,-0.8367,-0.8292,-0.8048,-0.8283,-0.8478,-0.8333,-0.8432,-0.8577,-0.8676,-0.8676,-0.8726,-0.8775,-0.8977,-0.9084,-0.9084,-0.9331,-0.9529,-0.9579,-0.9579,-0.9579,-0.9579,-0.9579,-0.9579,-0.9579,-0.9579,-0.9579,-0.9579,-0.9579,-0.9579,-0.9579,-0.9579,-0.9559,-0.9433,-0.9429,-0.9161,-0.1157,-0.1297,-0.1379,-0.1617,-0.1486,-0.1288,0.0,-0.1042,-0.0991,-0.0923,-0.089,-0.0955,-0.1168,-0.1022,-0.1001,-0.1253,0.0,0.0,0.0,0.0,0.0,0.0,0.0,-0.233,-0.3694,-0.5074,-0.5896,-0.5896,-0.7182,-0.7919,-0.7919,-0.9143,-0.9822,-0.9822,-0.9822,-0.9822,-0.9822,-0.9822,-0.9822,-0.9822,-0.9822,-0.9822,-0.9822,-0.9822,-0.9822,-0.9822,-0.9822,-0.9822,-0.9822,-0.9822,-0.9822,-0.9822,-0.9822,-0.9822,-0.9822,-0.9822,-0.9822,-0.9822,-0.9822,-0.973,-0.9588,-0.9432,-0.9337,-0.9183,-0.8984,-0.8885,-0.8885,-0.8885,-0.8885,-0.8885,-0.8885,-0.8885,-0.8885,-0.8881,-0.8818,-0.8665,-0.8513,-0.8419,-0.8221,-0.8019,-0.7988,-0.7988,-0.7988,-0.7988,-0.8088,-0.8382,-0.8382,-0.8478,-0.8775,-0.8825,-0.8825,-0.8825,-0.9031,-0.9331,-0.9579,-0.9579,-0.9579,-0.9579,-0.9579,-0.9579,-0.9579,-0.9579,-0.9579,-0.9579,-0.9579,-0.9579,-0.9579,-0.9579,-0.9579,-0.9571,-0.9437,-0.9161,-0.0897,-0.1019,-0.1033,-0.1111,-0.1052,-0.0936,-0.083,-0.0883,-0.0936,-0.0901,-0.0914,-0.0905,-0.0967,-0.0932,-0.0952,-0.114,-0.1292,0.0,0.0,0.0,0.0,0.0,-0.1908,-0.2107,0.0,0.0,-0.455,-0.455,-0.6632,-0.7919,-0.7919,-0.9083,-0.9822,-0.9822,-0.9822,-0.9822,-0.9822,-0.9822,-0.9822,-0.9822,-0.9822,-0.9822,-0.9822,-0.9822,-0.9822,-0.9822,-0.9822,-0.9822,-0.9822,-0.9822,-0.9822,-0.9822,-0.9822,-0.9822,-0.9822,-0.9822,-0.9822,-0.9822,-0.9822,-0.9727,-0.9585,-0.9432,-0.9333,-0.9183,-0.8981,-0.8885,-0.8885,-0.8885,-0.8885,-0.8885,-0.8885,-0.8885,-0.8885,-0.8885,-0.8821,-0.8669,-0.8516,-0.837,-0.8225,-0.8019,-0.7988,-0.7988,-0.7988,-0.7988,-0.8038,-0.8137,-0.8137,-0.8137,-0.8237,-0.8432,-0.8531,-0.8531,-0.8779,-0.9031,-0.9282,-0.948,-0.9579,-0.9579,-0.9579,-0.9579,-0.9579,-0.9579,-0.9579,-0.9579,-0.9579,-0.9579,-0.9579,-0.9579,-0.9579,-0.9575,-0.9441,-0.9343,0.0,-0.073,-0.0743,-0.0826,-0.0773,-0.0625,-0.0596,-0.0616,-0.068,-0.067,-0.0655,-0.0687,-0.0782,-0.0786,-0.0837,-0.0999,-0.124,0.0,0.0,0.0,0.0,0.0,0.0,0.0,0.0,-0.2695,-0.3203,-0.3203,-0.5163,-0.6385,-0.6385,-0.8102,-0.9086,-0.9086,-0.9576,-0.9822,-0.9822,-0.9822,-0.9822,-0.9822,-0.9822,-0.9822,-0.9822,-0.9822,-0.9822,-0.9822,-0.9822,-0.9822,0.0,-0.9822,-0.9822,-0.9822,-0.9822,-0.9822,-0.9822,-0.9822,-0.9788,-0.9741,-0.9741,-0.9608,-0.9422,-0.9327,-0.9195,-0.9055,-0.8964,-0.8885,-0.8885,-0.8885,-0.8885,-0.8885,-0.8885,-0.8885,-0.8885,-0.8885,-0.8811,-0.8737,-0.8526,-0.8414,-0.8289,-0.8029,-0.7988,-0.7988,-0.7988,-0.7988,-0.7988,-0.7988,-0.7988,-0.7988,-0.7988,-0.8137,-0.8237,-0.8237,-0.8482,-0.873,-0.8886,-0.9232,-0.943,-0.943,-0.9529,-0.9579,-0.9579,-0.9579,-0.9579,-0.9579,-0.9579,-0.9579,-0.9579,-0.9579,-0.9579,-0.9575,-0.9441,-0.9404,0.0,-0.0387,-0.0443,-0.0664,-0.0568,-0.0386,-0.0377,-0.0323,0.0,-0.0313,-0.0307,-0.0344,-0.0549,-0.059,-0.067,-0.0874,-0.1173,0.0,0.0,0.0,0.0,0.0,-0.1856,0.0,-0.1892,-0.1943,-0.1977,-0.1977,-0.3203,-0.3875,-0.3875,-0.6324,-0.7734,-0.7734,-0.9022,-0.9697,-0.9822,-0.9822,-0.9822,-0.9822,-0.9822,-0.9822,-0.9822,-0.9822,-0.9822,-0.9822,-0.9822,-0.9822,-0.9822,-0.9822,-0.9822,-0.9822,-0.9822,-0.9815,-0.9805,-0.9805,-0.9717,-0.9595,-0.9595,-0.9401,-0.9207,-0.9197,-0.9049,-0.8885,-0.8885,-0.8885,-0.8885,-0.8885,-0.8885,-0.8885,-0.8885,-0.8885,-0.8885,-0.8885,-0.8885,-0.8804,-0.8564,-0.8489,-0.8397,-0.8062,-0.7995,-0.7988,-0.7988,-0.7988,-0.7988,-0.7988,-0.7988,-0.7988,-0.7988,-0.7988,-0.7988,-0.7988,-0.8233,-0.8382,-0.8382,-0.8882,-0.9183,-0.9183,-0.943,-0.9579,-0.9529,-0.9579,-0.9579,-0.9579,-0.9579,-0.9579,-0.9579,-0.9579,-0.9579,-0.9575,-0.9453,-0.942,-0.0073,0.0,-0.0118,-0.0154,-0.0155,-0.0078,0.0,-0.019,-0.0304,0.0,0.0,0.0,-0.036,-0.0477,-0.0647,-0.0793,-0.1159,-0.1451,-0.1528,0.0,0.0,-0.1888,-0.1932,-0.1955,-0.1955,-0.1968,-0.1977,-0.1977,-0.3203,-0.3875,-0.3875,-0.5468,-0.6385,-0.6385,-0.7673,-0.8836,-0.9761,-0.9822,-0.9822,-0.9822,-0.9822,-0.9822,-0.9822,-0.9822,-0.9822,-0.9822,-0.9822,-0.9822,-0.9822,-0.9822,-0.9822,-0.9822,-0.9822,-0.9754,-0.9659,-0.9659,-0.9564,-0.9435,-0.9435,-0.931,-0.919,-0.9025,-0.8964,-0.8885,-0.8885,-0.8885,-0.8885,-0.8885,-0.8885,-0.8885,-0.8885,-0.8885,-0.8885,-0.8885,-0.8885,-0.8834,-0.8699,-0.8564,-0.8428,-0.8252,-0.8123,-0.7988,-0.7988,-0.7988,-0.7988,-0.7988,-0.7988,-0.7988,-0.7988,-0.7988,-0.7988,-0.7988,-0.8038,-0.8088,-0.8088,-0.8581,-0.8878,-0.8878,-0.9133,-0.9183,-0.8977,-0.9377,-0.9529,-0.9286,-0.948,-0.9579,-0.9579,-0.9579,-0.9579,-0.9579,-0.9583,-0.9563,0.0,0.0,0.0,0.0,0.0,0.0,0.0,0.0,0.0,0.0,0.0,0.0,0.0,0.0,0.0,0.0,-0.105,0.0,0.0,0.0,-0.185,-0.1941,-0.1967,-0.1977,-0.1977,-0.1977,-0.1977,-0.1977,-0.2652,-0.302,-0.302,-0.4244,-0.4977,-0.4977,-0.6263,-0.7612,-0.89,-0.9515,-0.9822,-0.9822,-0.9822,-0.9822,-0.9822,-0.9822,-0.9822,-0.9822,-0.9822,-0.9822,-0.9822,-0.9822,-0.9822,-0.9815,-0.9747,-0.9676,-0.9602,-0.953,-0.9408,-0.9333,-0.9333,-0.9178,-0.9042,-0.8908,-0.8885,-0.8885,-0.8885,-0.8885,-0.8885,-0.8885,-0.8885,-0.8885,-0.8885,-0.8885,-0.8885,-0.8885,-0.8885,-0.8841,-0.8743,-0.8645,-0.8523,-0.8364,-0.8204,-0.8123,-0.8002,-0.7988,-0.7988,-0.7988,-0.7988,-0.7988,-0.7988,-0.7988,-0.7988,-0.7988,-0.7988,-0.7988,-0.7988,-0.8283,-0.8482,-0.8627,-0.8878,-0.8928,-0.8825,-0.9076,-0.9175,-0.9031,-0.9175,-0.9278,-0.943,-0.943,-0.948,-0.9579,-0.9579,-0.9579,0.0,0.0,0.0,0.0,0.0,0.0,0.0,0.0,0.0,0.0,0.0,0.0,0.0,0.0,0.0,0.0,0.0,0.0,-0.1722,-0.1824,-0.1874,-0.1966,-0.1977,-0.1977,-0.1977,-0.1977,-0.1977,-0.1977,-0.1977,-0.1977,-0.1977,-0.302,-0.3632,-0.3632,-0.4918,-0.6141,-0.7304,-0.8778,-0.9515,-0.9515,-0.9697,-0.9822,-0.9822,-0.9822,-0.9822,-0.9819,-0.9798,-0.9788,-0.9788,-0.9764,-0.9754,-0.9741,-0.9622,-0.9561,-0.9523,-0.9395,-0.9252,-0.9176,-0.9176,-0.9042,-0.8885,-0.8885,-0.8885,-0.8885,-0.8885,-0.8885,-0.8885,-0.8885,-0.8885,-0.8885,-0.8885,-0.8885,-0.8885,-0.8885,-0.8885,-0.8848,-0.8774,-0.8726,-0.8635,-0.8387,-0.8354,-0.8231,-0.8099,-0.8005,-0.7988,-0.7988,-0.7988,-0.7988,-0.7988,-0.7988,-0.7988,-0.7988,-0.7988,-0.7988,-0.7988,-0.7988,-0.8088,-0.8333,-0.8577,-0.8775,-0.8775,-0.8775,-0.8775,-0.8775,-0.8825,-0.8928,-0.9133,-0.9133,-0.9282,-0.9529,-0.9529,-0.9579,0.0,0.0,0.0,0.0,0.0,0.0,0.0,0.0,0.0,0.0,0.0,0.0,0.0,0.0,-0.0313,0.0,0.0,-0.1317,0.0,0.0,-0.1874,-0.1966,-0.1977,-0.1977,-0.1977,-0.1977,-0.1977,-0.1977,-0.1977,-0.1977,-0.1977,-0.2161,-0.2284,-0.2284,-0.351,-0.4304,-0.4488,-0.6938,-0.8163,-0.8224,-0.9268,-0.9822,-0.9822,-0.9822,-0.9822,-0.9815,-0.9693,-0.9642,-0.9632,-0.9503,-0.9449,-0.9445,-0.9425,-0.9337,-0.9275,-0.9255,-0.9096,-0.8971,-0.8971,-0.8902,-0.8885,-0.8885,-0.8885,-0.8885,-0.8885,-0.8885,-0.8885,-0.8885,-0.8885,-0.8885,-0.8885,-0.8885,-0.8885,-0.8885,-0.8885,-0.8875,-0.8854,-0.8801,-0.8696,-0.8652,-0.8442,-0.8313,-0.8238,-0.8126,-0.7988,-0.7988,-0.7988,-0.7988,-0.7988,-0.7988,-0.7988,-0.7988,-0.7988,-0.7988,-0.7988,-0.7988,-0.8041,-0.8038,-0.8333,-0.8577,-0.8775,-0.8577,-0.8581,-0.8775,-0.8825,-0.8825,-0.8874,-0.8874,-0.8977,-0.9282,-0.9282,-0.9381,0.0,0.0,0.0,0.0,0.0,0.0,0.0,0.0,0.0,0.0,0.0,0.0,0.0,0.0,-0.0188,-0.0355,0.0,-0.1154,-0.1544,-0.1577,-0.1672,-0.1969,-0.1977,-0.1977,-0.1977,-0.1977,-0.1977,-0.1977,-0.1977,-0.1977,-0.1977,-0.1977,-0.1969,-0.1952,-0.2497,-0.2789,-0.2826,-0.4739,-0.6082,-0.6798,-0.7404,-0.7671,-0.7668,-0.8325,-0.8625,-0.8622,-0.9216,-0.9486,-0.9483,-0.9412,-0.9381,-0.9371,-0.9347,-0.9272,-0.92,-0.9066,-0.8994,-0.8885,-0.8885,-0.8885,-0.8885,-0.8885,-0.8885,-0.8885,-0.8885,-0.8885,-0.8885,-0.8885,-0.8885,-0.8885,-0.8885,-0.8885,-0.8885,-0.8885,-0.8885,-0.8885,-0.8885,-0.8828,-0.8808,-0.8726,-0.8601,-0.8459,-0.835,-0.8211,-0.8136,-0.8002,-0.7988,-0.7988,-0.7988,-0.7988,-0.7988,-0.7988,-0.7988,-0.7988,-0.7988,-0.7988,-0.7988,-0.7988,-0.8137,-0.8233,-0.8382,-0.8237,-0.8237,-0.8382,-0.8382,-0.8432,-0.8577,-0.8577,-0.8783,-0.9187,-0.9187,-0.9331,0.0034,0.0,0.0,0.0,0.0,0.0,0.0,0.0,0.0,0.0,0.0,0.0,0.0,0.0,0.0,-0.0363,-0.0599,-0.0902,-0.1262,-0.1356,-0.1509,-0.1839,-0.1973,-0.1977,-0.1977,-0.197,-0.1966,-0.1966,-0.196,-0.1955,-0.1955,-0.1955,-0.1945,-0.1922,-0.1921,-0.1909,-0.1886,-0.2884,-0.4021,-0.5441,-0.5739,-0.5823,-0.5812,-0.6745,-0.7155,-0.7272,-0.8408,-0.8919,-0.8974,-0.9175,-0.9276,-0.9266,-0.9147,-0.9103,-0.9089,-0.8981,-0.8885,-0.8885,-0.8885,-0.8885,-0.8885,-0.8885,-0.8885,-0.8885,-0.8885,-0.8885,-0.8885,-0.8885,-0.8885,-0.8885,-0.8885,-0.8885,-0.8885,-0.8885,-0.8885,-0.8885,-0.8885,-0.8885,-0.8848,-0.8784,-0.8733,-0.8628,-0.8367,-0.8344,-0.8218,-0.8012,-0.7988,-0.7988,-0.7988,-0.7988,-0.7988,-0.7988,-0.7988,-0.7988,-0.7988,-0.7988,-0.7988,-0.7988,-0.7988,-0.7988,-0.7988,-0.7988,-0.7988,-0.7988,-0.7988,-0.8088,-0.8283,-0.8283,-0.8535,-0.9034,-0.9034,-0.9133,0.0184,0.0,0.0,0.0,0.0,0.0,0.0,0.0,0.0,0.0,0.0,0.0,0.0,0.0,-0.0106,-0.0373,-0.0439,-0.0564,-0.086,-0.1226,-0.1425,-0.1508,-0.1837,-0.1977,-0.1977,-0.1951,-0.1934,-0.1934,-0.1908,-0.1892,-0.1892,-0.1892,-0.1892,-0.1889,-0.1889,-0.1888,-0.1886,-0.2003,-0.271,-0.3945,-0.5235,-0.5816,-0.581,-0.5869,-0.5929,-0.5981,-0.7099,-0.7564,-0.7613,-0.8575,-0.8915,-0.8912,-0.8902,-0.8898,-0.8898,-0.8888,-0.8885,-0.8885,-0.8885,-0.8885,-0.8885,-0.8885,-0.8885,-0.8885,-0.8885,-0.8885,-0.8885,-0.8885,-0.8885,-0.8885,-0.8885,-0.8885,-0.8885,-0.8885,-0.8885,-0.8885,-0.8885,-0.8885,-0.8878,-0.8868,-0.8808,-0.8659,-0.8492,-0.8357,-0.8218,-0.8012,-0.7988,-0.7988,-0.7988,-0.7988,-0.7988,-0.7988,-0.7988,-0.7988,-0.7988,-0.7988,-0.7988,-0.7988,-0.7988,-0.7988,-0.7988,-0.7988,-0.7988,-0.7988,-0.7988,-0.7988,-0.8038,-0.8038,-0.8187,-0.8482,-0.8482,-0.8581,0.0765,0.0368,0.0,0.0,0.0,0.0,0.0,0.0,0.0,0.0,0.0,0.0,0.0,0.0,-0.0053,-0.016,-0.0166,-0.0285,-0.0632,-0.0758,-0.0945,-0.1188,-0.1435,-0.162,-0.162,-0.1791,-0.1903,-0.1903,-0.1892,-0.1886,-0.1886,-0.1886,-0.1877,-0.1858,-0.1857,-0.1849,-0.1829,-0.1829,-0.2057,-0.2569,-0.3056,-0.3285,-0.3366,-0.4104,-0.4445,-0.4498,-0.5654,-0.6539,-0.727,-0.7619,-0.8214,-0.8885,-0.8885,-0.8885,-0.8885,-0.8885,-0.8885,-0.8885,-0.8885,-0.8885,-0.8885,-0.8885,-0.8885,-0.8885,-0.8885,-0.8885,-0.8885,-0.8885,-0.8885,-0.8885,-0.8885,-0.8885,-0.8885,-0.8885,-0.8885,-0.8885,-0.8885,-0.8885,-0.8885,-0.8885,-0.8838,-0.8774,-0.8523,-0.8438,-0.8319,-0.8025,-0.7988,-0.7988,-0.7988,-0.7988,-0.7988,-0.7988,-0.7988,-0.7988,-0.7988,-0.7988,-0.7988,-0.7988,-0.7988,-0.7988,-0.7988,-0.7988,-0.7988,-0.7988,-0.7988,-0.7988,-0.7988,-0.7988,-0.8137,-0.8382,-0.8382,-0.8528,0.1106,0.0535,0.0,0.0,0.0,0.0,0.0,0.0,0.0,0.0,0.0,0.0,0.0,0.0,0.0,0.0,0.0,-0.0057,-0.0285,-0.0405,-0.0585,-0.0818,-0.1116,-0.1296,-0.1296,-0.1466,-0.1637,-0.1754,-0.1746,-0.1741,-0.1857,-0.1857,-0.1848,-0.1827,-0.1826,-0.1816,-0.1795,-0.1795,-0.1795,-0.1795,-0.1816,-0.1815,-0.1851,-0.2632,-0.3023,-0.3079,-0.4305,-0.5252,-0.6035,-0.6424,-0.7263,-0.8325,-0.8325,-0.8549,-0.8885,-0.8885,-0.8885,-0.8885,-0.8885,-0.8885,-0.8885,-0.8885,-0.8885,-0.8885,-0.8885,-0.8885,-0.8885,-0.8885,-0.8885,-0.8885,-0.8885,-0.8885,-0.8885,-0.8885,-0.8885,-0.8885,-0.8885,-0.8885,-0.8885,-0.8885,-0.8885,-0.8842,-0.8533,-0.8482,-0.8381,-0.8032,-0.7988,-0.7988,-0.7988,-0.7988,-0.7988,-0.7988,-0.7988,-0.7988,-0.7988,-0.7988,-0.7988,-0.7988,-0.7988,-0.7988,-0.7988,-0.7988,-0.7988,-0.7988,-0.7988,-0.7988,-0.7988,-0.7988,-0.8088,-0.8283,-0.8283,-0.8382,0.1117,0.0464,0.0,0.0,0.0,0.0,0.0,0.0,0.0,0.0,0.0,0.0,0.0,0.0,0.0,0.0,0.0,0.0,0.0,-0.0284,-0.0517,-0.0517,-0.0816,-0.1001,-0.1001,-0.0929,-0.1035,-0.138,-0.1359,-0.1458,-0.1795,-0.1795,-0.1795,-0.1795,-0.1795,-0.1795,-0.1795,-0.1795,-0.1795,-0.1795,-0.1795,-0.1795,-0.1795,-0.1795,-0.1795,-0.1851,-0.3079,-0.358,-0.3692,-0.4916,-0.6089,-0.7096,-0.7096,-0.7823,-0.8881,-0.8881,-0.8885,-0.8885,-0.8885,-0.8885,-0.8885,-0.8885,-0.8885,-0.8885,-0.8885,-0.8885,-0.8885,-0.8885,-0.8885,-0.8885,-0.8885,-0.8885,-0.8885,-0.8885,-0.8885,-0.8885,-0.8885,-0.8885,-0.8885,-0.8885,-0.8885,-0.8842,-0.8533,-0.8482,-0.8381,-0.8032,-0.7988,-0.7988,-0.7988,-0.7988,-0.7988,-0.7988,-0.7988,-0.7988,-0.7988,-0.7988,-0.7988,-0.7988,-0.7988,-0.7988,-0.7988,-0.7988,-0.7988,-0.7988,-0.7988,-0.7988,-0.7988,-0.7988,-0.7988,-0.7988,-0.7988,-0.7988,0.1916,0.1228,0.0,0.0,0.0,0.0,0.0,0.0,0.0,0.0,0.0,0.0,0.0,0.0,0.0,0.0,0.0,0.0,0.0,-0.0113,-0.017,-0.017,-0.0397,-0.0569,-0.0569,-0.0793,-0.096,-0.1017,-0.1012,-0.1121,-0.1458,-0.1458,-0.157,-0.1795,-0.1795,-0.1795,-0.1795,-0.1795,-0.1795,-0.1795,-0.1795,-0.1795,-0.1795,-0.1795,-0.1795,-0.1795,-0.2186,-0.28,-0.3692,-0.4916,-0.5584,-0.5977,-0.676,-0.7321,-0.7709,-0.8602,-0.8885,-0.8885,-0.8885,-0.8885,-0.8885,-0.8885,-0.8885,-0.8885,-0.8885,-0.8885,-0.8885,-0.8885,-0.8885,-0.8885,-0.8885,-0.8885,-0.8885,-0.8885,-0.8885,-0.8885,-0.8885,-0.8885,-0.8885,-0.8885,-0.8885,-0.8842,-0.8533,-0.8482,-0.8381,-0.8032,-0.7988,-0.7988,-0.7988,-0.7988,-0.7988,-0.7988,-0.7988,-0.7988,-0.7988,-0.7988,-0.7988,-0.7988,-0.7988,-0.7988,-0.7988,-0.7988,-0.7988,-0.7988,-0.7988,-0.7988,-0.7988,-0.7988,-0.7988,-0.7988,-0.7988,-0.7988,0.1786,0.0,0.0,0.0,0.0,0.0,0.0,0.0,0.0,0.0,0.0,0.0,0.0,0.0,0.0,0.0,0.0,0.0,0.0,0.0,0.0,0.0,-0.0168,-0.0224,-0.0224,-0.0449,-0.0561,-0.0673,-0.0729,-0.0841,-0.1121,-0.1121,-0.1234,-0.1458,-0.157,-0.1627,-0.1627,-0.1739,-0.1795,-0.1795,-0.1795,-0.1795,-0.1795,-0.1795,-0.1795,-0.1795,-0.1795,-0.2186,-0.2967,-0.3692,-0.4249,-0.4751,-0.5421,-0.598,-0.6536,-0.726,-0.7817,-0.8211,-0.8211,-0.8491,-0.8885,-0.8885,-0.8885,-0.8885,-0.8885,-0.8885,-0.8885,-0.8885,-0.8885,-0.8885,-0.8885,-0.8885,-0.8885,-0.8885,-0.8885,-0.8885,-0.8885,-0.8885,-0.8885,-0.8885,-0.8885,-0.8842,-0.8533,-0.8482,-0.8381,-0.8032,-0.7988,-0.7988,-0.7988,-0.7988,-0.7988,-0.7988,-0.7988,-0.7988,-0.7988,-0.7988,-0.7988,-0.7988,-0.7988,-0.7988,-0.7988,-0.7988,-0.7789,-0.7388,-0.7789,-0.7789,-0.7388,-0.7789,-0.7988,-0.7988,-0.7988,-0.7988,0.1194,0.0,0.0,0.0,0.0,0.0,0.0,0.0,0.0,0.0,0.0,0.0,0.0,0.0,0.0,0.0,0.0,0.0,0.0,0.0,0.0,0.0,0.0,0.0,0.0,0.0,-0.0112,-0.0336,-0.0336,-0.0504,-0.0839,-0.0838,-0.0893,-0.0893,-0.1117,-0.1284,-0.1284,-0.1563,-0.1731,-0.1731,-0.1731,-0.1731,-0.1731,-0.1793,-0.1795,-0.1795,-0.1795,-0.1795,-0.1795,-0.1795,-0.2465,-0.3469,-0.358,-0.4249,-0.525,-0.5361,-0.6033,-0.693,-0.693,-0.7709,-0.8716,-0.8716,-0.8826,-0.8885,-0.8885,-0.8885,-0.8885,-0.8885,-0.8885,-0.8885,-0.8885,-0.8885,-0.8885,-0.8885,-0.8885,-0.8885,-0.8885,-0.8885,-0.8885,-0.8885,-0.8871,-0.8825,-0.8533,-0.8472,-0.8367,-0.8032,-0.7988,-0.7988,-0.7988,-0.7988,-0.7988,-0.7988,-0.7988,-0.7988,-0.7988,-0.7988,-0.7988,-0.7988,-0.7889,-0.7839,-0.7839,-0.7839,-0.7388,-0.6437,-0.7238,-0.7285,-0.6387,-0.7388,-0.7889,-0.7988,-0.7988,-0.7939,0.0,0.1316,0.0,0.0,0.0,0.0,0.0,0.0,0.0,0.0,0.0,0.0,0.0,0.0,0.0,0.0,0.0,0.0,0.0,0.0,0.0,0.0,0.0,0.0,0.0,0.0,0.0,-0.0056,-0.0111,-0.022,-0.0495,-0.0489,-0.0647,-0.0917,-0.0971,-0.0971,-0.0971,-0.1079,-0.1186,-0.14,-0.1186,-0.1186,-0.1402,-0.1662,-0.1795,-0.1795,-0.1795,-0.1795,-0.1795,-0.1795,-0.1963,-0.2298,-0.3246,-0.3747,-0.4081,-0.5027,-0.5528,-0.5753,-0.5753,-0.6536,-0.7487,-0.7487,-0.8103,-0.8885,-0.8885,-0.8885,-0.8885,-0.8885,-0.8885,-0.8885,-0.8885,-0.8885,-0.8885,-0.8885,-0.8885,-0.8885,-0.8885,-0.8885,-0.8885,-0.8885,-0.8842,-0.8699,-0.8513,-0.8391,-0.8252,-0.8019,-0.7988,-0.7988,-0.7988,-0.7988,-0.7988,-0.7988,-0.7988,-0.7988,-0.7988,-0.7988,-0.7988,-0.7988,-0.7188,-0.6736,-0.6736,-0.6736,-0.6637,-0.6387,-0.5779,-0.5779,-0.6387,-0.6637,-0.7188,-0.7988,-0.7988,-0.754,0.0,0.0,0.0,0.0,0.0,0.0,0.0,0.0,0.0,0.0,0.0,0.0,0.0,0.0,0.0,0.0,0.0,0.0,0.0,0.0,0.0,0.0,0.0,0.0,0.0,0.0,0.0,0.0,0.0,-0.0054,-0.0216,-0.0215,-0.0267,-0.048,-0.0587,-0.064,-0.064,-0.08,-0.096,-0.1119,-0.096,-0.096,-0.112,-0.1412,-0.1587,-0.1588,-0.1712,-0.1774,-0.1774,-0.1789,-0.1795,-0.1851,-0.2465,-0.2744,-0.28,-0.3469,-0.4026,-0.4528,-0.4528,-0.5308,-0.6366,-0.693,-0.7543,-0.8156,-0.8716,-0.8885,-0.8885,-0.8885,-0.8885,-0.8885,-0.8885,-0.8885,-0.8885,-0.8885,-0.8885,-0.8885,-0.8885,-0.8885,-0.8885,-0.8885,-0.8815,-0.8662,-0.8509,-0.8303,-0.8133,-0.8002,-0.7988,-0.7988,-0.7988,-0.7988,-0.7988,-0.7988,-0.7537,-0.7238,-0.7238,-0.6783,-0.6478,-0.6478,-0.5929,-0.5629,-0.5629,-0.5129,-0.4878,-0.4878,-0.4826,-0.4826,-0.4878,-0.5379,-0.5929,-0.6478,-0.6478,-0.6179,0.0,0.0,0.0,0.0,0.0,0.0,0.0,0.0,0.0,0.0,0.0,0.0,0.0,0.0,0.0,0.0,0.0,0.0,0.0,0.0,0.0,0.0,0.0,0.0,0.0,0.0,0.0,0.0,0.0,0.0,0.0,0.0,0.0,0.0,-0.0211,-0.0317,-0.0317,-0.0581,-0.0793,-0.0793,-0.0793,-0.0793,-0.074,-0.1003,-0.1165,-0.1226,-0.1515,-0.1633,-0.1635,-0.1663,-0.162,-0.162,-0.1625,-0.1627,-0.1627,-0.1627,-0.2297,-0.3189,-0.3189,-0.4026,-0.5252,-0.6202,-0.6649,-0.6985,-0.7986,-0.8322,-0.8322,-0.8546,-0.8602,-0.866,-0.883,-0.8885,-0.8885,-0.8885,-0.8885,-0.8885,-0.8885,-0.8885,-0.8885,-0.8885,-0.8794,-0.8621,-0.8472,-0.8221,-0.7988,-0.7988,-0.7988,-0.7988,-0.7988,-0.7988,-0.7939,-0.7739,-0.6936,-0.6334,-0.6134,-0.5327,-0.4824,-0.4824,-0.4624,-0.4524,-0.4524,-0.3473,-0.2923,-0.2923,-0.3775,-0.3924,-0.3224,-0.4074,-0.4624,-0.4824,-0.4824,-0.4724,0.0,0.0,0.0,0.0,0.0,0.0,0.0,0.0,0.0,0.0,0.0,0.0,0.0,0.0,0.0,0.0,0.0,0.0,0.0,0.0,0.0,0.0,0.0,0.0,0.0,0.0,0.0,0.0,0.0,0.0,0.0,0.0,0.0,0.0,-0.0051,-0.0051,-0.0051,-0.0102,-0.0254,-0.0458,-0.0458,-0.0356,-0.0153,-0.0407,-0.0673,-0.096,-0.1016,-0.1017,-0.1018,-0.1035,-0.1042,-0.1043,-0.1004,-0.1009,-0.1009,-0.1009,-0.129,-0.1625,-0.1625,-0.2575,-0.3858,-0.4026,-0.4751,-0.5639,-0.5808,-0.5862,-0.6086,-0.7041,-0.7321,-0.7598,-0.8605,-0.8885,-0.8885,-0.8885,-0.8885,-0.8885,-0.8885,-0.8885,-0.8885,-0.8885,-0.871,-0.8469,-0.8374,-0.8153,-0.7988,-0.7988,-0.7988,-0.7988,-0.7988,-0.7988,-0.7637,-0.6736,-0.6487,-0.6032,-0.5074,-0.4874,-0.4824,-0.4824,-0.3924,-0.3423,-0.3423,-0.2371,-0.1818,-0.1818,-0.1969,-0.2422,-0.3224,-0.3324,-0.3874,-0.4824,-0.4824,-0.4323,0.0,0.0,0.0,0.0,0.0,0.0,0.0,0.0,0.0,0.0,0.0,0.0,0.0,0.0,0.0,0.0,0.0,0.0,0.0,0.0,0.0,0.0,0.0,0.0,0.0,0.0,0.0,0.0,0.0,0.0,0.0,0.0,0.0,0.0,0.0,0.0,0.0,0.0,-0.0051,-0.0152,-0.0152,-0.0101,0.0,-0.0101,-0.0357,-0.0621,-0.0837,-0.0893,-0.0895,-0.091,-0.0922,-0.0875,-0.0882,-0.089,-0.0897,-0.0897,-0.0953,-0.1065,-0.1065,-0.1513,-0.2184,-0.2853,-0.3465,-0.4023,-0.4693,-0.5025,-0.5246,-0.575,-0.5975,-0.6255,-0.6811,-0.6924,-0.7091,-0.7765,-0.7878,-0.81,-0.8771,-0.8885,-0.8834,-0.8716,-0.8574,-0.8411,-0.818,-0.8085,-0.7789,-0.7188,-0.7086,-0.6886,-0.6279,-0.6229,-0.6029,-0.5579,-0.4979,-0.4427,-0.3924,-0.3374,-0.3022,-0.3022,-0.2572,-0.2321,-0.2321,-0.1869,-0.1617,-0.1617,-0.1617,-0.1818,-0.2321,-0.2321,-0.2521,-0.3022,-0.3022,-0.2773,0.0,0.0,0.0,0.0,0.0,0.0,0.0,0.0,0.0,0.0,0.0,0.0101,0.0353,0.0202,0.0,0.0,0.0,0.0,0.0,0.0,0.0,0.0,0.0,0.0,0.0,0.0,0.0,0.0,0.0,0.0,0.0,0.0,0.0,0.0,0.0,0.0,0.0,0.0,0.0,0.0,0.0,0.0,0.0,0.0,-0.0101,-0.0303,-0.0564,-0.067,-0.0671,-0.0684,-0.0694,-0.0648,-0.0651,-0.0659,-0.0669,-0.0669,-0.0726,-0.0785,-0.0785,-0.0841,-0.1065,-0.1958,-0.2238,-0.2405,-0.3299,-0.3744,-0.3965,-0.4242,-0.4522,-0.4803,-0.5083,-0.5194,-0.5361,-0.6258,-0.6424,-0.6871,-0.8546,-0.8885,-0.8749,-0.8215,-0.8114,-0.7928,-0.7376,-0.7258,-0.6933,-0.6125,-0.6002,-0.5679,-0.4924,-0.4824,-0.4674,-0.4425,-0.3674,-0.3073,-0.2822,-0.207,-0.1617,-0.1617,-0.1617,-0.1617,-0.1617,-0.1617,-0.1617,-0.1617,-0.1617,-0.1617,-0.1617,-0.1617,-0.1617,-0.1617,-0.1617,-0.1617,0.0,0.0,0.0,0.0,0.0,0.0,0.0,0.0,0.0,0.0,0.0,0.0303,0.1311,0.0707,0.0,0.0,0.0,0.0,0.0,0.0,0.0,0.0,0.0,0.0,0.0,0.0,0.0,0.0,0.0,0.0,0.0,0.0,0.0,0.0,0.0,0.0,0.0,0.0,0.0,0.0,0.0,0.0,0.0,0.0,0.0,0.0,-0.0051,-0.0051,-0.0051,-0.0052,-0.0052,-0.0052,-0.0053,-0.0054,-0.0055,-0.0055,-0.0221,-0.0449,-0.0449,-0.0617,-0.0897,-0.0953,-0.1009,-0.1009,-0.1065,-0.1121,-0.1345,-0.2517,-0.2851,-0.313,-0.4247,-0.4526,-0.4582,-0.4637,-0.4639,-0.5419,-0.8266,-0.8885,-0.8559,-0.7425,-0.7069,-0.6596,-0.547,-0.5166,-0.5056,-0.5006,-0.493,-0.4874,-0.4824,-0.4824,-0.4423,-0.3374,-0.3224,-0.2772,-0.1768,-0.1617,-0.1617,-0.1617,-0.1617,-0.1617,-0.1617,-0.1617,-0.1617,-0.1617,-0.1617,-0.1617,-0.1617,-0.1617,-0.1617,-0.1617,-0.1617,-0.1617,0.0,0.0,0.0,0.0,0.0,0.0,0.1884,0.1775,0.193,0.193,0.1999,0.2167,0.2569,0.1765,0.1261,0.1966,0.1462,0.1261,0.1966,0.0858,0.0252,0.0958,0.0404,0.0,0.0,0.0,0.0,0.0,0.0,0.0,0.0,0.0,0.0,0.0,0.0,0.0,0.0,0.0,0.0,0.0,0.0,0.0,0.0,0.0,0.0,0.0,0.0,0.0,0.0,0.0,0.0,0.0,0.0,0.0,0.0,0.0,-0.0054,-0.0166,-0.0166,-0.0222,-0.0336,-0.0336,-0.0336,-0.0336,-0.0336,-0.0449,-0.0673,-0.112,-0.14,-0.1624,-0.2072,-0.2183,-0.2407,-0.3186,-0.3913,-0.4804,-0.5864,-0.6195,-0.622,-0.5904,-0.5775,-0.5582,-0.5059,-0.4911,-0.468,-0.4001,-0.3836,-0.3588,-0.2874,-0.2793,-0.2622,-0.222,-0.217,-0.2019,-0.1617,-0.1617,-0.1617,-0.1617,-0.1617,-0.1617,-0.1617,-0.1617,-0.1617,-0.1617,-0.1617,-0.1617,-0.1617,-0.1617,-0.1617,-0.1617,-0.1617,-0.1617,0.3903,0.0,0.0,0.0,0.0,0.3431,0.2803,0.0,0.2869,0.2974,0.3066,0.3249,0.3673,0.3173,0.2771,0.3123,0.262,0.2368,0.3123,0.1966,0.121,0.1563,0.1311,0.0807,0.0051,0.0303,0.0404,0.0051,0.0,0.0,0.0,0.0,0.0,0.0,0.0,0.0,0.0,0.0,0.0,0.0,0.0,0.0,0.0,0.0,0.0,0.0,0.0,0.0,0.0,0.0,0.0,0.0,0.0,0.0,0.0,0.0,0.0,0.0,0.0,0.0,0.0,0.0,0.0,0.0,0.0,-0.0112,-0.028,-0.028,-0.0449,-0.0617,-0.0617,-0.0617,-0.0785,-0.1623,-0.2405,-0.3019,-0.3131,-0.3967,-0.4668,-0.4322,-0.4272,-0.4155,-0.3762,-0.3698,-0.3479,-0.2876,-0.2778,-0.2489,-0.1818,-0.1636,-0.1621,-0.1631,-0.1623,-0.1617,-0.1617,-0.1617,-0.1617,-0.1617,-0.1617,-0.1617,-0.1617,-0.1617,-0.1617,-0.1617,-0.1617,-0.1617,-0.1617,-0.1617,-0.1617,-0.1617,-0.1617,-0.1617,0.0,0.0,0.0,0.0,0.0,0.0,0.2982,0.0,0.2679,0.2988,0.3074,0.3439,0.4612,0.483,0.4479,0.3475,0.3274,0.3274,0.3274,0.3224,0.2821,0.1815,0.2569,0.2368,0.0303,0.1009,0.116,0.0101,0.0,0.0,0.0,0.0,0.0,0.0,0.0,0.0,0.0,0.0,0.0,0.0,0.0,0.0,0.0,0.0,0.0,0.0,0.0,0.0,0.0,0.0,0.0,0.0,0.0,0.0,0.0,0.0,0.0,0.0,0.0,0.0,0.0,0.0,0.0,0.0,0.0,0.0,0.0,0.0,0.0,0.0,0.0,0.0,0.0,0.0,0.0,-0.0056,-0.0336,-0.2462,-0.4006,-0.2794,-0.26,-0.2337,-0.1426,-0.1312,-0.1359,-0.1657,-0.1681,-0.1662,-0.1662,-0.1636,-0.1628,-0.171,-0.1635,-0.1617,-0.1617,-0.1617,-0.1617,-0.1617,-0.1617,-0.1617,-0.1617,-0.1617,-0.1617,-0.1617,-0.1617,-0.1617,-0.1617,-0.1617,-0.1617,-0.1617,-0.1617,-0.1617,0.3769,0.0,0.0,0.0,0.0,0.0,0.0,0.0,0.4401,0.4742,0.4908,0.5129,0.5774,0.5873,0.5797,0.5572,0.488,0.4632,0.5381,0.4176,0.3374,0.3879,0.3475,0.2972,0.2368,0.1865,0.1462,0.116,0.0454,0.0,0.0,0.0,0.0,0.0,0.0,0.0,0.0,0.0,0.0,0.0,0.0,0.0,0.0,0.0,0.0,0.0,0.0,0.0,0.0,0.0,0.0,0.0,0.0,0.0,0.0,0.0,0.0,0.0,0.0,0.0,0.0,0.0,0.0,0.0,0.0,0.0,0.0,0.0,0.0,0.0,0.0,0.0,0.0,0.0,0.0,0.0,-0.0112,-0.0728,-0.1286,-0.1337,-0.1396,-0.1343,-0.1059,-0.0992,-0.1037,-0.1086,-0.1112,-0.1195,-0.1402,-0.1329,-0.1367,-0.1628,-0.1622,-0.1617,-0.1617,-0.1617,-0.1617,-0.1617,-0.1617,-0.1617,-0.1617,-0.1617,-0.1617,-0.1617,-0.1617,-0.1617,-0.1617,-0.1617,-0.1617,-0.1617,-0.1617,-0.1617,0.0,0.0,0.0,0.0,0.0,0.0,0.467,0.4819,0.4996,0.5413,0.5564,0.5707,0.6059,0.6116,0.617,0.6339,0.5822,0.5638,0.6329,0.5331,0.458,0.4784,0.4632,0.4176,0.3274,0.3022,0.2569,0.1664,0.1009,0.0454,0.0,0.0,0.0,0.0,0.0,0.0,0.0,0.0,0.0,0.0,0.0,0.0,0.0,0.0,0.0,0.0,0.0,0.0,0.0,0.0,0.0,0.0,0.0,0.0,0.0,0.0,0.0,0.0,0.0,0.0,0.0,0.0,0.0,0.0,0.0,0.0,0.0,0.0,0.0,0.0,0.0,0.0,0.0,0.0,0.0,0.0,0.0,0.0,-0.0112,-0.0449,-0.0502,-0.0556,-0.0672,-0.0715,-0.0758,-0.0866,-0.0899,-0.0935,-0.1091,-0.1073,-0.1114,-0.1277,-0.1269,-0.1314,-0.1415,-0.1415,-0.1465,-0.1617,-0.1617,-0.1617,-0.1617,-0.1617,-0.1617,-0.1617,-0.1617,-0.1617,-0.1617,-0.1617,-0.1617,-0.1617,-0.1617,-0.1617,0.0,0.0,0.0,0.0,0.0,0.0,0.4917,0.4879,0.4838,0.5281,0.54,0.5483,0.5776,0.5833,0.5915,0.6183,0.6251,0.6276,0.6368,0.6387,0.6034,0.5085,0.5834,0.5632,0.3726,0.4331,0.4029,0.2116,0.1714,0.116,0.0252,0.0051,0.0,0.0,0.0,0.0,0.0,0.0,0.0,0.0,0.0,0.0,0.0,0.0,0.0,0.0,0.0,0.0,0.0,0.0,0.0,0.0,0.0,0.0,0.0,0.0,0.0,0.0,0.0,0.0,0.0,0.0,0.0,0.0,0.0,0.0,0.0,0.0,0.0,0.0,0.0,0.0,0.0,0.0,0.0,0.0,0.0,0.0,0.0,0.0,0.0,-0.0055,-0.0335,-0.0381,-0.0479,-0.0745,-0.0785,-0.0828,-0.0828,-0.0816,-0.0813,-0.0879,-0.0816,-0.0909,-0.1111,-0.1162,-0.1263,-0.1516,-0.1516,-0.1516,-0.1516,-0.1516,-0.1566,-0.1566,-0.1566,-0.1617,-0.1617,-0.1617,-0.1617,-0.1617,-0.1617,-0.1617,0.0,0.0,0.0,0.4577,0.4599,0.0,0.4224,0.4425,0.4695,0.4712,0.4797,0.4969,0.5265,0.5407,0.5531,0.558,0.5787,0.6083,0.6344,0.6387,0.6337,0.6137,0.6287,0.6237,0.5832,0.5183,0.4634,0.423,0.2569,0.1513,0.1311,0.0454,0.0,0.0,0.0,0.0,0.0,0.0,0.0,0.0,0.0,0.0,0.0,0.0,0.0,0.0,0.0,0.0,0.0,0.0,0.0,0.0,0.0,0.0,0.0,0.0,0.0,0.0,0.0,0.0,0.0,0.0,0.0,0.0,0.0,0.0,0.0,0.0,0.0,0.0,0.0,0.0,0.0,0.0,0.0,0.0,0.0,0.0,0.0,0.0,0.0,0.0,-0.0055,-0.0053,-0.0104,-0.0157,-0.0154,-0.0254,-0.0457,-0.0506,-0.0556,-0.0812,-0.081,-0.0808,-0.0859,-0.0859,-0.0909,-0.096,-0.096,-0.096,-0.096,-0.1162,-0.1263,-0.1263,-0.1465,-0.1617,-0.1617,-0.1617,-0.1617,-0.1617,-0.1617,-0.1617,0.4882,0.4879,0.4925,0.4958,0.483,0.0,0.0,0.4477,0.4564,0.4705,0.4681,0.4709,0.5037,0.5092,0.5109,0.529,0.5529,0.5745,0.5923,0.6101,0.626,0.626,0.626,0.6285,0.6347,0.5859,0.5336,0.483,0.3324,0.2167,0.1613,0.111,0.0555,0.0,0.0,0.0,0.0,0.0,0.0,0.0,0.0,0.0,0.0,0.0,0.0,0.0,0.0,0.0,0.0,0.0,0.0,0.0,0.0,0.0,0.0,0.0,0.0,0.0,0.0,0.0,0.0,0.0,0.0,0.0,0.0,0.0,0.0,0.0,0.0,0.0,0.0,0.0,0.0,0.0,0.0,0.0,0.0,0.0,0.0,0.0,0.0,0.0,0.0,0.0,0.0,0.0,0.0,-0.0051,-0.0202,-0.0202,-0.0253,-0.0404,-0.0404,-0.0455,-0.0606,-0.0606,-0.0657,-0.0808,-0.0808,-0.0808,-0.0808,-0.0909,-0.101,-0.101,-0.1111,-0.1212,-0.1212,-0.1212,-0.1364,-0.1617,-0.1617,-0.1617,0.5246,0.5205,0.5241,0.5317,0.5133,0.4895,0.0,0.0,0.0,0.4781,0.4626,0.0,0.0,0.4719,0.4714,0.4969,0.5197,0.5362,0.5338,0.5687,0.5928,0.5977,0.6024,0.6089,0.6189,0.6157,0.5861,0.5122,0.3995,0.3005,0.2192,0.1951,0.1354,0.0301,0.0302,0.0202,0.0,0.0,0.0,0.0,0.0,0.0,0.0,0.0,0.0,0.0,0.0,0.0,0.0,0.0,0.0,0.0,0.0,0.0,0.0,0.0,0.0,0.0,0.0,0.0,0.0,0.0,0.0,0.0,0.0,0.0,0.0,0.0,0.0,0.0,0.0,0.0,0.0,0.0,0.0,0.0,0.0,0.0,0.0,0.0,0.0,0.0,0.0,0.0,0.0,0.0,0.0,0.0,0.0,0.0,0.0,0.0,0.0,-0.0101,-0.0303,-0.0303,-0.0404,-0.0657,-0.0657,-0.0657,-0.0657,-0.0707,-0.0758,-0.0808,-0.0808,-0.0808,-0.0808,-0.0808,-0.101,-0.1465,-0.1465,-0.1465,0.5839,0.5882,0.5841,0.5333,0.5412,0.5324,0.4399,0.0,0.4631,0.4261,0.0,0.4333,0.0,0.0,0.0,0.4395,0.4655,0.4876,0.4807,0.5103,0.5368,0.5543,0.5795,0.5928,0.5945,0.571,0.5679,0.591,0.4645,0.3935,0.4149,0.3307,0.2358,0.1278,0.1349,0.0958,0.0,0.0,0.0,0.0,0.0,0.0,0.0,0.0,0.0,0.0,0.0,0.0,0.0,0.0,0.0,0.0,0.0,0.0,0.0,0.0,0.0,0.0,0.0,0.0,0.0,0.0,0.0,0.0,0.0,0.0,0.0,0.0,0.0,0.0,0.0,0.0,0.0,0.0,0.0,0.0,0.0,0.0,0.0,0.0,0.0,0.0,0.0,0.0,0.0,0.0,0.0,0.0,0.0,0.0,0.0,0.0,0.0,0.0,-0.0051,-0.0051,-0.0051,-0.0101,-0.0101,-0.0101,-0.0101,-0.0303,-0.0556,-0.0808,-0.0808,-0.0808,-0.0808,-0.0808,-0.0808,-0.0909,-0.0909,-0.0909,0.5937,0.5939,0.5904,0.5583,0.5461,0.526,0.4631,0.4493,0.4507,0.4442,0.0,0.0,0.0,0.0,0.0,0.0,0.4542,0.4664,0.4509,0.4734,0.4966,0.517,0.5328,0.5442,0.5581,0.5504,0.5567,0.5858,0.5232,0.4698,0.4423,0.4045,0.3385,0.2349,0.2368,0.1944,0.0958,0.0908,0.0606,0.0,0.0,0.0,0.0,0.0,0.0,0.0,0.0,0.0,0.0,0.0,0.0,0.0,0.0,0.0,0.0,0.0,0.0,0.0,0.0,0.0,0.0,0.0,0.0,0.0,0.0,0.0,0.0,0.0,0.0,0.0,0.0,0.0,0.0,0.0,0.0,0.0,0.0,0.0,0.0,0.0,0.0,0.0,0.0,0.0,0.0,0.0,0.0,0.0,0.0,0.0,0.0,0.0,0.0,0.0,0.0,0.0,0.0,0.0,0.0,0.0,0.0,-0.0101,-0.0202,-0.0354,-0.0354,-0.0354,-0.0354,-0.0354,-0.0354,-0.0354,-0.0657,-0.0808,0.6217,0.6145,0.6078,0.5703,0.5434,0.514,0.477,0.4564,0.4485,0.466,0.4558,0.0,0.0,0.0,0.0,0.0,0.0,0.4605,0.4336,0.4484,0.4657,0.48,0.4906,0.5048,0.5252,0.5154,0.5216,0.5559,0.5338,0.5034,0.4653,0.4763,0.4399,0.3444,0.3465,0.3013,0.2066,0.2016,0.1664,0.0858,0.0858,0.0706,0.0454,0.0454,0.0303,0.0,0.0,0.0,0.0,0.0,0.0,0.0,0.0,0.0,0.0,0.0,0.0,0.0,0.0,0.0,0.0,0.0,0.0,0.0,0.0,0.0,0.0,0.0,0.0,0.0,0.0,0.0,0.0,0.0,0.0,0.0,0.0,0.0,0.0,0.0,0.0,0.0,0.0,0.0,0.0,0.0,0.0,0.0,0.0,0.0,0.0,0.0,0.0,0.0,0.0,0.0,0.0,0.0,0.0,0.0,0.0,0.0,0.0,0.0,0.0,0.0,0.0,0.0,0.0,0.0,-0.0404,-0.0556,0.6825,0.6775,0.6549,0.5642,0.5413,0.5218,0.4477,0.4542,0.4784,0.4712,0.4958,0.5121,0.5018,0.4858,0.0,0.0,0.0,0.0,0.0,0.4308,0.4314,0.4322,0.4593,0.4852,0.5015,0.4607,0.4575,0.5159,0.4805,0.4814,0.5438,0.559,0.5302,0.4464,0.4554,0.4148,0.3172,0.3173,0.3123,0.3073,0.3073,0.2569,0.1563,0.1563,0.0958,0.0,0.0,0.0,0.0,0.0,0.0,0.0,0.0,0.0,0.0,0.0,0.0,0.0,0.0,0.0,0.0,0.0,0.0,0.0,0.0,0.0,0.0,0.0,0.0,0.0,0.0,0.0,0.0,0.0,0.0,0.0,0.0,0.0,0.0,0.0,0.0,0.0,0.0,0.0,0.0,0.0,0.0,0.0,0.0,0.0,0.0,0.0,0.0,0.0,0.0,0.0,0.0,0.0,0.0,0.0,0.0,0.0,0.0,0.0,0.0,0.0,0.0,0.0,0.0,0.0,0.0,-0.0051,0.7089,0.7089,0.6914,0.6164,0.5846,0.5485,0.4799,0.4709,0.48,0.4714,0.4977,0.5151,0.5037,0.4944,0.0,0.0,0.0,0.0,0.0,0.4042,0.3999,0.4016,0.0,0.0,0.4425,0.4349,0.4447,0.4843,0.472,0.4838,0.5284,0.5459,0.5542,0.5444,0.5559,0.5169,0.4279,0.428,0.3879,0.3224,0.3224,0.3022,0.267,0.267,0.2066,0.1059,0.1059,0.0656,0.0,0.0,0.0,0.0,0.0,0.0,0.0,0.0,0.0,0.0,0.0,0.0,0.0,0.0,0.0,0.0,0.0,0.0,0.0,0.0,0.0,0.0,0.0,0.0,0.0,0.0,0.0,0.0,0.0,0.0,0.0,0.0,0.0,0.0,0.0,0.0,0.0,0.0,0.0,0.0,0.0,0.0,0.0,0.0,0.0,0.0,0.0,0.0,0.0,0.0,0.0,0.0,0.0,0.0,0.0,0.0,0.0,0.0,0.0,0.0,0.0,0.0,0.0,0.0,0.7391,0.7341,0.7193,0.6604,0.6266,0.596,0.5249,0.5179,0.5235,0.5151,0.5303,0.5473,0.5527,0.5333,0.0,0.0,0.0,0.0,0.0,0.3917,0.3816,0.0,0.0,0.0,0.0,0.4137,0.4273,0.4599,0.4586,0.4739,0.5105,0.5355,0.5613,0.5893,0.6024,0.5861,0.5384,0.5386,0.5033,0.4327,0.4327,0.4128,0.3776,0.3776,0.3173,0.2167,0.1765,0.121,0.0555,0.0151,0.0,0.0,0.0,0.0,0.0,0.0,0.0,0.0,0.0,0.0,0.0,0.0,0.0,0.0,0.0,0.0,0.0,0.0,0.0,0.0,0.0,0.0,0.0,0.0,0.0,0.0,0.0,0.0,0.0,0.0,0.0,0.0,0.0,0.0,0.0,0.0,0.0,0.0,0.0,0.0,0.0,0.0,0.0,0.0,0.0,0.0,0.0,0.0,0.0,0.0,0.0,0.0,0.0,0.0,0.0,0.0,0.0,0.0,0.0,0.0,0.0,0.0]}]]